<?xml version='1.0' encoding='UTF-8'?><gpx version="1.1" creator="JPX - https://github.com/jenetics/jpx" xmlns="http://www.topografix.com/GPX/1/1"><trk><trkseg><trkpt lat="45.390782054470904" lon="10.69522462896778"><ele>87.0</ele><time>2026-04-26T14:08:28.001Z</time></trkpt><trkpt lat="45.39071073335441" lon="10.695167857680254"><ele>87.0</ele><time>2026-04-26T14:08:31.001Z</time></trkpt><trkpt lat="45.39058655291616" lon="10.69520689179021"><ele>87.0</ele><time>2026-04-26T14:08:33.001Z</time></trkpt><trkpt lat="45.39051393656463" lon="10.695232232334817"><ele>87.0</ele><time>2026-04-26T14:08:34.001Z</time></trkpt><trkpt lat="45.390445788814425" lon="10.695267685240898"><ele>87.0</ele><time>2026-04-26T14:08:35.001Z</time></trkpt><trkpt lat="45.39037920662227" lon="10.695305005571738"><ele>87.0</ele><time>2026-04-26T14:08:36.001Z</time></trkpt><trkpt lat="45.39031238460813" lon="10.695344254719359"><ele>87.39999999999999</ele><time>2026-04-26T14:08:37.001Z</time></trkpt><trkpt lat="45.39023815208419" lon="10.695382633661758"><ele>87.8</ele><time>2026-04-26T14:08:38.001Z</time></trkpt><trkpt lat="45.3901581939095" lon="10.695426330744906"><ele>88.2</ele><time>2026-04-26T14:08:39.001Z</time></trkpt><trkpt lat="45.390065670816064" lon="10.695474236751236"><ele>88.6</ele><time>2026-04-26T14:08:40.001Z</time></trkpt><trkpt lat="45.389966466094435" lon="10.695521743094853"><ele>89.0</ele><time>2026-04-26T14:08:41.001Z</time></trkpt><trkpt lat="45.389857792882545" lon="10.695584723744016"><ele>89.0</ele><time>2026-04-26T14:08:42.001Z</time></trkpt><trkpt lat="45.38974631963902" lon="10.695646457254615"><ele>89.0</ele><time>2026-04-26T14:08:43.001Z</time></trkpt><trkpt lat="45.389634929753306" lon="10.695711419576783"><ele>89.0</ele><time>2026-04-26T14:08:44.001Z</time></trkpt><trkpt lat="45.38954090254627" lon="10.69575851129799"><ele>89.0</ele><time>2026-04-26T14:08:45.001Z</time></trkpt><trkpt lat="45.389456864071846" lon="10.695794821952402"><ele>89.0</ele><time>2026-04-26T14:08:46.001Z</time></trkpt><trkpt lat="45.38937416270618" lon="10.6958194878056"><ele>89.0</ele><time>2026-04-26T14:08:47.001Z</time></trkpt><trkpt lat="45.389310703680955" lon="10.695830100406612"><ele>89.0</ele><time>2026-04-26T14:08:48.001Z</time></trkpt><trkpt lat="45.38920759898168" lon="10.695826486181055"><ele>89.0</ele><time>2026-04-26T14:08:50.001Z</time></trkpt><trkpt lat="45.38912643215278" lon="10.695782145845357"><ele>89.0</ele><time>2026-04-26T14:08:52.001Z</time></trkpt><trkpt lat="45.38907891496862" lon="10.695926562935874"><ele>89.0</ele><time>2026-04-26T14:08:55.001Z</time></trkpt><trkpt lat="45.389117942974345" lon="10.695999186683721"><ele>89.0</ele><time>2026-04-26T14:08:56.001Z</time></trkpt><trkpt lat="45.38920012639789" lon="10.696047289314645"><ele>88.4</ele><time>2026-04-26T14:08:57.001Z</time></trkpt><trkpt lat="45.38928047268757" lon="10.696108283691654"><ele>87.80000000000001</ele><time>2026-04-26T14:08:58.001Z</time></trkpt><trkpt lat="45.38936379458663" lon="10.69619373733802"><ele>87.19999999999999</ele><time>2026-04-26T14:08:59.001Z</time></trkpt><trkpt lat="45.389453354942674" lon="10.696269327003563"><ele>86.6</ele><time>2026-04-26T14:09:00.001Z</time></trkpt><trkpt lat="45.38953161437835" lon="10.69633535428846"><ele>86.0</ele><time>2026-04-26T14:09:01.001Z</time></trkpt><trkpt lat="45.38960711850912" lon="10.696405260371382"><ele>86.19999999999999</ele><time>2026-04-26T14:09:02.001Z</time></trkpt><trkpt lat="45.38968198048954" lon="10.696480118415192"><ele>86.39999999999999</ele><time>2026-04-26T14:09:03.001Z</time></trkpt><trkpt lat="45.38976056955304" lon="10.696554311770551"><ele>86.6</ele><time>2026-04-26T14:09:04.001Z</time></trkpt><trkpt lat="45.3898403455762" lon="10.696628146573596"><ele>86.8</ele><time>2026-04-26T14:09:05.001Z</time></trkpt><trkpt lat="45.389912777722614" lon="10.69669246600531"><ele>87.0</ele><time>2026-04-26T14:09:06.001Z</time></trkpt><trkpt lat="45.38998916232829" lon="10.696758592360629"><ele>87.0</ele><time>2026-04-26T14:09:07.001Z</time></trkpt><trkpt lat="45.39006286943069" lon="10.696824507114938"><ele>87.0</ele><time>2026-04-26T14:09:08.001Z</time></trkpt><trkpt lat="45.39013248840482" lon="10.696890281917623"><ele>87.0</ele><time>2026-04-26T14:09:09.001Z</time></trkpt><trkpt lat="45.390204788555806" lon="10.696954050050032"><ele>87.0</ele><time>2026-04-26T14:09:10.001Z</time></trkpt><trkpt lat="45.390280964535854" lon="10.697020807075186"><ele>87.0</ele><time>2026-04-26T14:09:11.001Z</time></trkpt><trkpt lat="45.39035000734924" lon="10.69709894607453"><ele>87.0</ele><time>2026-04-26T14:09:12.001Z</time></trkpt><trkpt lat="45.39042416071433" lon="10.697169960706615"><ele>86.66666666666667</ele><time>2026-04-26T14:09:13.001Z</time></trkpt><trkpt lat="45.39049714451186" lon="10.697235981337736"><ele>86.33333333333333</ele><time>2026-04-26T14:09:13.999Z</time></trkpt><trkpt lat="45.39057407253227" lon="10.697304831036863"><ele>86.0</ele><time>2026-04-26T14:09:14.999Z</time></trkpt><trkpt lat="45.390646652582134" lon="10.697367726767958"><ele>85.66666666666666</ele><time>2026-04-26T14:09:15.999Z</time></trkpt><trkpt lat="45.390706687552864" lon="10.69742286874172"><ele>85.33333333333333</ele><time>2026-04-26T14:09:16.999Z</time></trkpt><trkpt lat="45.39076319948497" lon="10.697476908848738"><ele>85.0</ele><time>2026-04-26T14:09:17.999Z</time></trkpt><trkpt lat="45.39083247800612" lon="10.69754443860716"><ele>85.0</ele><time>2026-04-26T14:09:19.999Z</time></trkpt><trkpt lat="45.390925458396076" lon="10.697628164384765"><ele>85.0</ele><time>2026-04-26T14:09:21.999Z</time></trkpt><trkpt lat="45.39100834508239" lon="10.697713877596074"><ele>85.0</ele><time>2026-04-26T14:09:22.999Z</time></trkpt><trkpt lat="45.39110370854779" lon="10.697828424423031"><ele>85.0</ele><time>2026-04-26T14:09:23.999Z</time></trkpt><trkpt lat="45.39120851797104" lon="10.697946413695178"><ele>84.2</ele><time>2026-04-26T14:09:24.999Z</time></trkpt><trkpt lat="45.391303124878846" lon="10.698042244381567"><ele>83.4</ele><time>2026-04-26T14:09:25.999Z</time></trkpt><trkpt lat="45.391398079848514" lon="10.698127716844509"><ele>82.6</ele><time>2026-04-26T14:09:26.999Z</time></trkpt><trkpt lat="45.39148920200201" lon="10.698212630930142"><ele>81.8</ele><time>2026-04-26T14:09:27.999Z</time></trkpt><trkpt lat="45.39156404086207" lon="10.698285558491174"><ele>81.0</ele><time>2026-04-26T14:09:28.999Z</time></trkpt><trkpt lat="45.3916571326585" lon="10.69837490049016"><ele>80.75</ele><time>2026-04-26T14:09:29.999Z</time></trkpt><trkpt lat="45.39175199514368" lon="10.698479942054327"><ele>80.5</ele><time>2026-04-26T14:09:30.999Z</time></trkpt><trkpt lat="45.39185008733229" lon="10.698580587417494"><ele>80.25</ele><time>2026-04-26T14:09:31.999Z</time></trkpt><trkpt lat="45.39194606766276" lon="10.698677470606142"><ele>80.0</ele><time>2026-04-26T14:09:32.999Z</time></trkpt><trkpt lat="45.39204821547845" lon="10.698785688163547"><ele>79.5</ele><time>2026-04-26T14:09:33.999Z</time></trkpt><trkpt lat="45.39213460363946" lon="10.69888865923452"><ele>79.0</ele><time>2026-04-26T14:09:34.999Z</time></trkpt><trkpt lat="45.39222227506174" lon="10.698985655644975"><ele>78.5</ele><time>2026-04-26T14:09:35.999Z</time></trkpt><trkpt lat="45.39231275024502" lon="10.699086239176145"><ele>78.0</ele><time>2026-04-26T14:09:37Z</time></trkpt><trkpt lat="45.3924085352119" lon="10.69918796423554"><ele>78.0</ele><time>2026-04-26T14:09:38Z</time></trkpt><trkpt lat="45.39250639915305" lon="10.699290883817413"><ele>78.0</ele><time>2026-04-26T14:09:39Z</time></trkpt><trkpt lat="45.392610940010066" lon="10.699398736994656"><ele>78.0</ele><time>2026-04-26T14:09:40Z</time></trkpt><trkpt lat="45.39271081581126" lon="10.699503320439389"><ele>78.0</ele><time>2026-04-26T14:09:41Z</time></trkpt><trkpt lat="45.392816976240454" lon="10.699611740614989"><ele>77.75</ele><time>2026-04-26T14:09:42Z</time></trkpt><trkpt lat="45.3929203780968" lon="10.699715713843798"><ele>77.5</ele><time>2026-04-26T14:09:43Z</time></trkpt><trkpt lat="45.39303084153281" lon="10.699831347065306"><ele>77.25</ele><time>2026-04-26T14:09:44Z</time></trkpt><trkpt lat="45.393134489585535" lon="10.699942161893636"><ele>77.0</ele><time>2026-04-26T14:09:45Z</time></trkpt><trkpt lat="45.39324729454476" lon="10.700046948286996"><ele>76.75</ele><time>2026-04-26T14:09:46Z</time></trkpt><trkpt lat="45.39336805924624" lon="10.70015295049443"><ele>76.5</ele><time>2026-04-26T14:09:47Z</time></trkpt><trkpt lat="45.39348591204391" lon="10.700253994763395"><ele>76.25</ele><time>2026-04-26T14:09:48Z</time></trkpt><trkpt lat="45.39360452516964" lon="10.700349761986153"><ele>76.0</ele><time>2026-04-26T14:09:49Z</time></trkpt><trkpt lat="45.3937251595345" lon="10.70045006449995"><ele>75.75</ele><time>2026-04-26T14:09:50Z</time></trkpt><trkpt lat="45.39384177596387" lon="10.700547644883613"><ele>75.5</ele><time>2026-04-26T14:09:51Z</time></trkpt><trkpt lat="45.393961682820446" lon="10.70064532940952"><ele>75.25</ele><time>2026-04-26T14:09:52Z</time></trkpt><trkpt lat="45.39407616337721" lon="10.700738349296467"><ele>75.0</ele><time>2026-04-26T14:09:53Z</time></trkpt><trkpt lat="45.394197730282016" lon="10.700822716078598"><ele>75.0</ele><time>2026-04-26T14:09:54Z</time></trkpt><trkpt lat="45.39431742285497" lon="10.70089782041279"><ele>75.0</ele><time>2026-04-26T14:09:55Z</time></trkpt><trkpt lat="45.394434481494194" lon="10.70097786203856"><ele>75.0</ele><time>2026-04-26T14:09:56Z</time></trkpt><trkpt lat="45.39455276205614" lon="10.701061106423115"><ele>75.0</ele><time>2026-04-26T14:09:57Z</time></trkpt><trkpt lat="45.39465466085705" lon="10.701163498549613"><ele>75.5</ele><time>2026-04-26T14:09:58Z</time></trkpt><trkpt lat="45.39474040978776" lon="10.70128467612807"><ele>76.0</ele><time>2026-04-26T14:09:59Z</time></trkpt><trkpt lat="45.39481084106979" lon="10.701420615630937"><ele>76.5</ele><time>2026-04-26T14:10:00Z</time></trkpt><trkpt lat="45.39487033368907" lon="10.701562615923795"><ele>77.0</ele><time>2026-04-26T14:10:01Z</time></trkpt><trkpt lat="45.39493450749529" lon="10.701699171259017"><ele>77.0</ele><time>2026-04-26T14:10:02Z</time></trkpt><trkpt lat="45.39501347352961" lon="10.70181954105505"><ele>77.0</ele><time>2026-04-26T14:10:03Z</time></trkpt><trkpt lat="45.39510511350526" lon="10.70191962886884"><ele>77.0</ele><time>2026-04-26T14:10:04Z</time></trkpt><trkpt lat="45.39520262339045" lon="10.702012177553529"><ele>77.0</ele><time>2026-04-26T14:10:05Z</time></trkpt><trkpt lat="45.39529321536741" lon="10.702096992645872"><ele>76.83333333333334</ele><time>2026-04-26T14:10:06Z</time></trkpt><trkpt lat="45.39537570750237" lon="10.702167482643292"><ele>76.66666666666667</ele><time>2026-04-26T14:10:07Z</time></trkpt><trkpt lat="45.39545319982045" lon="10.702241320334236"><ele>76.5</ele><time>2026-04-26T14:10:08Z</time></trkpt><trkpt lat="45.39551935702298" lon="10.702311878431319"><ele>76.33333333333333</ele><time>2026-04-26T14:10:09Z</time></trkpt><trkpt lat="45.39557091507684" lon="10.702372680758806"><ele>76.16666666666666</ele><time>2026-04-26T14:10:10Z</time></trkpt><trkpt lat="45.39561241429233" lon="10.702455641268019"><ele>76.0</ele><time>2026-04-26T14:10:12Z</time></trkpt><trkpt lat="45.395476542988156" lon="10.702611358819086"><ele>76.5</ele><time>2026-04-26T14:10:14Z</time></trkpt><trkpt lat="45.395398617159636" lon="10.702738734351007"><ele>77.0</ele><time>2026-04-26T14:10:16Z</time></trkpt><trkpt lat="45.39535759534535" lon="10.702817442550664"><ele>77.5</ele><time>2026-04-26T14:10:17Z</time></trkpt><trkpt lat="45.395320974102376" lon="10.702912765220384"><ele>78.0</ele><time>2026-04-26T14:10:18Z</time></trkpt><trkpt lat="45.39529472223045" lon="10.703020861523463"><ele>78.5</ele><time>2026-04-26T14:10:19Z</time></trkpt><trkpt lat="45.39527678331202" lon="10.703136388374505"><ele>79.0</ele><time>2026-04-26T14:10:20Z</time></trkpt><trkpt lat="45.39526144362062" lon="10.70325454325315"><ele>77.8</ele><time>2026-04-26T14:10:21Z</time></trkpt><trkpt lat="45.39524119858612" lon="10.703385691735077"><ele>76.60000000000001</ele><time>2026-04-26T14:10:22.001Z</time></trkpt><trkpt lat="45.39522249535163" lon="10.703523132322548"><ele>75.4</ele><time>2026-04-26T14:10:23.001Z</time></trkpt><trkpt lat="45.39520227637838" lon="10.703670516269703"><ele>74.2</ele><time>2026-04-26T14:10:24.001Z</time></trkpt><trkpt lat="45.39518019534082" lon="10.703813661460957"><ele>73.0</ele><time>2026-04-26T14:10:25.001Z</time></trkpt><trkpt lat="45.3951432570315" lon="10.703963919335756"><ele>71.4</ele><time>2026-04-26T14:10:26.001Z</time></trkpt><trkpt lat="45.395120434489826" lon="10.704112549999257"><ele>69.8</ele><time>2026-04-26T14:10:27.001Z</time></trkpt><trkpt lat="45.39511209159184" lon="10.704271623956622"><ele>68.2</ele><time>2026-04-26T14:10:28.001Z</time></trkpt><trkpt lat="45.395079387073444" lon="10.70442282821076"><ele>66.6</ele><time>2026-04-26T14:10:29.001Z</time></trkpt><trkpt lat="45.395052947420304" lon="10.704570353538006"><ele>65.0</ele><time>2026-04-26T14:10:30.001Z</time></trkpt><trkpt lat="45.39503018251692" lon="10.704716918676406"><ele>64.4</ele><time>2026-04-26T14:10:31.001Z</time></trkpt><trkpt lat="45.39501549151092" lon="10.704861972123162"><ele>63.8</ele><time>2026-04-26T14:10:32.001Z</time></trkpt><trkpt lat="45.39500605678095" lon="10.705014272606817"><ele>63.2</ele><time>2026-04-26T14:10:33.001Z</time></trkpt><trkpt lat="45.39500325323805" lon="10.705152979362834"><ele>62.6</ele><time>2026-04-26T14:10:34.001Z</time></trkpt><trkpt lat="45.39500128742005" lon="10.705278923493358"><ele>62.0</ele><time>2026-04-26T14:10:35.001Z</time></trkpt><trkpt lat="45.394999757133185" lon="10.705414587410566"><ele>62.00000000000001</ele><time>2026-04-26T14:10:36.001Z</time></trkpt><trkpt lat="45.39499757804334" lon="10.705534940518925"><ele>62.0</ele><time>2026-04-26T14:10:37.001Z</time></trkpt><trkpt lat="45.39499366978193" lon="10.705666555013623"><ele>62.0</ele><time>2026-04-26T14:10:38.001Z</time></trkpt><trkpt lat="45.394993022448595" lon="10.705787324524765"><ele>62.0</ele><time>2026-04-26T14:10:39.001Z</time></trkpt><trkpt lat="45.394991808077776" lon="10.705916325122853"><ele>62.00000000000001</ele><time>2026-04-26T14:10:40.001Z</time></trkpt><trkpt lat="45.39499340981771" lon="10.706049829176335"><ele>62.0</ele><time>2026-04-26T14:10:41.001Z</time></trkpt><trkpt lat="45.394992571345" lon="10.706161618039019"><ele>62.400000000000006</ele><time>2026-04-26T14:10:42.001Z</time></trkpt><trkpt lat="45.39500114422692" lon="10.706321499616909"><ele>62.800000000000004</ele><time>2026-04-26T14:10:44.001Z</time></trkpt><trkpt lat="45.39500607895651" lon="10.706425663263246"><ele>63.2</ele><time>2026-04-26T14:10:46.001Z</time></trkpt><trkpt lat="45.395071769164375" lon="10.706489270540445"><ele>63.6</ele><time>2026-04-26T14:10:48.001Z</time></trkpt><trkpt lat="45.395029403588474" lon="10.706573442136964"><ele>64.0</ele><time>2026-04-26T14:12:02Z</time></trkpt><trkpt lat="45.39519829800986" lon="10.706628638722927"><ele>64.0</ele><time>2026-04-26T14:12:03Z</time></trkpt><trkpt lat="45.39528061891742" lon="10.706692333313878"><ele>64.0</ele><time>2026-04-26T14:12:04Z</time></trkpt><trkpt lat="45.395377966210795" lon="10.706807903057808"><ele>64.0</ele><time>2026-04-26T14:12:06Z</time></trkpt><trkpt lat="45.3954401661278" lon="10.706872445318298"><ele>64.0</ele><time>2026-04-26T14:12:07Z</time></trkpt><trkpt lat="45.39550738353851" lon="10.706949368582514"><ele>64.0</ele><time>2026-04-26T14:12:08Z</time></trkpt><trkpt lat="45.395579728187286" lon="10.707031547249716"><ele>63.99999999999999</ele><time>2026-04-26T14:12:09Z</time></trkpt><trkpt lat="45.39565509670153" lon="10.707113889668479"><ele>64.0</ele><time>2026-04-26T14:12:10Z</time></trkpt><trkpt lat="45.39572427432271" lon="10.70720150174757"><ele>64.0</ele><time>2026-04-26T14:12:11Z</time></trkpt><trkpt lat="45.39579687769298" lon="10.70728068179855"><ele>64.0</ele><time>2026-04-26T14:12:12Z</time></trkpt><trkpt lat="45.39586166145889" lon="10.707362631845369"><ele>63.99999999999999</ele><time>2026-04-26T14:12:13Z</time></trkpt><trkpt lat="45.39592251162571" lon="10.707431997884651"><ele>64.0</ele><time>2026-04-26T14:12:14Z</time></trkpt><trkpt lat="45.395984983824256" lon="10.707508196848636"><ele>63.99999999999999</ele><time>2026-04-26T14:12:15Z</time></trkpt><trkpt lat="45.39605588273603" lon="10.70758347074262"><ele>64.0</ele><time>2026-04-26T14:12:16Z</time></trkpt><trkpt lat="45.39611208940024" lon="10.707676619665351"><ele>64.0</ele><time>2026-04-26T14:12:17Z</time></trkpt><trkpt lat="45.39617773171621" lon="10.707754827509154"><ele>64.0</ele><time>2026-04-26T14:12:18Z</time></trkpt><trkpt lat="45.39624388329953" lon="10.70783364210767"><ele>63.99999999999999</ele><time>2026-04-26T14:12:19Z</time></trkpt><trkpt lat="45.396310367024455" lon="10.707880342784469"><ele>64.0</ele><time>2026-04-26T14:12:20Z</time></trkpt><trkpt lat="45.39636591516003" lon="10.707942041496167"><ele>64.5</ele><time>2026-04-26T14:12:21Z</time></trkpt><trkpt lat="45.39642302219965" lon="10.708003591099457"><ele>65.0</ele><time>2026-04-26T14:12:22Z</time></trkpt><trkpt lat="45.39648770852711" lon="10.708059349639086"><ele>65.5</ele><time>2026-04-26T14:12:23Z</time></trkpt><trkpt lat="45.396556886493" lon="10.708098021006345"><ele>66.0</ele><time>2026-04-26T14:12:24Z</time></trkpt><trkpt lat="45.39663035655221" lon="10.70812851476658"><ele>66.5</ele><time>2026-04-26T14:12:25Z</time></trkpt><trkpt lat="45.396706579879584" lon="10.708146207118364"><ele>67.0</ele><time>2026-04-26T14:12:26Z</time></trkpt><trkpt lat="45.39678087434343" lon="10.708162530616512"><ele>67.0</ele><time>2026-04-26T14:12:27Z</time></trkpt><trkpt lat="45.39685493437352" lon="10.708193619751713"><ele>67.0</ele><time>2026-04-26T14:12:28Z</time></trkpt><trkpt lat="45.39694882207186" lon="10.708203321774898"><ele>67.0</ele><time>2026-04-26T14:12:29Z</time></trkpt><trkpt lat="45.39704136628257" lon="10.708208457862185"><ele>67.0</ele><time>2026-04-26T14:12:30.001Z</time></trkpt><trkpt lat="45.397128241969355" lon="10.708211658817032"><ele>67.0</ele><time>2026-04-26T14:12:31.001Z</time></trkpt><trkpt lat="45.39721889988574" lon="10.708214272724284"><ele>67.0</ele><time>2026-04-26T14:12:32.001Z</time></trkpt><trkpt lat="45.39729831305366" lon="10.708213450913929"><ele>67.0</ele><time>2026-04-26T14:12:33.001Z</time></trkpt><trkpt lat="45.397387143779135" lon="10.708204568227936"><ele>67.0</ele><time>2026-04-26T14:12:34.001Z</time></trkpt><trkpt lat="45.39745800009151" lon="10.708162734843649"><ele>67.0</ele><time>2026-04-26T14:12:35.001Z</time></trkpt><trkpt lat="45.39753579107867" lon="10.708143847812305"><ele>67.0</ele><time>2026-04-26T14:12:36.001Z</time></trkpt><trkpt lat="45.397634879306175" lon="10.708093255526071"><ele>67.0</ele><time>2026-04-26T14:12:38.001Z</time></trkpt><trkpt lat="45.397735468366264" lon="10.708053828388927"><ele>67.0</ele><time>2026-04-26T14:12:40.001Z</time></trkpt><trkpt lat="45.39779766615285" lon="10.708032067283144"><ele>67.0</ele><time>2026-04-26T14:12:41.001Z</time></trkpt><trkpt lat="45.397864978533434" lon="10.708010135924512"><ele>67.0</ele><time>2026-04-26T14:12:42.001Z</time></trkpt><trkpt lat="45.39793645869114" lon="10.707987644123147"><ele>67.0</ele><time>2026-04-26T14:12:43.001Z</time></trkpt><trkpt lat="45.39801393451455" lon="10.707958871392547"><ele>67.0</ele><time>2026-04-26T14:12:44.001Z</time></trkpt><trkpt lat="45.398094780464874" lon="10.707909715922419"><ele>67.0</ele><time>2026-04-26T14:12:45.001Z</time></trkpt><trkpt lat="45.39816713424078" lon="10.707851307794016"><ele>66.5</ele><time>2026-04-26T14:12:46.001Z</time></trkpt><trkpt lat="45.39824505587587" lon="10.707777643278977"><ele>66.0</ele><time>2026-04-26T14:12:47.001Z</time></trkpt><trkpt lat="45.398308497165345" lon="10.707711092728369"><ele>65.5</ele><time>2026-04-26T14:12:48.001Z</time></trkpt><trkpt lat="45.39837540271956" lon="10.707639858458622"><ele>65.0</ele><time>2026-04-26T14:12:49.001Z</time></trkpt><trkpt lat="45.39843537067405" lon="10.707576861203943"><ele>64.5</ele><time>2026-04-26T14:12:50.001Z</time></trkpt><trkpt lat="45.39850174899881" lon="10.707511385124"><ele>64.0</ele><time>2026-04-26T14:12:51.001Z</time></trkpt><trkpt lat="45.398558463910675" lon="10.707459209557502"><ele>63.99999999999999</ele><time>2026-04-26T14:12:52.001Z</time></trkpt><trkpt lat="45.398621741547586" lon="10.707403206655513"><ele>64.0</ele><time>2026-04-26T14:12:53.001Z</time></trkpt><trkpt lat="45.3986860911575" lon="10.707346357655053"><ele>64.0</ele><time>2026-04-26T14:12:54.001Z</time></trkpt><trkpt lat="45.39875048505091" lon="10.707290318958817"><ele>64.0</ele><time>2026-04-26T14:12:55.001Z</time></trkpt><trkpt lat="45.39881410708794" lon="10.707227468881399"><ele>63.99999999999999</ele><time>2026-04-26T14:12:56.001Z</time></trkpt><trkpt lat="45.3988712262601" lon="10.707153499052083"><ele>64.0</ele><time>2026-04-26T14:12:57.001Z</time></trkpt><trkpt lat="45.39892133617181" lon="10.707062964406878"><ele>64.5</ele><time>2026-04-26T14:12:58.001Z</time></trkpt><trkpt lat="45.39896250714076" lon="10.706974593998993"><ele>65.0</ele><time>2026-04-26T14:12:59.001Z</time></trkpt><trkpt lat="45.398979131395976" lon="10.706879261602724"><ele>65.5</ele><time>2026-04-26T14:13:00.001Z</time></trkpt><trkpt lat="45.39899698852833" lon="10.706787889742525"><ele>66.0</ele><time>2026-04-26T14:13:01.001Z</time></trkpt><trkpt lat="45.39902009905116" lon="10.706634226783498"><ele>66.5</ele><time>2026-04-26T14:13:03.001Z</time></trkpt><trkpt lat="45.39903544818441" lon="10.706535813626052"><ele>67.0</ele><time>2026-04-26T14:13:05.001Z</time></trkpt><trkpt lat="45.39901809579672" lon="10.70664707092102"><ele>67.0</ele><time>2026-04-26T14:13:30.999Z</time></trkpt><trkpt lat="45.399233710717354" lon="10.706793783949923"><ele>67.0</ele><time>2026-04-26T14:13:31.999Z</time></trkpt><trkpt lat="45.39920561207846" lon="10.706893398316382"><ele>67.0</ele><time>2026-04-26T14:13:32.999Z</time></trkpt><trkpt lat="45.39919452197035" lon="10.707032614687998"><ele>67.0</ele><time>2026-04-26T14:13:34.999Z</time></trkpt><trkpt lat="45.39918680745454" lon="10.707129456631192"><ele>67.0</ele><time>2026-04-26T14:13:35.999Z</time></trkpt><trkpt lat="45.39917093846426" lon="10.70722085536902"><ele>67.0</ele><time>2026-04-26T14:13:36.999Z</time></trkpt><trkpt lat="45.39872688390968" lon="10.707287273657112"><ele>66.5</ele><time>2026-04-26T14:13:38.999Z</time></trkpt><trkpt lat="45.39866328087157" lon="10.707346488344077"><ele>66.0</ele><time>2026-04-26T14:13:39.999Z</time></trkpt><trkpt lat="45.39859978566327" lon="10.707403969176857"><ele>65.5</ele><time>2026-04-26T14:13:40.999Z</time></trkpt><trkpt lat="45.39852738690396" lon="10.707431027407345"><ele>65.0</ele><time>2026-04-26T14:13:41.999Z</time></trkpt><trkpt lat="45.3984717922021" lon="10.707511245730473"><ele>64.5</ele><time>2026-04-26T14:13:42.999Z</time></trkpt><trkpt lat="45.39840585563534" lon="10.707570256657247"><ele>64.0</ele><time>2026-04-26T14:13:44Z</time></trkpt><trkpt lat="45.398335916246275" lon="10.70763833091793"><ele>63.99999999999999</ele><time>2026-04-26T14:13:45Z</time></trkpt><trkpt lat="45.3982716026661" lon="10.70771893903563"><ele>64.0</ele><time>2026-04-26T14:13:46Z</time></trkpt><trkpt lat="45.398190233670206" lon="10.707775268556537"><ele>64.0</ele><time>2026-04-26T14:13:47Z</time></trkpt><trkpt lat="45.39812527732655" lon="10.70785469744462"><ele>64.0</ele><time>2026-04-26T14:13:48Z</time></trkpt><trkpt lat="45.39804530373101" lon="10.70790269472771"><ele>63.99999999999999</ele><time>2026-04-26T14:13:49Z</time></trkpt><trkpt lat="45.39795471519989" lon="10.707934549051238"><ele>64.0</ele><time>2026-04-26T14:13:50Z</time></trkpt><trkpt lat="45.39786566234821" lon="10.707961520471898"><ele>64.60000000000001</ele><time>2026-04-26T14:13:51Z</time></trkpt><trkpt lat="45.39777723426276" lon="10.707990548328853"><ele>65.2</ele><time>2026-04-26T14:13:52Z</time></trkpt><trkpt lat="45.39770285492508" lon="10.708037722624255"><ele>65.80000000000001</ele><time>2026-04-26T14:13:53Z</time></trkpt><trkpt lat="45.39763522327356" lon="10.708050427624139"><ele>66.4</ele><time>2026-04-26T14:13:54Z</time></trkpt><trkpt lat="45.39752420942865" lon="10.708117900061747"><ele>67.0</ele><time>2026-04-26T14:13:56Z</time></trkpt><trkpt lat="45.397418339488475" lon="10.70815770094785"><ele>67.0</ele><time>2026-04-26T14:13:58Z</time></trkpt><trkpt lat="45.397301540852695" lon="10.708193952984562"><ele>67.0</ele><time>2026-04-26T14:14:00Z</time></trkpt><trkpt lat="45.39733918999372" lon="10.708363878293914"><ele>67.0</ele><time>2026-04-26T14:14:01Z</time></trkpt><trkpt lat="45.39730933521448" lon="10.708466950889445"><ele>67.0</ele><time>2026-04-26T14:14:04Z</time></trkpt><trkpt lat="45.39743783951612" lon="10.70855534833831"><ele>66.83333333333333</ele><time>2026-04-26T14:14:06Z</time></trkpt><trkpt lat="45.39751899899389" lon="10.708583583535939"><ele>66.66666666666666</ele><time>2026-04-26T14:14:07Z</time></trkpt><trkpt lat="45.39757398359289" lon="10.708637113829246"><ele>66.5</ele><time>2026-04-26T14:14:08Z</time></trkpt><trkpt lat="45.39762782500492" lon="10.708697672110702"><ele>66.33333333333333</ele><time>2026-04-26T14:14:09Z</time></trkpt><trkpt lat="45.3976795395505" lon="10.708778850736778"><ele>66.16666666666667</ele><time>2026-04-26T14:14:10Z</time></trkpt><trkpt lat="45.39771966330089" lon="10.708871349032183"><ele>66.0</ele><time>2026-04-26T14:14:11Z</time></trkpt><trkpt lat="45.397755563220734" lon="10.708969562965184"><ele>66.0</ele><time>2026-04-26T14:14:12Z</time></trkpt><trkpt lat="45.397784771465034" lon="10.709078521361773"><ele>66.0</ele><time>2026-04-26T14:14:13Z</time></trkpt><trkpt lat="45.39781390499185" lon="10.709192979498075"><ele>66.0</ele><time>2026-04-26T14:14:14Z</time></trkpt><trkpt lat="45.39785090505653" lon="10.709311175743862"><ele>66.0</ele><time>2026-04-26T14:14:15Z</time></trkpt><trkpt lat="45.39790049102229" lon="10.709435529391943"><ele>66.0</ele><time>2026-04-26T14:14:16Z</time></trkpt><trkpt lat="45.397965301106474" lon="10.709554910713278"><ele>66.8</ele><time>2026-04-26T14:14:17Z</time></trkpt><trkpt lat="45.398035658176205" lon="10.709642889353887"><ele>67.6</ele><time>2026-04-26T14:14:18.001Z</time></trkpt><trkpt lat="45.39811372393916" lon="10.709712002602894"><ele>68.4</ele><time>2026-04-26T14:14:19.001Z</time></trkpt><trkpt lat="45.39819949823386" lon="10.709756845483435"><ele>69.2</ele><time>2026-04-26T14:14:20.001Z</time></trkpt><trkpt lat="45.39828256604779" lon="10.709771078332004"><ele>70.0</ele><time>2026-04-26T14:14:21.001Z</time></trkpt><trkpt lat="45.39837629049935" lon="10.709766927001304"><ele>70.0</ele><time>2026-04-26T14:14:22.001Z</time></trkpt><trkpt lat="45.39847464230103" lon="10.70971865139283"><ele>70.0</ele><time>2026-04-26T14:14:23.001Z</time></trkpt><trkpt lat="45.39857423880674" lon="10.709667862423414"><ele>70.0</ele><time>2026-04-26T14:14:24.001Z</time></trkpt><trkpt lat="45.3986792548199" lon="10.709617999293714"><ele>70.0</ele><time>2026-04-26T14:14:25.001Z</time></trkpt><trkpt lat="45.3987845192472" lon="10.709580436910388"><ele>70.0</ele><time>2026-04-26T14:14:26.001Z</time></trkpt><trkpt lat="45.39889241492787" lon="10.709544042418994"><ele>69.5</ele><time>2026-04-26T14:14:27.001Z</time></trkpt><trkpt lat="45.399004910907884" lon="10.709501389531974"><ele>69.0</ele><time>2026-04-26T14:14:28.001Z</time></trkpt><trkpt lat="45.399118898389034" lon="10.709454786080048"><ele>68.5</ele><time>2026-04-26T14:14:29.001Z</time></trkpt><trkpt lat="45.39923516285376" lon="10.709411309861604"><ele>68.0</ele><time>2026-04-26T14:14:30.001Z</time></trkpt><trkpt lat="45.399347184426546" lon="10.709366957202645"><ele>68.0</ele><time>2026-04-26T14:14:31.001Z</time></trkpt><trkpt lat="45.39945769005971" lon="10.70932141015599"><ele>68.0</ele><time>2026-04-26T14:14:32.001Z</time></trkpt><trkpt lat="45.399568645284816" lon="10.709266932102672"><ele>68.0</ele><time>2026-04-26T14:14:33.001Z</time></trkpt><trkpt lat="45.39968042334382" lon="10.709204382552057"><ele>68.0</ele><time>2026-04-26T14:14:34.001Z</time></trkpt><trkpt lat="45.39978712113456" lon="10.709138497831466"><ele>68.0</ele><time>2026-04-26T14:14:35.001Z</time></trkpt><trkpt lat="45.39989469057921" lon="10.709067472612773"><ele>68.0</ele><time>2026-04-26T14:14:36.001Z</time></trkpt><trkpt lat="45.399996013957505" lon="10.70899476696402"><ele>68.0</ele><time>2026-04-26T14:14:37.001Z</time></trkpt><trkpt lat="45.40010518890445" lon="10.708924994379045"><ele>68.0</ele><time>2026-04-26T14:14:38.001Z</time></trkpt><trkpt lat="45.40020375073328" lon="10.708850366725517"><ele>68.0</ele><time>2026-04-26T14:14:39.001Z</time></trkpt><trkpt lat="45.40030618916032" lon="10.708775184880976"><ele>68.0</ele><time>2026-04-26T14:14:40.001Z</time></trkpt><trkpt lat="45.40040183245799" lon="10.708698671153838"><ele>68.0</ele><time>2026-04-26T14:14:41.001Z</time></trkpt><trkpt lat="45.40050513373208" lon="10.70862161328223"><ele>68.0</ele><time>2026-04-26T14:14:42.001Z</time></trkpt><trkpt lat="45.400599477911115" lon="10.708557782223728"><ele>68.0</ele><time>2026-04-26T14:14:43.001Z</time></trkpt><trkpt lat="45.400687585688665" lon="10.708491039236026"><ele>68.16666666666667</ele><time>2026-04-26T14:14:44.001Z</time></trkpt><trkpt lat="45.400766299679674" lon="10.708431168311018"><ele>68.33333333333334</ele><time>2026-04-26T14:14:45.001Z</time></trkpt><trkpt lat="45.40084783291346" lon="10.708368979679868"><ele>68.5</ele><time>2026-04-26T14:14:46.001Z</time></trkpt><trkpt lat="45.40090820047095" lon="10.708327756272206"><ele>68.66666666666667</ele><time>2026-04-26T14:14:47.001Z</time></trkpt><trkpt lat="45.400984828554535" lon="10.708268955555196"><ele>68.83333333333333</ele><time>2026-04-26T14:14:49.001Z</time></trkpt><trkpt lat="45.40104952890726" lon="10.708209626444773"><ele>69.0</ele><time>2026-04-26T14:14:51.001Z</time></trkpt><trkpt lat="45.401165596365956" lon="10.708150707620948"><ele>69.0</ele><time>2026-04-26T14:14:53.001Z</time></trkpt><trkpt lat="45.40122937290634" lon="10.708106129276578"><ele>69.0</ele><time>2026-04-26T14:14:54.001Z</time></trkpt><trkpt lat="45.40129657501337" lon="10.708041205677779"><ele>69.0</ele><time>2026-04-26T14:14:55.001Z</time></trkpt><trkpt lat="45.401386753086946" lon="10.707988018313909"><ele>69.0</ele><time>2026-04-26T14:14:56.001Z</time></trkpt><trkpt lat="45.4014781105888" lon="10.707937309159373"><ele>69.0</ele><time>2026-04-26T14:14:57.001Z</time></trkpt><trkpt lat="45.4015640063995" lon="10.707900771576181"><ele>69.0</ele><time>2026-04-26T14:14:58.001Z</time></trkpt><trkpt lat="45.401658593496705" lon="10.707893849389496"><ele>69.0</ele><time>2026-04-26T14:14:59.001Z</time></trkpt><trkpt lat="45.401742379107944" lon="10.707914693967345"><ele>69.0</ele><time>2026-04-26T14:15:00.001Z</time></trkpt><trkpt lat="45.40182891005861" lon="10.707949616866017"><ele>69.0</ele><time>2026-04-26T14:15:01.001Z</time></trkpt><trkpt lat="45.401908034497495" lon="10.707987493702005"><ele>69.0</ele><time>2026-04-26T14:15:02.001Z</time></trkpt><trkpt lat="45.40199621273171" lon="10.708020253682493"><ele>69.0</ele><time>2026-04-26T14:15:03.001Z</time></trkpt><trkpt lat="45.402088232485696" lon="10.708047677582785"><ele>69.0</ele><time>2026-04-26T14:15:04.001Z</time></trkpt><trkpt lat="45.4021793398516" lon="10.708068637406502"><ele>69.16666666666667</ele><time>2026-04-26T14:15:05.002Z</time></trkpt><trkpt lat="45.40227570277649" lon="10.708086965848187"><ele>69.33333333333333</ele><time>2026-04-26T14:15:06.002Z</time></trkpt><trkpt lat="45.402359078779085" lon="10.70810107921711"><ele>69.5</ele><time>2026-04-26T14:15:07.002Z</time></trkpt><trkpt lat="45.40243437732326" lon="10.70810762366477"><ele>69.66666666666666</ele><time>2026-04-26T14:15:08.002Z</time></trkpt><trkpt lat="45.402498627776616" lon="10.708102521133119"><ele>69.83333333333333</ele><time>2026-04-26T14:15:09.002Z</time></trkpt><trkpt lat="45.40256727312696" lon="10.708089441004255"><ele>70.0</ele><time>2026-04-26T14:15:10.002Z</time></trkpt><trkpt lat="45.402683947738545" lon="10.708042885501543"><ele>70.0</ele><time>2026-04-26T14:15:12.002Z</time></trkpt><trkpt lat="45.40274755070703" lon="10.708014742588459"><ele>70.0</ele><time>2026-04-26T14:15:13.002Z</time></trkpt><trkpt lat="45.40285848984032" lon="10.707955188524357"><ele>70.0</ele><time>2026-04-26T14:15:15.002Z</time></trkpt><trkpt lat="45.402944636479795" lon="10.707910389140931"><ele>70.0</ele><time>2026-04-26T14:15:17.002Z</time></trkpt><trkpt lat="45.40294899644255" lon="10.707669117587796"><ele>70.0</ele><time>2026-04-26T14:15:25.002Z</time></trkpt><trkpt lat="45.40293018776819" lon="10.707582139966346"><ele>69.83333333333333</ele><time>2026-04-26T14:15:30.002Z</time></trkpt><trkpt lat="45.402896906031714" lon="10.707495788954116"><ele>69.66666666666666</ele><time>2026-04-26T14:15:33Z</time></trkpt><trkpt lat="45.402851686778426" lon="10.70738989865692"><ele>69.5</ele><time>2026-04-26T14:15:36Z</time></trkpt><trkpt lat="45.40283596752225" lon="10.707287088328027"><ele>69.33333333333333</ele><time>2026-04-26T14:15:40Z</time></trkpt><trkpt lat="45.40280690552918" lon="10.707200989612799"><ele>69.16666666666667</ele><time>2026-04-26T14:15:42Z</time></trkpt><trkpt lat="45.4028005797756" lon="10.707033195850665"><ele>69.0</ele><time>2026-04-26T14:15:44Z</time></trkpt><trkpt lat="45.402800057006594" lon="10.706941207033326"><ele>68.85714285714286</ele><time>2026-04-26T14:15:45Z</time></trkpt><trkpt lat="45.402810850447196" lon="10.706851030878253"><ele>68.71428571428572</ele><time>2026-04-26T14:15:46Z</time></trkpt><trkpt lat="45.40282270777069" lon="10.706758595175302"><ele>68.57142857142857</ele><time>2026-04-26T14:15:47Z</time></trkpt><trkpt lat="45.4028113349666" lon="10.706656687228538"><ele>68.42857142857143</ele><time>2026-04-26T14:15:48Z</time></trkpt><trkpt lat="45.402786972557195" lon="10.706559993493562"><ele>68.28571428571428</ele><time>2026-04-26T14:15:49Z</time></trkpt><trkpt lat="45.40277048580741" lon="10.706469727370393"><ele>68.14285714285714</ele><time>2026-04-26T14:15:50Z</time></trkpt><trkpt lat="45.4027438818377" lon="10.706322145389782"><ele>68.0</ele><time>2026-04-26T14:15:52Z</time></trkpt><trkpt lat="45.402730799075336" lon="10.706185442276785"><ele>68.0</ele><time>2026-04-26T14:15:54Z</time></trkpt><trkpt lat="45.40273282549139" lon="10.705993815555379"><ele>68.0</ele><time>2026-04-26T14:15:56Z</time></trkpt><trkpt lat="45.40273963008376" lon="10.705903867368663"><ele>68.0</ele><time>2026-04-26T14:15:57Z</time></trkpt><trkpt lat="45.402761778057105" lon="10.705773463934724"><ele>68.0</ele><time>2026-04-26T14:15:59Z</time></trkpt><trkpt lat="45.402780884611744" lon="10.705646707978566"><ele>68.0</ele><time>2026-04-26T14:16:01Z</time></trkpt><trkpt lat="45.40279770969032" lon="10.7055448019746"><ele>68.0</ele><time>2026-04-26T14:16:03Z</time></trkpt><trkpt lat="45.40282007797565" lon="10.705450047184172"><ele>68.0</ele><time>2026-04-26T14:16:05Z</time></trkpt><trkpt lat="45.40285737909558" lon="10.705340997534186"><ele>68.0</ele><time>2026-04-26T14:16:07Z</time></trkpt><trkpt lat="45.40288822698601" lon="10.70520905763986"><ele>68.0</ele><time>2026-04-26T14:16:10Z</time></trkpt><trkpt lat="45.40290140105852" lon="10.70512064990497"><ele>68.0</ele><time>2026-04-26T14:16:14.001Z</time></trkpt><trkpt lat="45.40287138722891" lon="10.705211415689325"><ele>68.0</ele><time>2026-04-26T14:16:26.001Z</time></trkpt><trkpt lat="45.4028429149366" lon="10.705344630952643"><ele>68.0</ele><time>2026-04-26T14:17:45Z</time></trkpt><trkpt lat="45.40281366104064" lon="10.705483879289746"><ele>68.0</ele><time>2026-04-26T14:17:47Z</time></trkpt><trkpt lat="45.402782256929854" lon="10.70564294077462"><ele>68.0</ele><time>2026-04-26T14:17:49Z</time></trkpt><trkpt lat="45.40276502979894" lon="10.705781568182706"><ele>68.0</ele><time>2026-04-26T14:17:51Z</time></trkpt><trkpt lat="45.4027473098307" lon="10.705918744685025"><ele>68.0</ele><time>2026-04-26T14:17:53Z</time></trkpt><trkpt lat="45.402738764184306" lon="10.706010942468437"><ele>68.0</ele><time>2026-04-26T14:17:54Z</time></trkpt><trkpt lat="45.40273612298226" lon="10.706149108158879"><ele>68.0</ele><time>2026-04-26T14:17:56Z</time></trkpt><trkpt lat="45.40274445598881" lon="10.70627353821913"><ele>68.0</ele><time>2026-04-26T14:17:58Z</time></trkpt><trkpt lat="45.40276649193642" lon="10.70639681888363"><ele>68.0</ele><time>2026-04-26T14:18:00Z</time></trkpt><trkpt lat="45.40278621640886" lon="10.70653015254552"><ele>68.0</ele><time>2026-04-26T14:18:02Z</time></trkpt><trkpt lat="45.402811508115285" lon="10.706673788815728"><ele>68.0</ele><time>2026-04-26T14:18:04.001Z</time></trkpt><trkpt lat="45.40283696207853" lon="10.706820769439624"><ele>68.0</ele><time>2026-04-26T14:18:06.001Z</time></trkpt><trkpt lat="45.40282420713861" lon="10.706932334663062"><ele>68.0</ele><time>2026-04-26T14:18:08.001Z</time></trkpt><trkpt lat="45.40281303250881" lon="10.707041650675318"><ele>68.0</ele><time>2026-04-26T14:18:10.001Z</time></trkpt><trkpt lat="45.40281322833195" lon="10.707147923929377"><ele>68.0</ele><time>2026-04-26T14:18:12.001Z</time></trkpt><trkpt lat="45.40282587711792" lon="10.70724363914623"><ele>68.0</ele><time>2026-04-26T14:18:14.001Z</time></trkpt><trkpt lat="45.40285428079065" lon="10.707339910082645"><ele>68.16666666666667</ele><time>2026-04-26T14:18:16.001Z</time></trkpt><trkpt lat="45.402877923121956" lon="10.707426411926898"><ele>68.33333333333334</ele><time>2026-04-26T14:18:18.001Z</time></trkpt><trkpt lat="45.402927244984845" lon="10.7075316188697"><ele>68.5</ele><time>2026-04-26T14:18:22.001Z</time></trkpt><trkpt lat="45.402956338425" lon="10.707643987706673"><ele>68.66666666666667</ele><time>2026-04-26T14:18:24.001Z</time></trkpt><trkpt lat="45.40297043068539" lon="10.707751313358203"><ele>68.83333333333333</ele><time>2026-04-26T14:18:25.001Z</time></trkpt><trkpt lat="45.40297749975756" lon="10.707848126176103"><ele>69.0</ele><time>2026-04-26T14:18:27.001Z</time></trkpt><trkpt lat="45.403044877548055" lon="10.707911023378873"><ele>69.16666666666667</ele><time>2026-04-26T14:18:31.001Z</time></trkpt><trkpt lat="45.403119437616525" lon="10.707893904166998"><ele>69.33333333333333</ele><time>2026-04-26T14:18:32.001Z</time></trkpt><trkpt lat="45.403212635480784" lon="10.707892433346185"><ele>69.5</ele><time>2026-04-26T14:18:33.001Z</time></trkpt><trkpt lat="45.40329416579978" lon="10.707920325097716"><ele>69.66666666666666</ele><time>2026-04-26T14:18:34.001Z</time></trkpt><trkpt lat="45.403375103450315" lon="10.707955470167573"><ele>69.83333333333333</ele><time>2026-04-26T14:18:35.001Z</time></trkpt><trkpt lat="45.40347330593661" lon="10.707996949070433"><ele>70.0</ele><time>2026-04-26T14:18:36.001Z</time></trkpt><trkpt lat="45.40357010181907" lon="10.708052606155729"><ele>70.0</ele><time>2026-04-26T14:18:37.001Z</time></trkpt><trkpt lat="45.40364254787441" lon="10.708127034837336"><ele>70.0</ele><time>2026-04-26T14:18:38.001Z</time></trkpt><trkpt lat="45.40371668515503" lon="10.708239579927962"><ele>70.0</ele><time>2026-04-26T14:18:39.001Z</time></trkpt><trkpt lat="45.40377698795225" lon="10.708362155288386"><ele>70.0</ele><time>2026-04-26T14:18:40.001Z</time></trkpt><trkpt lat="45.40382308146529" lon="10.708509495205476"><ele>70.0</ele><time>2026-04-26T14:18:41.001Z</time></trkpt><trkpt lat="45.403845971729446" lon="10.708648478146369"><ele>69.66666666666666</ele><time>2026-04-26T14:18:42.001Z</time></trkpt><trkpt lat="45.40386688017654" lon="10.708753579183325"><ele>69.33333333333333</ele><time>2026-04-26T14:18:43.001Z</time></trkpt><trkpt lat="45.403886251639804" lon="10.708844395146965"><ele>69.0</ele><time>2026-04-26T14:18:44.001Z</time></trkpt><trkpt lat="45.40390395690999" lon="10.708937255884914"><ele>68.66666666666667</ele><time>2026-04-26T14:18:45.001Z</time></trkpt><trkpt lat="45.40393631435864" lon="10.709090006106814"><ele>68.33333333333334</ele><time>2026-04-26T14:18:47.001Z</time></trkpt><trkpt lat="45.403973161173624" lon="10.709244058405215"><ele>68.0</ele><time>2026-04-26T14:18:49.001Z</time></trkpt><trkpt lat="45.404011249188926" lon="10.709384005692023"><ele>68.0</ele><time>2026-04-26T14:18:51.002Z</time></trkpt><trkpt lat="45.404046167003024" lon="10.709481198320322"><ele>68.0</ele><time>2026-04-26T14:18:53.002Z</time></trkpt><trkpt lat="45.40413178154896" lon="10.709488830827501"><ele>68.0</ele><time>2026-04-26T14:18:57.002Z</time></trkpt><trkpt lat="45.40419868133865" lon="10.709342786624191"><ele>68.0</ele><time>2026-04-26T14:18:59.002Z</time></trkpt><trkpt lat="45.40424224067561" lon="10.709238086905334"><ele>68.0</ele><time>2026-04-26T14:19:00.002Z</time></trkpt><trkpt lat="45.40428077328704" lon="10.70914437823309"><ele>68.0</ele><time>2026-04-26T14:19:01.002Z</time></trkpt><trkpt lat="45.40433635011886" lon="10.709027082936869"><ele>68.0</ele><time>2026-04-26T14:19:02.002Z</time></trkpt><trkpt lat="45.40441560684253" lon="10.708896952658737"><ele>68.0</ele><time>2026-04-26T14:19:03.002Z</time></trkpt><trkpt lat="45.40448376266252" lon="10.708727198849218"><ele>68.0</ele><time>2026-04-26T14:19:04.002Z</time></trkpt><trkpt lat="45.40455372254837" lon="10.708586598701462"><ele>68.0</ele><time>2026-04-26T14:19:05.002Z</time></trkpt><trkpt lat="45.40462836548951" lon="10.708428808691465"><ele>67.75</ele><time>2026-04-26T14:19:06.002Z</time></trkpt><trkpt lat="45.40470887522787" lon="10.708269456865208"><ele>67.5</ele><time>2026-04-26T14:19:07.002Z</time></trkpt><trkpt lat="45.40479441784258" lon="10.708093726878417"><ele>67.25</ele><time>2026-04-26T14:19:08.002Z</time></trkpt><trkpt lat="45.40488149726614" lon="10.707916612420929"><ele>67.0</ele><time>2026-04-26T14:19:09.002Z</time></trkpt><trkpt lat="45.40497097690681" lon="10.707726521382446"><ele>68.0</ele><time>2026-04-26T14:19:10.002Z</time></trkpt><trkpt lat="45.4050551351274" lon="10.707551892268173"><ele>69.0</ele><time>2026-04-26T14:19:11.002Z</time></trkpt><trkpt lat="45.40514640100818" lon="10.707370508404319"><ele>70.0</ele><time>2026-04-26T14:19:12.002Z</time></trkpt><trkpt lat="45.40523918875939" lon="10.707182671707663"><ele>70.0</ele><time>2026-04-26T14:19:13.002Z</time></trkpt><trkpt lat="45.40533254864892" lon="10.706988623246469"><ele>70.0</ele><time>2026-04-26T14:19:14.002Z</time></trkpt><trkpt lat="45.4054276283787" lon="10.7067916332799"><ele>70.0</ele><time>2026-04-26T14:19:15.002Z</time></trkpt><trkpt lat="45.405523462893065" lon="10.70659786791261"><ele>71.33333333333333</ele><time>2026-04-26T14:19:16.002Z</time></trkpt><trkpt lat="45.40562206399811" lon="10.706396936648089"><ele>72.66666666666667</ele><time>2026-04-26T14:19:17.002Z</time></trkpt><trkpt lat="45.40571186562607" lon="10.70620723586866"><ele>74.0</ele><time>2026-04-26T14:19:18.002Z</time></trkpt><trkpt lat="45.40580666284216" lon="10.70601432416896"><ele>74.0</ele><time>2026-04-26T14:19:19.002Z</time></trkpt><trkpt lat="45.40590660893561" lon="10.705806609289837"><ele>74.0</ele><time>2026-04-26T14:19:20.002Z</time></trkpt><trkpt lat="45.40600587284636" lon="10.705594604219554"><ele>74.0</ele><time>2026-04-26T14:19:21.002Z</time></trkpt><trkpt lat="45.4061045829472" lon="10.70538036792422"><ele>74.66666666666667</ele><time>2026-04-26T14:19:22.002Z</time></trkpt><trkpt lat="45.40620469930123" lon="10.705163454252427"><ele>75.33333333333333</ele><time>2026-04-26T14:19:23.002Z</time></trkpt><trkpt lat="45.40631291013897" lon="10.704943602462949"><ele>76.0</ele><time>2026-04-26T14:19:24.002Z</time></trkpt><trkpt lat="45.40640616946848" lon="10.704724369857919"><ele>79.33333333333333</ele><time>2026-04-26T14:19:25.002Z</time></trkpt><trkpt lat="45.40647912929346" lon="10.70449351470726"><ele>82.66666666666667</ele><time>2026-04-26T14:19:26.002Z</time></trkpt><trkpt lat="45.40653551141532" lon="10.704249702527575"><ele>86.0</ele><time>2026-04-26T14:19:27.002Z</time></trkpt><trkpt lat="45.40658374563242" lon="10.704005634672663"><ele>86.0</ele><time>2026-04-26T14:19:28.002Z</time></trkpt><trkpt lat="45.40663408482246" lon="10.703759579980035"><ele>86.0</ele><time>2026-04-26T14:19:29.002Z</time></trkpt><trkpt lat="45.40668365826541" lon="10.703522160236798"><ele>86.0</ele><time>2026-04-26T14:19:30.002Z</time></trkpt><trkpt lat="45.406749294127714" lon="10.70329284075335"><ele>86.0</ele><time>2026-04-26T14:19:31.002Z</time></trkpt><trkpt lat="45.406781534881446" lon="10.70304498331388"><ele>86.0</ele><time>2026-04-26T14:19:32.002Z</time></trkpt><trkpt lat="45.40682127617702" lon="10.702809737347925"><ele>86.0</ele><time>2026-04-26T14:19:33.002Z</time></trkpt><trkpt lat="45.40685226633766" lon="10.702568587106287"><ele>84.66666666666667</ele><time>2026-04-26T14:19:34.002Z</time></trkpt><trkpt lat="45.40688194729518" lon="10.702324226419746"><ele>83.33333333333333</ele><time>2026-04-26T14:19:35.003Z</time></trkpt><trkpt lat="45.40690779321519" lon="10.702086890766605"><ele>82.0</ele><time>2026-04-26T14:19:36.003Z</time></trkpt><trkpt lat="45.40694496114041" lon="10.701842967840104"><ele>82.0</ele><time>2026-04-26T14:19:37.003Z</time></trkpt><trkpt lat="45.40696845522275" lon="10.701605759094782"><ele>82.0</ele><time>2026-04-26T14:19:38.003Z</time></trkpt><trkpt lat="45.406991917650004" lon="10.701360865504599"><ele>82.0</ele><time>2026-04-26T14:19:39.003Z</time></trkpt><trkpt lat="45.40699786054986" lon="10.70111502832866"><ele>82.33333333333333</ele><time>2026-04-26T14:19:40.003Z</time></trkpt><trkpt lat="45.407017132484214" lon="10.700870228010658"><ele>82.66666666666667</ele><time>2026-04-26T14:19:41.003Z</time></trkpt><trkpt lat="45.40703814493712" lon="10.700638916159015"><ele>83.0</ele><time>2026-04-26T14:19:42.003Z</time></trkpt><trkpt lat="45.40706413134917" lon="10.70042890015897"><ele>82.0</ele><time>2026-04-26T14:19:43Z</time></trkpt><trkpt lat="45.407106108009934" lon="10.700220811011315"><ele>81.0</ele><time>2026-04-26T14:19:44Z</time></trkpt><trkpt lat="45.407165988796514" lon="10.700002862732909"><ele>80.0</ele><time>2026-04-26T14:19:45Z</time></trkpt><trkpt lat="45.40724559162779" lon="10.699771701542204"><ele>81.0</ele><time>2026-04-26T14:19:46Z</time></trkpt><trkpt lat="45.40736564419633" lon="10.699560815973314"><ele>82.0</ele><time>2026-04-26T14:19:47Z</time></trkpt><trkpt lat="45.40748988365443" lon="10.699324621271147"><ele>83.0</ele><time>2026-04-26T14:19:48Z</time></trkpt><trkpt lat="45.40761646295036" lon="10.69908599185917"><ele>83.0</ele><time>2026-04-26T14:19:49Z</time></trkpt><trkpt lat="45.40774359929364" lon="10.698816110486636"><ele>83.0</ele><time>2026-04-26T14:19:50Z</time></trkpt><trkpt lat="45.40787933831038" lon="10.698567646019832"><ele>83.0</ele><time>2026-04-26T14:19:51Z</time></trkpt><trkpt lat="45.40801312416855" lon="10.69831404662811"><ele>83.0</ele><time>2026-04-26T14:19:52Z</time></trkpt><trkpt lat="45.40814219371885" lon="10.698065970164533"><ele>83.0</ele><time>2026-04-26T14:19:53Z</time></trkpt><trkpt lat="45.40826663835946" lon="10.697826826395165"><ele>83.0</ele><time>2026-04-26T14:19:54Z</time></trkpt><trkpt lat="45.40838491515313" lon="10.697590902357094"><ele>83.0</ele><time>2026-04-26T14:19:55Z</time></trkpt><trkpt lat="45.40849450887268" lon="10.697352721151928"><ele>83.0</ele><time>2026-04-26T14:19:56Z</time></trkpt><trkpt lat="45.408592304545465" lon="10.697112172892968"><ele>83.0</ele><time>2026-04-26T14:19:57Z</time></trkpt><trkpt lat="45.408678439581365" lon="10.696867514883635"><ele>83.0</ele><time>2026-04-26T14:19:58Z</time></trkpt><trkpt lat="45.40875738327812" lon="10.696624661698994"><ele>83.0</ele><time>2026-04-26T14:19:59Z</time></trkpt><trkpt lat="45.40883948595519" lon="10.696379445384506"><ele>83.0</ele><time>2026-04-26T14:20:00Z</time></trkpt><trkpt lat="45.40891313907242" lon="10.696136415748626"><ele>83.33333333333334</ele><time>2026-04-26T14:20:01Z</time></trkpt><trkpt lat="45.40898141229683" lon="10.695909406085462"><ele>83.66666666666667</ele><time>2026-04-26T14:20:02.001Z</time></trkpt><trkpt lat="45.40900149722144" lon="10.69564626409949"><ele>84.0</ele><time>2026-04-26T14:20:03.001Z</time></trkpt><trkpt lat="45.4090370183146" lon="10.695394404667116"><ele>84.33333333333333</ele><time>2026-04-26T14:20:04.001Z</time></trkpt><trkpt lat="45.40906524949251" lon="10.695130569221991"><ele>84.66666666666666</ele><time>2026-04-26T14:20:05.001Z</time></trkpt><trkpt lat="45.409093068500425" lon="10.694877777817215"><ele>85.0</ele><time>2026-04-26T14:20:06.001Z</time></trkpt><trkpt lat="45.40912465890814" lon="10.694613364797421"><ele>84.66666666666666</ele><time>2026-04-26T14:20:07.001Z</time></trkpt><trkpt lat="45.4091542532354" lon="10.694352079236115"><ele>84.33333333333333</ele><time>2026-04-26T14:20:08.001Z</time></trkpt><trkpt lat="45.409185161324025" lon="10.694097164147157"><ele>84.0</ele><time>2026-04-26T14:20:09.001Z</time></trkpt><trkpt lat="45.40921925001264" lon="10.693840379681983"><ele>84.0</ele><time>2026-04-26T14:20:10.001Z</time></trkpt><trkpt lat="45.40924997206351" lon="10.693612000500954"><ele>84.0</ele><time>2026-04-26T14:20:11.001Z</time></trkpt><trkpt lat="45.40926783185923" lon="10.693388519705211"><ele>84.0</ele><time>2026-04-26T14:20:12.001Z</time></trkpt><trkpt lat="45.409260051023786" lon="10.693187863722393"><ele>84.0</ele><time>2026-04-26T14:20:13.001Z</time></trkpt><trkpt lat="45.40921664623563" lon="10.69298051101384"><ele>84.0</ele><time>2026-04-26T14:20:14.001Z</time></trkpt><trkpt lat="45.40913845290647" lon="10.692792289908889"><ele>84.0</ele><time>2026-04-26T14:20:15.001Z</time></trkpt><trkpt lat="45.409029219841855" lon="10.69263025744169"><ele>84.0</ele><time>2026-04-26T14:20:16.001Z</time></trkpt><trkpt lat="45.40889169497741" lon="10.692497448872361"><ele>84.0</ele><time>2026-04-26T14:20:17.001Z</time></trkpt><trkpt lat="45.40873359307339" lon="10.692396624184884"><ele>84.0</ele><time>2026-04-26T14:20:18.001Z</time></trkpt><trkpt lat="45.40855854162814" lon="10.692317383039498"><ele>83.33333333333333</ele><time>2026-04-26T14:20:19.001Z</time></trkpt><trkpt lat="45.408379142860376" lon="10.692237086788028"><ele>82.66666666666666</ele><time>2026-04-26T14:20:20.001Z</time></trkpt><trkpt lat="45.40820346388481" lon="10.692147986834176"><ele>82.0</ele><time>2026-04-26T14:20:21.001Z</time></trkpt><trkpt lat="45.40803135220171" lon="10.692057734526962"><ele>81.0</ele><time>2026-04-26T14:20:22.001Z</time></trkpt><trkpt lat="45.40787389076126" lon="10.69197698027627"><ele>80.0</ele><time>2026-04-26T14:20:23.001Z</time></trkpt><trkpt lat="45.407723293973326" lon="10.691897856727868"><ele>79.0</ele><time>2026-04-26T14:20:24.001Z</time></trkpt><trkpt lat="45.40758096804439" lon="10.691822264640004"><ele>78.75</ele><time>2026-04-26T14:20:25.001Z</time></trkpt><trkpt lat="45.407451224087104" lon="10.691754392609463"><ele>78.5</ele><time>2026-04-26T14:20:26.001Z</time></trkpt><trkpt lat="45.40733059391501" lon="10.691693613565818"><ele>78.25</ele><time>2026-04-26T14:20:27.001Z</time></trkpt><trkpt lat="45.40721308725153" lon="10.691635308273149"><ele>78.0</ele><time>2026-04-26T14:20:28.001Z</time></trkpt><trkpt lat="45.40709351257484" lon="10.691570151706875"><ele>78.4</ele><time>2026-04-26T14:20:29.001Z</time></trkpt><trkpt lat="45.406986231166464" lon="10.69150801162848"><ele>78.8</ele><time>2026-04-26T14:20:30.001Z</time></trkpt><trkpt lat="45.406890626880134" lon="10.691444871143602"><ele>79.2</ele><time>2026-04-26T14:20:31.001Z</time></trkpt><trkpt lat="45.406808735344704" lon="10.691380697427734"><ele>79.6</ele><time>2026-04-26T14:20:32.001Z</time></trkpt><trkpt lat="45.40672602216704" lon="10.691338595925396"><ele>80.0</ele><time>2026-04-26T14:20:33.001Z</time></trkpt><trkpt lat="45.40666416332496" lon="10.691316013295792"><ele>80.0</ele><time>2026-04-26T14:20:34.001Z</time></trkpt><trkpt lat="45.406580390741986" lon="10.691285092764343"><ele>80.0</ele><time>2026-04-26T14:20:36.001Z</time></trkpt><trkpt lat="45.40658671071059" lon="10.69106759985769"><ele>80.0</ele><time>2026-04-26T14:20:37.001Z</time></trkpt><trkpt lat="45.406605030848375" lon="10.690948411417311"><ele>80.0</ele><time>2026-04-26T14:20:38.001Z</time></trkpt><trkpt lat="45.40662387457032" lon="10.69079252437987"><ele>80.0</ele><time>2026-04-26T14:20:39.001Z</time></trkpt><trkpt lat="45.4066394702906" lon="10.690604057211846"><ele>81.0</ele><time>2026-04-26T14:20:40.001Z</time></trkpt><trkpt lat="45.406666564644844" lon="10.690425695437938"><ele>82.0</ele><time>2026-04-26T14:20:41.001Z</time></trkpt><trkpt lat="45.40669169281222" lon="10.690243245329144"><ele>83.0</ele><time>2026-04-26T14:20:42.001Z</time></trkpt><trkpt lat="45.40671449147001" lon="10.690043715658948"><ele>84.0</ele><time>2026-04-26T14:20:43.001Z</time></trkpt><trkpt lat="45.40673685577665" lon="10.68982635666194"><ele>85.33333333333333</ele><time>2026-04-26T14:20:44.001Z</time></trkpt><trkpt lat="45.40676225377141" lon="10.689595207276733"><ele>86.66666666666666</ele><time>2026-04-26T14:20:45.001Z</time></trkpt><trkpt lat="45.406785905008455" lon="10.68938289597274"><ele>88.0</ele><time>2026-04-26T14:20:46.001Z</time></trkpt><trkpt lat="45.40681361828527" lon="10.689164297618406"><ele>88.0</ele><time>2026-04-26T14:20:47.001Z</time></trkpt><trkpt lat="45.406847374984835" lon="10.688936338387878"><ele>88.0</ele><time>2026-04-26T14:20:48.001Z</time></trkpt><trkpt lat="45.4068821099769" lon="10.688699152365052"><ele>88.0</ele><time>2026-04-26T14:20:49.001Z</time></trkpt><trkpt lat="45.4069319858088" lon="10.688466666008173"><ele>88.0</ele><time>2026-04-26T14:20:50.001Z</time></trkpt><trkpt lat="45.40701581019732" lon="10.688231687125578"><ele>88.0</ele><time>2026-04-26T14:20:51.002Z</time></trkpt><trkpt lat="45.407115369293905" lon="10.688030950155671"><ele>88.0</ele><time>2026-04-26T14:20:52.002Z</time></trkpt><trkpt lat="45.40723758537416" lon="10.687844439733425"><ele>90.33333333333333</ele><time>2026-04-26T14:20:53.002Z</time></trkpt><trkpt lat="45.40736926949441" lon="10.687685833306059"><ele>92.66666666666667</ele><time>2026-04-26T14:20:54.002Z</time></trkpt><trkpt lat="45.40751662530476" lon="10.68754969598599"><ele>95.0</ele><time>2026-04-26T14:20:55.002Z</time></trkpt><trkpt lat="45.4076615117136" lon="10.687455438515428"><ele>95.0</ele><time>2026-04-26T14:20:56.002Z</time></trkpt><trkpt lat="45.40780048521365" lon="10.6873874933017"><ele>95.0</ele><time>2026-04-26T14:20:57.002Z</time></trkpt><trkpt lat="45.407932133756745" lon="10.687338351411489"><ele>95.0</ele><time>2026-04-26T14:20:58.002Z</time></trkpt><trkpt lat="45.408071789279404" lon="10.687288889081161"><ele>95.0</ele><time>2026-04-26T14:20:59.002Z</time></trkpt><trkpt lat="45.40820256666048" lon="10.687241013225512"><ele>95.0</ele><time>2026-04-26T14:21:00.002Z</time></trkpt><trkpt lat="45.40832871322281" lon="10.687187191212276"><ele>95.0</ele><time>2026-04-26T14:21:01.002Z</time></trkpt><trkpt lat="45.40845341294355" lon="10.687140494066906"><ele>95.0</ele><time>2026-04-26T14:21:02.002Z</time></trkpt><trkpt lat="45.408568407796096" lon="10.68709154633953"><ele>95.0</ele><time>2026-04-26T14:21:03.002Z</time></trkpt><trkpt lat="45.40867419994872" lon="10.68705140821599"><ele>95.0</ele><time>2026-04-26T14:21:04.002Z</time></trkpt><trkpt lat="45.4087693767472" lon="10.687016749257669"><ele>95.0</ele><time>2026-04-26T14:21:05.002Z</time></trkpt><trkpt lat="45.4088610852905" lon="10.686984436720294"><ele>95.0</ele><time>2026-04-26T14:21:06.002Z</time></trkpt><trkpt lat="45.40894382236942" lon="10.686953351617678"><ele>95.0</ele><time>2026-04-26T14:21:07.002Z</time></trkpt><trkpt lat="45.40901295509734" lon="10.686926959016112"><ele>95.0</ele><time>2026-04-26T14:21:08.002Z</time></trkpt><trkpt lat="45.40908007758953" lon="10.686896869639888"><ele>95.0</ele><time>2026-04-26T14:21:09.002Z</time></trkpt><trkpt lat="45.40914025722509" lon="10.686867040481955"><ele>95.0</ele><time>2026-04-26T14:21:10.002Z</time></trkpt><trkpt lat="45.40923190782114" lon="10.686822133067412"><ele>95.0</ele><time>2026-04-26T14:21:12.002Z</time></trkpt><trkpt lat="45.40930578200033" lon="10.68677991304167"><ele>95.0</ele><time>2026-04-26T14:21:16.002Z</time></trkpt><trkpt lat="45.409368024956954" lon="10.686752516473152"><ele>95.0</ele><time>2026-04-26T14:21:19.002Z</time></trkpt><trkpt lat="45.409350763586005" lon="10.686621142754603"><ele>95.0</ele><time>2026-04-26T14:21:20.002Z</time></trkpt><trkpt lat="45.409321433989426" lon="10.686536891483422"><ele>95.0</ele><time>2026-04-26T14:21:21.002Z</time></trkpt><trkpt lat="45.4093012040065" lon="10.686398287003648"><ele>95.0</ele><time>2026-04-26T14:21:23.002Z</time></trkpt><trkpt lat="45.40925536216491" lon="10.686228357257269"><ele>95.0</ele><time>2026-04-26T14:21:25.002Z</time></trkpt><trkpt lat="45.40921762012363" lon="10.686125963337192"><ele>95.0</ele><time>2026-04-26T14:21:26.002Z</time></trkpt><trkpt lat="45.40917091141075" lon="10.6860347762668"><ele>95.0</ele><time>2026-04-26T14:21:27.002Z</time></trkpt><trkpt lat="45.4091101874403" lon="10.685942219215518"><ele>95.0</ele><time>2026-04-26T14:21:28.002Z</time></trkpt><trkpt lat="45.40905282479664" lon="10.685851311529909"><ele>95.0</ele><time>2026-04-26T14:21:29.002Z</time></trkpt><trkpt lat="45.40899496615387" lon="10.685754173283698"><ele>95.0</ele><time>2026-04-26T14:21:30.002Z</time></trkpt><trkpt lat="45.40893038087784" lon="10.68565954585667"><ele>95.0</ele><time>2026-04-26T14:21:31.002Z</time></trkpt><trkpt lat="45.40885552969219" lon="10.685586495430934"><ele>95.0</ele><time>2026-04-26T14:21:32.002Z</time></trkpt><trkpt lat="45.408800164528124" lon="10.685475788963442"><ele>95.0</ele><time>2026-04-26T14:21:33.002Z</time></trkpt><trkpt lat="45.40874213816222" lon="10.685391922160447"><ele>94.83333333333334</ele><time>2026-04-26T14:21:34.002Z</time></trkpt><trkpt lat="45.40867562732563" lon="10.685291572354881"><ele>94.66666666666667</ele><time>2026-04-26T14:21:35.002Z</time></trkpt><trkpt lat="45.40861319223357" lon="10.68519986072552"><ele>94.5</ele><time>2026-04-26T14:21:36.002Z</time></trkpt><trkpt lat="45.408546779770184" lon="10.685108247142855"><ele>94.33333333333333</ele><time>2026-04-26T14:21:37.002Z</time></trkpt><trkpt lat="45.40848433430434" lon="10.68503749992034"><ele>94.16666666666666</ele><time>2026-04-26T14:21:38.003Z</time></trkpt><trkpt lat="45.408423422225226" lon="10.684970820198425"><ele>94.0</ele><time>2026-04-26T14:21:39.003Z</time></trkpt><trkpt lat="45.408360118377644" lon="10.684928374588873"><ele>93.75</ele><time>2026-04-26T14:21:40.003Z</time></trkpt><trkpt lat="45.40827633348345" lon="10.684833703391119"><ele>93.5</ele><time>2026-04-26T14:21:42.003Z</time></trkpt><trkpt lat="45.4082440989911" lon="10.6847554603277"><ele>93.25</ele><time>2026-04-26T14:21:44.003Z</time></trkpt><trkpt lat="45.40816378568824" lon="10.684716681045744"><ele>93.0</ele><time>2026-04-26T14:21:47.003Z</time></trkpt><trkpt lat="45.40793380825267" lon="10.68489962747967"><ele>93.0</ele><time>2026-04-26T14:21:49.001Z</time></trkpt><trkpt lat="45.4078332913594" lon="10.68492522786433"><ele>93.0</ele><time>2026-04-26T14:21:51.001Z</time></trkpt><trkpt lat="45.40774036082793" lon="10.684961234937205"><ele>93.0</ele><time>2026-04-26T14:21:53.001Z</time></trkpt><trkpt lat="45.407664619659855" lon="10.684975757374872"><ele>93.0</ele><time>2026-04-26T14:21:55.001Z</time></trkpt><trkpt lat="45.407594515552894" lon="10.684983925475928"><ele>93.0</ele><time>2026-04-26T14:21:57.001Z</time></trkpt><trkpt lat="45.40753175094552" lon="10.684998814105798"><ele>93.0</ele><time>2026-04-26T14:21:59.001Z</time></trkpt><trkpt lat="45.4074518641876" lon="10.68500567179007"><ele>93.0</ele><time>2026-04-26T14:22:01.001Z</time></trkpt><trkpt lat="45.40736792017037" lon="10.684992226277592"><ele>93.0</ele><time>2026-04-26T14:22:03.001Z</time></trkpt><trkpt lat="45.407275178660676" lon="10.684988719251352"><ele>93.0</ele><time>2026-04-26T14:22:05.001Z</time></trkpt><trkpt lat="45.40718214431604" lon="10.684971153641964"><ele>93.0</ele><time>2026-04-26T14:22:07.001Z</time></trkpt><trkpt lat="45.40711548693882" lon="10.684919438918604"><ele>93.0</ele><time>2026-04-26T14:22:09.001Z</time></trkpt><trkpt lat="45.407030757669645" lon="10.684848960476103"><ele>93.0</ele><time>2026-04-26T14:22:11.001Z</time></trkpt><trkpt lat="45.40695635374911" lon="10.684781298253995"><ele>91.83333333333333</ele><time>2026-04-26T14:22:13.001Z</time></trkpt><trkpt lat="45.40687073524272" lon="10.684711888564406"><ele>90.66666666666667</ele><time>2026-04-26T14:22:15.001Z</time></trkpt><trkpt lat="45.4068103474627" lon="10.684650853025323"><ele>89.5</ele><time>2026-04-26T14:22:17.001Z</time></trkpt><trkpt lat="45.4067393359908" lon="10.68458815894733"><ele>88.33333333333334</ele><time>2026-04-26T14:22:20.001Z</time></trkpt><trkpt lat="45.40667291208634" lon="10.684537605806863"><ele>87.16666666666667</ele><time>2026-04-26T14:22:23.001Z</time></trkpt><trkpt lat="45.40660924445694" lon="10.68453267826205"><ele>86.0</ele><time>2026-04-26T14:22:39.001Z</time></trkpt><trkpt lat="45.40653187108928" lon="10.684456680030003"><ele>86.0</ele><time>2026-04-26T14:22:43.001Z</time></trkpt><trkpt lat="45.40646285441404" lon="10.684436899579874"><ele>86.0</ele><time>2026-04-26T14:22:45.001Z</time></trkpt><trkpt lat="45.40639420656765" lon="10.68447723080408"><ele>86.0</ele><time>2026-04-26T14:22:46.001Z</time></trkpt><trkpt lat="45.40629609360837" lon="10.68452642608898"><ele>86.0</ele><time>2026-04-26T14:22:47.001Z</time></trkpt><trkpt lat="45.40621284312898" lon="10.684559468309889"><ele>86.0</ele><time>2026-04-26T14:22:48.001Z</time></trkpt><trkpt lat="45.406149749053235" lon="10.684576688807134"><ele>86.0</ele><time>2026-04-26T14:22:49.001Z</time></trkpt><trkpt lat="45.40603593276377" lon="10.684624048095408"><ele>86.28571428571429</ele><time>2026-04-26T14:22:51.001Z</time></trkpt><trkpt lat="45.405967275930024" lon="10.684660833597567"><ele>86.57142857142857</ele><time>2026-04-26T14:22:52.002Z</time></trkpt><trkpt lat="45.40588699602413" lon="10.6847014921207"><ele>86.85714285714286</ele><time>2026-04-26T14:22:53.002Z</time></trkpt><trkpt lat="45.40582593590414" lon="10.684735447886936"><ele>87.14285714285714</ele><time>2026-04-26T14:22:54.002Z</time></trkpt><trkpt lat="45.4057542440818" lon="10.684775034242213"><ele>87.42857142857143</ele><time>2026-04-26T14:22:55.002Z</time></trkpt><trkpt lat="45.405696153002616" lon="10.684810506322565"><ele>87.71428571428572</ele><time>2026-04-26T14:22:56.002Z</time></trkpt><trkpt lat="45.40562233729978" lon="10.684856352222775"><ele>88.0</ele><time>2026-04-26T14:22:57.002Z</time></trkpt><trkpt lat="45.405510640083406" lon="10.684929084724454"><ele>88.60000000000001</ele><time>2026-04-26T14:22:59.002Z</time></trkpt><trkpt lat="45.40544882852638" lon="10.684965869155377"><ele>89.2</ele><time>2026-04-26T14:23:00.002Z</time></trkpt><trkpt lat="45.405342237857106" lon="10.685050241540312"><ele>89.8</ele><time>2026-04-26T14:23:02.002Z</time></trkpt><trkpt lat="45.4052443649956" lon="10.68514309662322"><ele>90.4</ele><time>2026-04-26T14:23:04.002Z</time></trkpt><trkpt lat="45.405160432483775" lon="10.685271545541033"><ele>91.0</ele><time>2026-04-26T14:23:06.002Z</time></trkpt><trkpt lat="45.40512984867275" lon="10.685351954064933"><ele>91.8</ele><time>2026-04-26T14:23:07.002Z</time></trkpt><trkpt lat="45.405097438111184" lon="10.68544595817264"><ele>92.6</ele><time>2026-04-26T14:23:08.002Z</time></trkpt><trkpt lat="45.40506459001583" lon="10.685523064799174"><ele>93.4</ele><time>2026-04-26T14:23:09.002Z</time></trkpt><trkpt lat="45.40496863257412" lon="10.685601784676141"><ele>94.2</ele><time>2026-04-26T14:23:11.002Z</time></trkpt><trkpt lat="45.404827086525245" lon="10.685506016343643"><ele>95.0</ele><time>2026-04-26T14:23:17.002Z</time></trkpt><trkpt lat="45.404752096816814" lon="10.685355560189118"><ele>95.0</ele><time>2026-04-26T14:23:19.002Z</time></trkpt><trkpt lat="45.40471308993435" lon="10.6852836190124"><ele>95.0</ele><time>2026-04-26T14:23:20.002Z</time></trkpt><trkpt lat="45.404676455858585" lon="10.685203700410499"><ele>95.0</ele><time>2026-04-26T14:23:21.002Z</time></trkpt><trkpt lat="45.40461431058024" lon="10.685045850889269"><ele>95.0</ele><time>2026-04-26T14:23:23.002Z</time></trkpt><trkpt lat="45.40457399645806" lon="10.68494071212752"><ele>95.0</ele><time>2026-04-26T14:23:24.002Z</time></trkpt><trkpt lat="45.404539766837814" lon="10.684844843574265"><ele>95.0</ele><time>2026-04-26T14:23:25.002Z</time></trkpt><trkpt lat="45.404492925047016" lon="10.684752595947124"><ele>94.5</ele><time>2026-04-26T14:23:26.002Z</time></trkpt><trkpt lat="45.40446791790568" lon="10.684644938813967"><ele>94.0</ele><time>2026-04-26T14:23:27.002Z</time></trkpt><trkpt lat="45.40442730969233" lon="10.68453195518103"><ele>93.5</ele><time>2026-04-26T14:23:28.002Z</time></trkpt><trkpt lat="45.404389890210666" lon="10.68442784336302"><ele>93.0</ele><time>2026-04-26T14:23:29.002Z</time></trkpt><trkpt lat="45.40434946492309" lon="10.684314636308551"><ele>92.5</ele><time>2026-04-26T14:23:30.002Z</time></trkpt><trkpt lat="45.404310463733445" lon="10.684204927488667"><ele>92.0</ele><time>2026-04-26T14:23:31.002Z</time></trkpt><trkpt lat="45.40427318262609" lon="10.684100057138494"><ele>91.66666666666667</ele><time>2026-04-26T14:23:32.002Z</time></trkpt><trkpt lat="45.40423637690605" lon="10.683996523974908"><ele>91.33333333333334</ele><time>2026-04-26T14:23:33.002Z</time></trkpt><trkpt lat="45.404191028935585" lon="10.683906342084882"><ele>91.0</ele><time>2026-04-26T14:23:34.002Z</time></trkpt><trkpt lat="45.40415987429193" lon="10.683775049141989"><ele>90.66666666666667</ele><time>2026-04-26T14:23:35.002Z</time></trkpt><trkpt lat="45.40412358255067" lon="10.683669393339864"><ele>90.33333333333333</ele><time>2026-04-26T14:23:36.002Z</time></trkpt><trkpt lat="45.40409089536086" lon="10.683574231424354"><ele>90.0</ele><time>2026-04-26T14:23:37.002Z</time></trkpt><trkpt lat="45.40405758533693" lon="10.683478276223253"><ele>89.85714285714285</ele><time>2026-04-26T14:23:38.002Z</time></trkpt><trkpt lat="45.404019492983984" lon="10.683402545058707"><ele>89.71428571428572</ele><time>2026-04-26T14:23:39.002Z</time></trkpt><trkpt lat="45.40398420421936" lon="10.683308106912735"><ele>89.57142857142857</ele><time>2026-04-26T14:23:40.002Z</time></trkpt><trkpt lat="45.4039427497138" lon="10.68321666104155"><ele>89.42857142857142</ele><time>2026-04-26T14:23:41.002Z</time></trkpt><trkpt lat="45.40390657655913" lon="10.683121375882044"><ele>89.28571428571428</ele><time>2026-04-26T14:23:42.003Z</time></trkpt><trkpt lat="45.403889067107194" lon="10.68301957564824"><ele>89.14285714285714</ele><time>2026-04-26T14:23:43.003Z</time></trkpt><trkpt lat="45.4038484721847" lon="10.682939740020597"><ele>89.0</ele><time>2026-04-26T14:23:44.003Z</time></trkpt><trkpt lat="45.40383641441929" lon="10.682837147004898"><ele>90.28571428571428</ele><time>2026-04-26T14:23:45.003Z</time></trkpt><trkpt lat="45.403816868837225" lon="10.682749644332187"><ele>91.57142857142857</ele><time>2026-04-26T14:23:46.003Z</time></trkpt><trkpt lat="45.40378316135899" lon="10.682671595908493"><ele>92.85714285714286</ele><time>2026-04-26T14:23:47.003Z</time></trkpt><trkpt lat="45.40376479675925" lon="10.68257794143428"><ele>94.14285714285714</ele><time>2026-04-26T14:23:48.003Z</time></trkpt><trkpt lat="45.403755639978215" lon="10.68248901515179"><ele>95.42857142857143</ele><time>2026-04-26T14:23:49.003Z</time></trkpt><trkpt lat="45.4037387038768" lon="10.682399753372382"><ele>96.71428571428571</ele><time>2026-04-26T14:23:50.003Z</time></trkpt><trkpt lat="45.40370888584337" lon="10.682252337899365"><ele>98.0</ele><time>2026-04-26T14:23:52.003Z</time></trkpt><trkpt lat="45.40367318037099" lon="10.682114135139807"><ele>97.99999999999999</ele><time>2026-04-26T14:23:54.003Z</time></trkpt><trkpt lat="45.403613570331" lon="10.681971225046679"><ele>98.0</ele><time>2026-04-26T14:23:56.001Z</time></trkpt><trkpt lat="45.40357614012964" lon="10.68188712045318"><ele>98.0</ele><time>2026-04-26T14:23:57.001Z</time></trkpt><trkpt lat="45.40355746244427" lon="10.681784177961909"><ele>98.0</ele><time>2026-04-26T14:23:58.001Z</time></trkpt><trkpt lat="45.403533432387455" lon="10.681683949542"><ele>97.99999999999999</ele><time>2026-04-26T14:23:59.001Z</time></trkpt><trkpt lat="45.403498461988065" lon="10.681579565466095"><ele>98.0</ele><time>2026-04-26T14:24:00.001Z</time></trkpt><trkpt lat="45.40347429004919" lon="10.681487972048386"><ele>97.80000000000001</ele><time>2026-04-26T14:24:01.001Z</time></trkpt><trkpt lat="45.40344908019199" lon="10.681390097770194"><ele>97.6</ele><time>2026-04-26T14:24:02.001Z</time></trkpt><trkpt lat="45.40340947774532" lon="10.681230246378615"><ele>97.4</ele><time>2026-04-26T14:24:04.001Z</time></trkpt><trkpt lat="45.403395986108144" lon="10.681131248842812"><ele>97.19999999999999</ele><time>2026-04-26T14:24:06.001Z</time></trkpt><trkpt lat="45.403260034254764" lon="10.681182937904346"><ele>97.0</ele><time>2026-04-26T14:24:08.001Z</time></trkpt><trkpt lat="45.403135573698954" lon="10.68128153175473"><ele>97.00000000000001</ele><time>2026-04-26T14:24:10.001Z</time></trkpt><trkpt lat="45.403070956364715" lon="10.681330868160016"><ele>97.0</ele><time>2026-04-26T14:24:11.001Z</time></trkpt><trkpt lat="45.403001841725015" lon="10.681375319463724"><ele>97.0</ele><time>2026-04-26T14:24:12.001Z</time></trkpt><trkpt lat="45.40292448595365" lon="10.681425403908065"><ele>97.0</ele><time>2026-04-26T14:24:13.001Z</time></trkpt><trkpt lat="45.40285537849377" lon="10.681468219493341"><ele>97.00000000000001</ele><time>2026-04-26T14:24:14.001Z</time></trkpt><trkpt lat="45.40276885260521" lon="10.681508251199038"><ele>97.0</ele><time>2026-04-26T14:24:15.001Z</time></trkpt><trkpt lat="45.40270504088173" lon="10.681560212260548"><ele>97.00000000000001</ele><time>2026-04-26T14:24:16.001Z</time></trkpt><trkpt lat="45.40263136191271" lon="10.681610225632454"><ele>97.0</ele><time>2026-04-26T14:24:17.001Z</time></trkpt><trkpt lat="45.40255461672042" lon="10.68166202520484"><ele>97.0</ele><time>2026-04-26T14:24:18.001Z</time></trkpt><trkpt lat="45.402464612899145" lon="10.681720256761437"><ele>97.0</ele><time>2026-04-26T14:24:19.001Z</time></trkpt><trkpt lat="45.40238933717563" lon="10.681768063398437"><ele>97.00000000000001</ele><time>2026-04-26T14:24:20.001Z</time></trkpt><trkpt lat="45.40232937073792" lon="10.681813109043764"><ele>97.0</ele><time>2026-04-26T14:24:21.001Z</time></trkpt><trkpt lat="45.40223620855188" lon="10.681863961014443"><ele>97.00000000000001</ele><time>2026-04-26T14:24:22.001Z</time></trkpt><trkpt lat="45.40216222863309" lon="10.681890380394861"><ele>97.0</ele><time>2026-04-26T14:24:23.001Z</time></trkpt><trkpt lat="45.402065793907994" lon="10.681940256697388"><ele>97.0</ele><time>2026-04-26T14:24:24.001Z</time></trkpt><trkpt lat="45.40200191848937" lon="10.68199120667421"><ele>97.0</ele><time>2026-04-26T14:24:25.001Z</time></trkpt><trkpt lat="45.40191613208323" lon="10.682027109524086"><ele>97.00000000000001</ele><time>2026-04-26T14:24:26.001Z</time></trkpt><trkpt lat="45.40184865340199" lon="10.682035741436998"><ele>97.0</ele><time>2026-04-26T14:24:27.001Z</time></trkpt><trkpt lat="45.40177470882893" lon="10.682065385625286"><ele>97.00000000000001</ele><time>2026-04-26T14:24:28.001Z</time></trkpt><trkpt lat="45.40167649225245" lon="10.682101199390713"><ele>97.0</ele><time>2026-04-26T14:24:29.001Z</time></trkpt><trkpt lat="45.40159804271965" lon="10.682149070933129"><ele>97.0</ele><time>2026-04-26T14:24:30.001Z</time></trkpt><trkpt lat="45.40151595785077" lon="10.682142642325092"><ele>97.0</ele><time>2026-04-26T14:24:31.001Z</time></trkpt><trkpt lat="45.40144938769453" lon="10.682129617483719"><ele>97.00000000000001</ele><time>2026-04-26T14:24:32.001Z</time></trkpt><trkpt lat="45.40139061874877" lon="10.682097286918687"><ele>97.0</ele><time>2026-04-26T14:24:33.001Z</time></trkpt><trkpt lat="45.40131519815622" lon="10.681967650085646"><ele>97.83333333333334</ele><time>2026-04-26T14:24:35.001Z</time></trkpt><trkpt lat="45.40128300539859" lon="10.681874229532651"><ele>98.66666666666667</ele><time>2026-04-26T14:24:36.001Z</time></trkpt><trkpt lat="45.4012524500482" lon="10.681770461426874"><ele>99.5</ele><time>2026-04-26T14:24:37.001Z</time></trkpt><trkpt lat="45.40122443326258" lon="10.681665812856094"><ele>100.33333333333334</ele><time>2026-04-26T14:24:38.001Z</time></trkpt><trkpt lat="45.401186957879155" lon="10.681586187513558"><ele>101.16666666666667</ele><time>2026-04-26T14:24:39.001Z</time></trkpt><trkpt lat="45.40116423316142" lon="10.681492925240692"><ele>102.0</ele><time>2026-04-26T14:24:40.001Z</time></trkpt><trkpt lat="45.40111314856145" lon="10.681365149387359"><ele>102.0</ele><time>2026-04-26T14:24:42.001Z</time></trkpt><trkpt lat="45.40105005994559" lon="10.681349153504488"><ele>102.0</ele><time>2026-04-26T14:24:43.001Z</time></trkpt><trkpt lat="45.40098508525544" lon="10.68134466062736"><ele>102.0</ele><time>2026-04-26T14:24:44.001Z</time></trkpt><trkpt lat="45.40091408542406" lon="10.68136830244127"><ele>102.0</ele><time>2026-04-26T14:24:45.001Z</time></trkpt><trkpt lat="45.40084808957838" lon="10.68139742502875"><ele>102.0</ele><time>2026-04-26T14:24:46.001Z</time></trkpt><trkpt lat="45.40073400509359" lon="10.681435452859278"><ele>102.0</ele><time>2026-04-26T14:24:48.001Z</time></trkpt><trkpt lat="45.4006336070117" lon="10.681518651529469"><ele>102.0</ele><time>2026-04-26T14:24:50.001Z</time></trkpt><trkpt lat="45.400553537435044" lon="10.681512734498096"><ele>102.0</ele><time>2026-04-26T14:24:52.001Z</time></trkpt><trkpt lat="45.40051823593393" lon="10.681412448974106"><ele>102.0</ele><time>2026-04-26T14:24:54.001Z</time></trkpt><trkpt lat="45.400533749812915" lon="10.681284730453951"><ele>102.0</ele><time>2026-04-26T14:24:56.001Z</time></trkpt><trkpt lat="45.40051002904781" lon="10.681129625246271"><ele>102.0</ele><time>2026-04-26T14:24:58.001Z</time></trkpt><trkpt lat="45.40048339473275" lon="10.681011382977728"><ele>102.0</ele><time>2026-04-26T14:25:00.001Z</time></trkpt><trkpt lat="45.40037096068383" lon="10.68099595626726"><ele>102.0</ele><time>2026-04-26T14:25:02.002Z</time></trkpt><trkpt lat="45.400310562820536" lon="10.680956051352826"><ele>102.0</ele><time>2026-04-26T14:25:03.002Z</time></trkpt><trkpt lat="45.40018899145166" lon="10.68095650370401"><ele>102.0</ele><time>2026-04-26T14:25:05.002Z</time></trkpt><trkpt lat="45.40006913994929" lon="10.680921291876416"><ele>102.0</ele><time>2026-04-26T14:25:07.002Z</time></trkpt><trkpt lat="45.39993628030178" lon="10.680902810031132"><ele>102.0</ele><time>2026-04-26T14:25:09.002Z</time></trkpt><trkpt lat="45.399857763835016" lon="10.680888077734345"><ele>102.0</ele><time>2026-04-26T14:25:10.002Z</time></trkpt><trkpt lat="45.39979195685174" lon="10.68089385792832"><ele>102.0</ele><time>2026-04-26T14:25:11.002Z</time></trkpt><trkpt lat="45.39972230092244" lon="10.68087224883077"><ele>102.0</ele><time>2026-04-26T14:25:12.002Z</time></trkpt><trkpt lat="45.399642456466914" lon="10.680845747230128"><ele>102.0</ele><time>2026-04-26T14:25:13.002Z</time></trkpt><trkpt lat="45.399554049290174" lon="10.680816140946643"><ele>102.0</ele><time>2026-04-26T14:25:14.002Z</time></trkpt><trkpt lat="45.39947019480389" lon="10.680795514176095"><ele>102.0</ele><time>2026-04-26T14:25:15.002Z</time></trkpt><trkpt lat="45.39938634885578" lon="10.68079143975968"><ele>102.16666666666667</ele><time>2026-04-26T14:25:16.002Z</time></trkpt><trkpt lat="45.399293788991514" lon="10.680792809516346"><ele>102.33333333333334</ele><time>2026-04-26T14:25:17.002Z</time></trkpt><trkpt lat="45.399208042026196" lon="10.680803419869992"><ele>102.5</ele><time>2026-04-26T14:25:18.002Z</time></trkpt><trkpt lat="45.39911966306614" lon="10.680822091125908"><ele>102.66666666666667</ele><time>2026-04-26T14:25:19.002Z</time></trkpt><trkpt lat="45.39903191450732" lon="10.680835164123016"><ele>102.83333333333334</ele><time>2026-04-26T14:25:20.002Z</time></trkpt><trkpt lat="45.39894609732387" lon="10.680851943559611"><ele>103.0</ele><time>2026-04-26T14:25:21.002Z</time></trkpt><trkpt lat="45.39885519416458" lon="10.680863197867884"><ele>103.66666666666667</ele><time>2026-04-26T14:25:22.002Z</time></trkpt><trkpt lat="45.39878652026199" lon="10.68088116868984"><ele>104.33333333333334</ele><time>2026-04-26T14:25:23.002Z</time></trkpt><trkpt lat="45.398701331683206" lon="10.680925470646745"><ele>105.0</ele><time>2026-04-26T14:25:24.002Z</time></trkpt><trkpt lat="45.39861466306126" lon="10.680966925530397"><ele>105.66666666666666</ele><time>2026-04-26T14:25:25.002Z</time></trkpt><trkpt lat="45.39855220972888" lon="10.681005616888221"><ele>106.33333333333333</ele><time>2026-04-26T14:25:26.002Z</time></trkpt><trkpt lat="45.39847022726367" lon="10.68106149607873"><ele>107.0</ele><time>2026-04-26T14:25:27.002Z</time></trkpt><trkpt lat="45.39838424270476" lon="10.68109173685944"><ele>106.66666666666666</ele><time>2026-04-26T14:25:28.002Z</time></trkpt><trkpt lat="45.398313502592686" lon="10.681143692672867"><ele>106.33333333333333</ele><time>2026-04-26T14:25:29.002Z</time></trkpt><trkpt lat="45.39821995953423" lon="10.681195196977177"><ele>106.0</ele><time>2026-04-26T14:25:30.002Z</time></trkpt><trkpt lat="45.39812048237184" lon="10.68121200591735"><ele>105.66666666666666</ele><time>2026-04-26T14:25:31.002Z</time></trkpt><trkpt lat="45.39803043431748" lon="10.68125736097454"><ele>105.33333333333333</ele><time>2026-04-26T14:25:32.002Z</time></trkpt><trkpt lat="45.397958193487796" lon="10.681258167144316"><ele>105.0</ele><time>2026-04-26T14:25:33.002Z</time></trkpt><trkpt lat="45.397886764623365" lon="10.68129810567449"><ele>105.0</ele><time>2026-04-26T14:25:34.002Z</time></trkpt><trkpt lat="45.39780501832746" lon="10.68129429076941"><ele>105.0</ele><time>2026-04-26T14:25:35.002Z</time></trkpt><trkpt lat="45.397733415989975" lon="10.681330000236919"><ele>105.0</ele><time>2026-04-26T14:25:36.002Z</time></trkpt><trkpt lat="45.397651074504644" lon="10.68131461871971"><ele>105.0</ele><time>2026-04-26T14:25:37.002Z</time></trkpt><trkpt lat="45.39757384584392" lon="10.681319446681986"><ele>105.0</ele><time>2026-04-26T14:25:38.002Z</time></trkpt><trkpt lat="45.39750293700524" lon="10.68132093082111"><ele>105.0</ele><time>2026-04-26T14:25:39.002Z</time></trkpt><trkpt lat="45.39742187448472" lon="10.681346655756"><ele>105.0</ele><time>2026-04-26T14:25:40.002Z</time></trkpt><trkpt lat="45.39734082873771" lon="10.681345277165295"><ele>105.0</ele><time>2026-04-26T14:25:41.002Z</time></trkpt><trkpt lat="45.39725275392949" lon="10.681363949489258"><ele>105.0</ele><time>2026-04-26T14:25:42.002Z</time></trkpt><trkpt lat="45.397170788005255" lon="10.681380792867085"><ele>105.0</ele><time>2026-04-26T14:25:43.002Z</time></trkpt><trkpt lat="45.39709542543455" lon="10.681382032202025"><ele>105.0</ele><time>2026-04-26T14:25:44.002Z</time></trkpt><trkpt lat="45.396991617788544" lon="10.68143212469681"><ele>105.0</ele><time>2026-04-26T14:25:46.002Z</time></trkpt><trkpt lat="45.39687535226184" lon="10.68144890321472"><ele>105.66666666666667</ele><time>2026-04-26T14:25:48.002Z</time></trkpt><trkpt lat="45.39681111997892" lon="10.681492081414698"><ele>106.33333333333334</ele><time>2026-04-26T14:25:49.002Z</time></trkpt><trkpt lat="45.39674536956268" lon="10.681512990711042"><ele>107.0</ele><time>2026-04-26T14:25:50.002Z</time></trkpt><trkpt lat="45.396675734817855" lon="10.681539989564376"><ele>107.66666666666667</ele><time>2026-04-26T14:25:51.002Z</time></trkpt><trkpt lat="45.3966021076989" lon="10.681541341880475"><ele>108.33333333333334</ele><time>2026-04-26T14:25:52.002Z</time></trkpt><trkpt lat="45.39652840612238" lon="10.681590101106378"><ele>109.0</ele><time>2026-04-26T14:25:53.002Z</time></trkpt><trkpt lat="45.39640184392093" lon="10.68160534292711"><ele>109.0</ele><time>2026-04-26T14:25:55.002Z</time></trkpt><trkpt lat="45.39634153908718" lon="10.681633303084553"><ele>109.0</ele><time>2026-04-26T14:25:56.002Z</time></trkpt><trkpt lat="45.39627593888688" lon="10.68161781412501"><ele>109.0</ele><time>2026-04-26T14:25:57.003Z</time></trkpt><trkpt lat="45.396202120859506" lon="10.681585217456865"><ele>109.0</ele><time>2026-04-26T14:25:58.003Z</time></trkpt><trkpt lat="45.396174012356525" lon="10.681493331330202"><ele>109.0</ele><time>2026-04-26T14:25:59.003Z</time></trkpt><trkpt lat="45.39611756177909" lon="10.681430071681126"><ele>109.0</ele><time>2026-04-26T14:26:00.003Z</time></trkpt><trkpt lat="45.396071686066804" lon="10.681367753493728"><ele>109.0</ele><time>2026-04-26T14:26:01.001Z</time></trkpt><trkpt lat="45.3960281012678" lon="10.681298931046662"><ele>109.16666666666667</ele><time>2026-04-26T14:26:02.001Z</time></trkpt><trkpt lat="45.39598590129729" lon="10.681220675813691"><ele>109.33333333333334</ele><time>2026-04-26T14:26:03.001Z</time></trkpt><trkpt lat="45.39595262535829" lon="10.681143506661785"><ele>109.5</ele><time>2026-04-26T14:26:04.001Z</time></trkpt><trkpt lat="45.3959229420658" lon="10.681050051113964"><ele>109.66666666666666</ele><time>2026-04-26T14:26:05.001Z</time></trkpt><trkpt lat="45.39589370586621" lon="10.680954005284166"><ele>109.83333333333333</ele><time>2026-04-26T14:26:06.001Z</time></trkpt><trkpt lat="45.39582829270867" lon="10.680816256368784"><ele>110.0</ele><time>2026-04-26T14:26:08.001Z</time></trkpt><trkpt lat="45.39576536842449" lon="10.680799916027816"><ele>110.0</ele><time>2026-04-26T14:26:09.001Z</time></trkpt><trkpt lat="45.395664957289796" lon="10.680767395475568"><ele>110.0</ele><time>2026-04-26T14:26:11.001Z</time></trkpt><trkpt lat="45.39560325743797" lon="10.680792701720137"><ele>110.0</ele><time>2026-04-26T14:26:12.001Z</time></trkpt><trkpt lat="45.395603862946444" lon="10.680627077740695"><ele>110.0</ele><time>2026-04-26T14:26:15Z</time></trkpt><trkpt lat="45.39561481961993" lon="10.680472906813659"><ele>110.0</ele><time>2026-04-26T14:26:17Z</time></trkpt><trkpt lat="45.39563156918425" lon="10.680314071576634"><ele>110.2</ele><time>2026-04-26T14:26:19Z</time></trkpt><trkpt lat="45.395645425296365" lon="10.68015921672384"><ele>110.4</ele><time>2026-04-26T14:26:21Z</time></trkpt><trkpt lat="45.395641585878096" lon="10.680009134268213"><ele>110.6</ele><time>2026-04-26T14:26:23Z</time></trkpt><trkpt lat="45.39565413780313" lon="10.679851133311915"><ele>110.8</ele><time>2026-04-26T14:26:25.001Z</time></trkpt><trkpt lat="45.39565933156711" lon="10.679746690065338"><ele>111.0</ele><time>2026-04-26T14:26:26.001Z</time></trkpt><trkpt lat="45.395720781044055" lon="10.679617098961728"><ele>111.0</ele><time>2026-04-26T14:26:27.001Z</time></trkpt><trkpt lat="45.395740017274356" lon="10.679469142491094"><ele>111.0</ele><time>2026-04-26T14:26:28.001Z</time></trkpt><trkpt lat="45.39576233566098" lon="10.679338386936159"><ele>111.0</ele><time>2026-04-26T14:26:29.001Z</time></trkpt><trkpt lat="45.39578844427629" lon="10.679205395189769"><ele>111.0</ele><time>2026-04-26T14:26:30.001Z</time></trkpt><trkpt lat="45.39581600486364" lon="10.679060250905295"><ele>111.0</ele><time>2026-04-26T14:26:31.001Z</time></trkpt><trkpt lat="45.395837169407066" lon="10.67891168744897"><ele>110.75</ele><time>2026-04-26T14:26:32.001Z</time></trkpt><trkpt lat="45.39585448696859" lon="10.678764231111849"><ele>110.5</ele><time>2026-04-26T14:26:33.001Z</time></trkpt><trkpt lat="45.395864985195516" lon="10.67859695655254"><ele>110.25</ele><time>2026-04-26T14:26:34.001Z</time></trkpt><trkpt lat="45.395870378528116" lon="10.678437011272083"><ele>110.0</ele><time>2026-04-26T14:26:35.001Z</time></trkpt><trkpt lat="45.39587769421621" lon="10.67827021814307"><ele>110.0</ele><time>2026-04-26T14:26:36.001Z</time></trkpt><trkpt lat="45.3958883382576" lon="10.67810109797315"><ele>110.0</ele><time>2026-04-26T14:26:37.001Z</time></trkpt><trkpt lat="45.395901693330146" lon="10.67792798276454"><ele>110.0</ele><time>2026-04-26T14:26:38.001Z</time></trkpt><trkpt lat="45.395922202102774" lon="10.67775020126356"><ele>110.0</ele><time>2026-04-26T14:26:39.001Z</time></trkpt><trkpt lat="45.39593785972757" lon="10.677567764313567"><ele>110.0</ele><time>2026-04-26T14:26:40.001Z</time></trkpt><trkpt lat="45.39595642219726" lon="10.677378748065708"><ele>110.0</ele><time>2026-04-26T14:26:41.001Z</time></trkpt><trkpt lat="45.395973796634344" lon="10.6771926712313"><ele>110.0</ele><time>2026-04-26T14:26:42.001Z</time></trkpt><trkpt lat="45.39598769294325" lon="10.677012213702362"><ele>110.0</ele><time>2026-04-26T14:26:43.001Z</time></trkpt><trkpt lat="45.39600418680221" lon="10.676817759604049"><ele>110.75</ele><time>2026-04-26T14:26:44.001Z</time></trkpt><trkpt lat="45.396021138762805" lon="10.676614181840357"><ele>111.5</ele><time>2026-04-26T14:26:45.001Z</time></trkpt><trkpt lat="45.396039588604395" lon="10.676406513508839"><ele>112.25</ele><time>2026-04-26T14:26:46.001Z</time></trkpt><trkpt lat="45.396059426544696" lon="10.676192849977905"><ele>113.0</ele><time>2026-04-26T14:26:47.001Z</time></trkpt><trkpt lat="45.39607902841131" lon="10.675975346397834"><ele>113.66666666666666</ele><time>2026-04-26T14:26:48.001Z</time></trkpt><trkpt lat="45.39610610841108" lon="10.675759264820508"><ele>114.33333333333334</ele><time>2026-04-26T14:26:49.001Z</time></trkpt><trkpt lat="45.39614757322078" lon="10.67554791964508"><ele>115.0</ele><time>2026-04-26T14:26:50.001Z</time></trkpt><trkpt lat="45.39622420328688" lon="10.67535339031787"><ele>113.66666666666667</ele><time>2026-04-26T14:26:51.001Z</time></trkpt><trkpt lat="45.39629421791727" lon="10.67514899801824"><ele>112.33333333333334</ele><time>2026-04-26T14:26:52.001Z</time></trkpt><trkpt lat="45.39634880953261" lon="10.674936523690109"><ele>111.0</ele><time>2026-04-26T14:26:53.001Z</time></trkpt><trkpt lat="45.39640819226503" lon="10.674727629636903"><ele>111.0</ele><time>2026-04-26T14:26:54.001Z</time></trkpt><trkpt lat="45.39646077434526" lon="10.674524155550339"><ele>111.0</ele><time>2026-04-26T14:26:55.001Z</time></trkpt><trkpt lat="45.39651005496219" lon="10.674330820810626"><ele>111.0</ele><time>2026-04-26T14:26:56.001Z</time></trkpt><trkpt lat="45.39655985308203" lon="10.674137063313395"><ele>111.0</ele><time>2026-04-26T14:26:57.001Z</time></trkpt><trkpt lat="45.39661421141093" lon="10.673946071904796"><ele>111.5</ele><time>2026-04-26T14:26:58.001Z</time></trkpt><trkpt lat="45.396667444890355" lon="10.673753283937534"><ele>112.0</ele><time>2026-04-26T14:26:59.001Z</time></trkpt><trkpt lat="45.39671562587268" lon="10.673553457282088"><ele>112.5</ele><time>2026-04-26T14:27:00.001Z</time></trkpt><trkpt lat="45.39674479905038" lon="10.673352800760817"><ele>113.0</ele><time>2026-04-26T14:27:01.001Z</time></trkpt><trkpt lat="45.39676452883294" lon="10.673140129540629"><ele>113.0</ele><time>2026-04-26T14:27:02.001Z</time></trkpt><trkpt lat="45.39677840612969" lon="10.672942049499142"><ele>113.0</ele><time>2026-04-26T14:27:03.001Z</time></trkpt><trkpt lat="45.39679867878143" lon="10.672736031351757"><ele>113.0</ele><time>2026-04-26T14:27:04.001Z</time></trkpt><trkpt lat="45.39683446293247" lon="10.672541603471146"><ele>113.0</ele><time>2026-04-26T14:27:05.001Z</time></trkpt><trkpt lat="45.396880529461725" lon="10.672354708292106"><ele>113.75</ele><time>2026-04-26T14:27:06.001Z</time></trkpt><trkpt lat="45.396934587865765" lon="10.672160653628435"><ele>114.5</ele><time>2026-04-26T14:27:07.001Z</time></trkpt><trkpt lat="45.39698950227056" lon="10.67197220798933"><ele>115.25</ele><time>2026-04-26T14:27:08.001Z</time></trkpt><trkpt lat="45.397049476010956" lon="10.671797299943847"><ele>116.0</ele><time>2026-04-26T14:27:09.001Z</time></trkpt><trkpt lat="45.39712619666496" lon="10.671615828240343"><ele>116.0</ele><time>2026-04-26T14:27:10.001Z</time></trkpt><trkpt lat="45.39722056711798" lon="10.671440088325747"><ele>116.0</ele><time>2026-04-26T14:27:11.001Z</time></trkpt><trkpt lat="45.397325670235965" lon="10.671271964410494"><ele>116.0</ele><time>2026-04-26T14:27:12.001Z</time></trkpt><trkpt lat="45.397437034436884" lon="10.671105540559246"><ele>116.66666666666666</ele><time>2026-04-26T14:27:13.001Z</time></trkpt><trkpt lat="45.397552344125366" lon="10.670939318051056"><ele>117.33333333333334</ele><time>2026-04-26T14:27:14.001Z</time></trkpt><trkpt lat="45.397666929999104" lon="10.670768844179547"><ele>118.0</ele><time>2026-04-26T14:27:15.001Z</time></trkpt><trkpt lat="45.397789527655256" lon="10.670592723852351"><ele>118.0</ele><time>2026-04-26T14:27:16.001Z</time></trkpt><trkpt lat="45.397912606262835" lon="10.670420566505495"><ele>118.0</ele><time>2026-04-26T14:27:17.001Z</time></trkpt><trkpt lat="45.39803818778988" lon="10.670243317819267"><ele>118.0</ele><time>2026-04-26T14:27:18.001Z</time></trkpt><trkpt lat="45.398157881449684" lon="10.670060841888029"><ele>120.0</ele><time>2026-04-26T14:27:19.001Z</time></trkpt><trkpt lat="45.398267798769034" lon="10.669879736461402"><ele>122.0</ele><time>2026-04-26T14:27:20.001Z</time></trkpt><trkpt lat="45.398373219462414" lon="10.669701919826913"><ele>124.0</ele><time>2026-04-26T14:27:21.001Z</time></trkpt><trkpt lat="45.398474090795474" lon="10.669527694744016"><ele>124.66666666666667</ele><time>2026-04-26T14:27:22.001Z</time></trkpt><trkpt lat="45.398563558507824" lon="10.669351480799282"><ele>125.33333333333334</ele><time>2026-04-26T14:27:23.001Z</time></trkpt><trkpt lat="45.398640721816506" lon="10.66916234470819"><ele>126.0</ele><time>2026-04-26T14:27:24.001Z</time></trkpt><trkpt lat="45.39869751059518" lon="10.668968067810116"><ele>126.0</ele><time>2026-04-26T14:27:25.001Z</time></trkpt><trkpt lat="45.39875868666883" lon="10.66876852250034"><ele>126.0</ele><time>2026-04-26T14:27:26.001Z</time></trkpt><trkpt lat="45.398823797019304" lon="10.668580531882908"><ele>126.0</ele><time>2026-04-26T14:27:27.001Z</time></trkpt><trkpt lat="45.39891628511164" lon="10.66841581925362"><ele>126.0</ele><time>2026-04-26T14:27:28.001Z</time></trkpt><trkpt lat="45.39898346820396" lon="10.668238552618881"><ele>126.0</ele><time>2026-04-26T14:27:29.001Z</time></trkpt><trkpt lat="45.399066248304976" lon="10.668083498316834"><ele>126.0</ele><time>2026-04-26T14:27:30.002Z</time></trkpt><trkpt lat="45.39915024037149" lon="10.66790968819831"><ele>126.0</ele><time>2026-04-26T14:27:31.002Z</time></trkpt><trkpt lat="45.39922173942612" lon="10.667736232187561"><ele>126.0</ele><time>2026-04-26T14:27:32.002Z</time></trkpt><trkpt lat="45.399280487144544" lon="10.667556007273639"><ele>125.75</ele><time>2026-04-26T14:27:33.002Z</time></trkpt><trkpt lat="45.39932998257605" lon="10.667382985435088"><ele>125.5</ele><time>2026-04-26T14:27:34.002Z</time></trkpt><trkpt lat="45.39937619690393" lon="10.667222031212342"><ele>125.25</ele><time>2026-04-26T14:27:35.002Z</time></trkpt><trkpt lat="45.399420467318" lon="10.667063373510116"><ele>125.0</ele><time>2026-04-26T14:27:36.002Z</time></trkpt><trkpt lat="45.39945654181484" lon="10.666918011137893"><ele>125.0</ele><time>2026-04-26T14:27:37.002Z</time></trkpt><trkpt lat="45.39948357525065" lon="10.666793649699017"><ele>125.0</ele><time>2026-04-26T14:27:38.002Z</time></trkpt><trkpt lat="45.3994978610636" lon="10.6666822112712"><ele>125.0</ele><time>2026-04-26T14:27:39.002Z</time></trkpt><trkpt lat="45.39953280071877" lon="10.666591084688493"><ele>125.0</ele><time>2026-04-26T14:27:42.002Z</time></trkpt><trkpt lat="45.39950113433704" lon="10.666701852680752"><ele>125.0</ele><time>2026-04-26T14:27:59.002Z</time></trkpt><trkpt lat="45.39947146755601" lon="10.666885143918245"><ele>124.99999999999999</ele><time>2026-04-26T14:28:01.002Z</time></trkpt><trkpt lat="45.399455033079484" lon="10.666986681775828"><ele>125.0</ele><time>2026-04-26T14:28:02.002Z</time></trkpt><trkpt lat="45.399429976036515" lon="10.66709511419256"><ele>125.0</ele><time>2026-04-26T14:28:03.002Z</time></trkpt><trkpt lat="45.39940156237531" lon="10.66720635120515"><ele>125.0</ele><time>2026-04-26T14:28:04.002Z</time></trkpt><trkpt lat="45.39936950620666" lon="10.667315502495256"><ele>124.99999999999999</ele><time>2026-04-26T14:28:05.002Z</time></trkpt><trkpt lat="45.39933689524001" lon="10.667414487266221"><ele>125.0</ele><time>2026-04-26T14:28:06.002Z</time></trkpt><trkpt lat="45.399291078441195" lon="10.667547083805886"><ele>125.0</ele><time>2026-04-26T14:28:08Z</time></trkpt><trkpt lat="45.399031621841125" lon="10.667424332139763"><ele>125.0</ele><time>2026-04-26T14:28:40Z</time></trkpt><trkpt lat="45.39894346737365" lon="10.667368300183607"><ele>125.0</ele><time>2026-04-26T14:28:41Z</time></trkpt><trkpt lat="45.39888099776529" lon="10.667356544204347"><ele>125.0</ele><time>2026-04-26T14:28:42Z</time></trkpt><trkpt lat="45.39876904261121" lon="10.66728474461678"><ele>124.16666666666666</ele><time>2026-04-26T14:28:44Z</time></trkpt><trkpt lat="45.39870807399074" lon="10.667245848797148"><ele>123.33333333333333</ele><time>2026-04-26T14:28:45Z</time></trkpt><trkpt lat="45.398645853155855" lon="10.667213343986056"><ele>122.5</ele><time>2026-04-26T14:28:46Z</time></trkpt><trkpt lat="45.39854742900571" lon="10.667130956704806"><ele>121.66666666666666</ele><time>2026-04-26T14:28:48Z</time></trkpt><trkpt lat="45.398450561307676" lon="10.667091629564563"><ele>120.83333333333333</ele><time>2026-04-26T14:28:50Z</time></trkpt><trkpt lat="45.39839068361681" lon="10.6669762003227"><ele>120.0</ele><time>2026-04-26T14:28:52Z</time></trkpt><trkpt lat="45.39833335585709" lon="10.666869721380941"><ele>120.0</ele><time>2026-04-26T14:28:54Z</time></trkpt><trkpt lat="45.398305625710194" lon="10.66677068925689"><ele>120.0</ele><time>2026-04-26T14:28:56Z</time></trkpt><trkpt lat="45.39825732825441" lon="10.666672744805263"><ele>120.0</ele><time>2026-04-26T14:28:58Z</time></trkpt><trkpt lat="45.39803452053538" lon="10.666820299120692"><ele>120.0</ele><time>2026-04-26T14:28:59.001Z</time></trkpt><trkpt lat="45.39797529394574" lon="10.666788628490625"><ele>119.6</ele><time>2026-04-26T14:29:00.001Z</time></trkpt><trkpt lat="45.39786896673319" lon="10.66676574311199"><ele>119.2</ele><time>2026-04-26T14:29:02.001Z</time></trkpt><trkpt lat="45.39775624599968" lon="10.666757119655479"><ele>118.80000000000001</ele><time>2026-04-26T14:29:04.001Z</time></trkpt><trkpt lat="45.39767741530671" lon="10.666814699504343"><ele>118.4</ele><time>2026-04-26T14:29:06.001Z</time></trkpt><trkpt lat="45.397616475323765" lon="10.666962371127392"><ele>118.0</ele><time>2026-04-26T14:29:08.001Z</time></trkpt><trkpt lat="45.397570287111584" lon="10.667110779587027"><ele>118.66666666666667</ele><time>2026-04-26T14:29:10.001Z</time></trkpt><trkpt lat="45.39748612187227" lon="10.667239949240663"><ele>119.33333333333334</ele><time>2026-04-26T14:29:12.001Z</time></trkpt><trkpt lat="45.39738323592936" lon="10.667342781529573"><ele>120.0</ele><time>2026-04-26T14:29:14.001Z</time></trkpt><trkpt lat="45.39732427874749" lon="10.667380832051938"><ele>120.66666666666666</ele><time>2026-04-26T14:29:15.001Z</time></trkpt><trkpt lat="45.39726131925265" lon="10.667416412740756"><ele>121.33333333333333</ele><time>2026-04-26T14:29:16.001Z</time></trkpt><trkpt lat="45.397198845208145" lon="10.667449241023396"><ele>122.0</ele><time>2026-04-26T14:29:17.001Z</time></trkpt><trkpt lat="45.39712827143677" lon="10.667483598123349"><ele>122.49999999999999</ele><time>2026-04-26T14:29:18.001Z</time></trkpt><trkpt lat="45.397059392808444" lon="10.667533726032751"><ele>123.0</ele><time>2026-04-26T14:29:19.001Z</time></trkpt><trkpt lat="45.39698760541918" lon="10.667594853711776"><ele>123.5</ele><time>2026-04-26T14:29:20.001Z</time></trkpt><trkpt lat="45.39691923731696" lon="10.667656673889454"><ele>124.0</ele><time>2026-04-26T14:29:21.001Z</time></trkpt><trkpt lat="45.396853584614206" lon="10.667712452763258"><ele>124.49999999999999</ele><time>2026-04-26T14:29:22.001Z</time></trkpt><trkpt lat="45.3967547783601" lon="10.667813418003707"><ele>125.0</ele><time>2026-04-26T14:29:24.001Z</time></trkpt><trkpt lat="45.39666065999847" lon="10.667892186641366"><ele>124.75</ele><time>2026-04-26T14:29:26.001Z</time></trkpt><trkpt lat="45.396553362913686" lon="10.667972233953778"><ele>124.5</ele><time>2026-04-26T14:29:28.001Z</time></trkpt><trkpt lat="45.396463270470036" lon="10.668020960456005"><ele>124.25</ele><time>2026-04-26T14:29:29.001Z</time></trkpt><trkpt lat="45.39636779776179" lon="10.66807526164356"><ele>124.0</ele><time>2026-04-26T14:29:30.001Z</time></trkpt><trkpt lat="45.396217261562334" lon="10.66811286674645"><ele>124.0</ele><time>2026-04-26T14:29:31.001Z</time></trkpt><trkpt lat="45.39609787197718" lon="10.668140432462133"><ele>124.0</ele><time>2026-04-26T14:29:32.001Z</time></trkpt><trkpt lat="45.39594570008471" lon="10.668163454215813"><ele>124.0</ele><time>2026-04-26T14:29:33.001Z</time></trkpt><trkpt lat="45.396054016458905" lon="10.668229960459835"><ele>124.0</ele><time>2026-04-26T14:29:34.001Z</time></trkpt><trkpt lat="45.39598786823006" lon="10.668258489348469"><ele>124.0</ele><time>2026-04-26T14:29:35.001Z</time></trkpt><trkpt lat="45.39592483505003" lon="10.668293461288753"><ele>124.0</ele><time>2026-04-26T14:29:36.001Z</time></trkpt><trkpt lat="45.395818186484355" lon="10.668378597912922"><ele>124.0</ele><time>2026-04-26T14:29:38.001Z</time></trkpt><trkpt lat="45.39569830343085" lon="10.668445698395436"><ele>124.0</ele><time>2026-04-26T14:29:40.001Z</time></trkpt><trkpt lat="45.3956333404931" lon="10.668474774972378"><ele>124.0</ele><time>2026-04-26T14:29:41.001Z</time></trkpt><trkpt lat="45.395524569552855" lon="10.668531381994304"><ele>123.83333333333334</ele><time>2026-04-26T14:29:43.001Z</time></trkpt><trkpt lat="45.39541537192367" lon="10.668585401034857"><ele>123.66666666666667</ele><time>2026-04-26T14:29:45.001Z</time></trkpt><trkpt lat="45.395339322507596" lon="10.668603085942513"><ele>123.5</ele><time>2026-04-26T14:29:46.001Z</time></trkpt><trkpt lat="45.39525329114373" lon="10.668611109903944"><ele>123.33333333333334</ele><time>2026-04-26T14:29:47.001Z</time></trkpt><trkpt lat="45.39517410029612" lon="10.668614196799448"><ele>123.16666666666667</ele><time>2026-04-26T14:29:48.001Z</time></trkpt><trkpt lat="45.39508991486044" lon="10.668615314957906"><ele>123.0</ele><time>2026-04-26T14:29:49.001Z</time></trkpt><trkpt lat="45.395009093686255" lon="10.66861111316246"><ele>123.0</ele><time>2026-04-26T14:29:50.001Z</time></trkpt><trkpt lat="45.394931537522105" lon="10.668603599876876"><ele>123.0</ele><time>2026-04-26T14:29:51.001Z</time></trkpt><trkpt lat="45.39486487491655" lon="10.66861702738643"><ele>123.0</ele><time>2026-04-26T14:29:52.001Z</time></trkpt><trkpt lat="45.39473837277612" lon="10.668699369932016"><ele>123.0</ele><time>2026-04-26T14:29:54.001Z</time></trkpt><trkpt lat="45.39467068570778" lon="10.668745781655414"><ele>123.0</ele><time>2026-04-26T14:29:55.001Z</time></trkpt><trkpt lat="45.394606215982826" lon="10.668793668155836"><ele>123.0</ele><time>2026-04-26T14:29:56.001Z</time></trkpt><trkpt lat="45.394490254746835" lon="10.668848142980123"><ele>122.0</ele><time>2026-04-26T14:29:58.001Z</time></trkpt><trkpt lat="45.39439196133579" lon="10.668876504815273"><ele>121.00000000000001</ele><time>2026-04-26T14:30:00.001Z</time></trkpt><trkpt lat="45.394300848392106" lon="10.668937745087549"><ele>120.00000000000001</ele><time>2026-04-26T14:30:02.002Z</time></trkpt><trkpt lat="45.39424717403636" lon="10.668998458148476"><ele>119.0</ele><time>2026-04-26T14:30:03.002Z</time></trkpt><trkpt lat="45.39418374773069" lon="10.669163141256744"><ele>118.0</ele><time>2026-04-26T14:30:05.002Z</time></trkpt><trkpt lat="45.3941583626771" lon="10.669263920848909"><ele>118.0</ele><time>2026-04-26T14:30:06.002Z</time></trkpt><trkpt lat="45.3940922686795" lon="10.66941946271565"><ele>118.0</ele><time>2026-04-26T14:30:08.002Z</time></trkpt><trkpt lat="45.394007481444845" lon="10.669548584318356"><ele>118.0</ele><time>2026-04-26T14:30:10.002Z</time></trkpt><trkpt lat="45.393928081624395" lon="10.669643838795983"><ele>118.0</ele><time>2026-04-26T14:30:12.002Z</time></trkpt><trkpt lat="45.39382887293904" lon="10.669710463831198"><ele>116.80000000000001</ele><time>2026-04-26T14:30:14Z</time></trkpt><trkpt lat="45.39372490203902" lon="10.669752559225383"><ele>115.60000000000001</ele><time>2026-04-26T14:30:16Z</time></trkpt><trkpt lat="45.39365966340913" lon="10.669772259032502"><ele>114.39999999999999</ele><time>2026-04-26T14:30:17Z</time></trkpt><trkpt lat="45.39355963595879" lon="10.66982752887897"><ele>113.19999999999999</ele><time>2026-04-26T14:30:19Z</time></trkpt><trkpt lat="45.3934655628468" lon="10.669945129317725"><ele>112.0</ele><time>2026-04-26T14:30:21Z</time></trkpt><trkpt lat="45.39342240579422" lon="10.670030993336427"><ele>112.00000000000001</ele><time>2026-04-26T14:30:22Z</time></trkpt><trkpt lat="45.393377731102824" lon="10.670121684490592"><ele>112.0</ele><time>2026-04-26T14:30:23Z</time></trkpt><trkpt lat="45.393328781006076" lon="10.670224327963348"><ele>112.0</ele><time>2026-04-26T14:30:24Z</time></trkpt><trkpt lat="45.39328586749196" lon="10.67031711006547"><ele>112.0</ele><time>2026-04-26T14:30:25Z</time></trkpt><trkpt lat="45.39322965013461" lon="10.670444789296576"><ele>112.00000000000001</ele><time>2026-04-26T14:30:27Z</time></trkpt><trkpt lat="45.39315869611437" lon="10.670529975738088"><ele>112.0</ele><time>2026-04-26T14:30:29Z</time></trkpt><trkpt lat="45.39306355626124" lon="10.670543867687538"><ele>111.0</ele><time>2026-04-26T14:30:31Z</time></trkpt><trkpt lat="45.3929783889596" lon="10.670504601499562"><ele>109.99999999999999</ele><time>2026-04-26T14:30:33Z</time></trkpt><trkpt lat="45.39290512589115" lon="10.670483988243362"><ele>108.99999999999999</ele><time>2026-04-26T14:30:37Z</time></trkpt><trkpt lat="45.39281577132199" lon="10.670535352562545"><ele>108.0</ele><time>2026-04-26T14:30:39Z</time></trkpt><trkpt lat="45.39270734534156" lon="10.670563958232554"><ele>107.0</ele><time>2026-04-26T14:30:41Z</time></trkpt><trkpt lat="45.39260348336667" lon="10.67053602018742"><ele>107.0</ele><time>2026-04-26T14:30:43Z</time></trkpt><trkpt lat="45.39249427748812" lon="10.670514223963888"><ele>106.99999999999999</ele><time>2026-04-26T14:30:45Z</time></trkpt><trkpt lat="45.39241667250722" lon="10.670456779817755"><ele>106.99999999999999</ele><time>2026-04-26T14:30:47Z</time></trkpt><trkpt lat="45.39230676928791" lon="10.670405149357986"><ele>107.0</ele><time>2026-04-26T14:30:49Z</time></trkpt><trkpt lat="45.39223080658798" lon="10.670351023189562"><ele>107.0</ele><time>2026-04-26T14:30:51Z</time></trkpt><trkpt lat="45.3921544134548" lon="10.67028016499936"><ele>106.16666666666666</ele><time>2026-04-26T14:30:53Z</time></trkpt><trkpt lat="45.39207866505706" lon="10.670246809725105"><ele>105.33333333333333</ele><time>2026-04-26T14:30:55Z</time></trkpt><trkpt lat="45.39200092737652" lon="10.670256344486607"><ele>104.5</ele><time>2026-04-26T14:30:57Z</time></trkpt><trkpt lat="45.391950998734146" lon="10.670165477582575"><ele>103.66666666666666</ele><time>2026-04-26T14:30:59Z</time></trkpt><trkpt lat="45.391961834496016" lon="10.670057818180592"><ele>102.83333333333333</ele><time>2026-04-26T14:31:00Z</time></trkpt><trkpt lat="45.39192760294855" lon="10.669935391312633"><ele>102.0</ele><time>2026-04-26T14:31:01Z</time></trkpt><trkpt lat="45.391878016923876" lon="10.66979050106864"><ele>102.0</ele><time>2026-04-26T14:31:02Z</time></trkpt><trkpt lat="45.391821123032415" lon="10.66962775622992"><ele>102.0</ele><time>2026-04-26T14:31:03Z</time></trkpt><trkpt lat="45.39175526437346" lon="10.669452439062194"><ele>102.0</ele><time>2026-04-26T14:31:04.001Z</time></trkpt><trkpt lat="45.39169083043854" lon="10.669291217345593"><ele>102.0</ele><time>2026-04-26T14:31:05.001Z</time></trkpt><trkpt lat="45.391621193506026" lon="10.66912288497328"><ele>101.5</ele><time>2026-04-26T14:31:06.001Z</time></trkpt><trkpt lat="45.39153383542825" lon="10.668967667072428"><ele>101.0</ele><time>2026-04-26T14:31:07.001Z</time></trkpt><trkpt lat="45.39146818908545" lon="10.66877766916301"><ele>100.5</ele><time>2026-04-26T14:31:08.001Z</time></trkpt><trkpt lat="45.391377685647804" lon="10.668622659159734"><ele>100.0</ele><time>2026-04-26T14:31:09.001Z</time></trkpt><trkpt lat="45.391300583600994" lon="10.668458674241394"><ele>97.66666666666667</ele><time>2026-04-26T14:31:10.001Z</time></trkpt><trkpt lat="45.39121922008389" lon="10.668281467957913"><ele>95.33333333333334</ele><time>2026-04-26T14:31:11.001Z</time></trkpt><trkpt lat="45.39113485878487" lon="10.668101452867344"><ele>93.0</ele><time>2026-04-26T14:31:12.001Z</time></trkpt><trkpt lat="45.39104876198243" lon="10.66792373777415"><ele>93.66666666666667</ele><time>2026-04-26T14:31:13.001Z</time></trkpt><trkpt lat="45.39095869206168" lon="10.667732377335458"><ele>94.33333333333334</ele><time>2026-04-26T14:31:14.001Z</time></trkpt><trkpt lat="45.39086502552009" lon="10.66752011836158"><ele>95.0</ele><time>2026-04-26T14:31:15.001Z</time></trkpt><trkpt lat="45.39078083726417" lon="10.667308734162367"><ele>95.0</ele><time>2026-04-26T14:31:16.001Z</time></trkpt><trkpt lat="45.39072007783309" lon="10.66707596494906"><ele>95.0</ele><time>2026-04-26T14:31:17.001Z</time></trkpt><trkpt lat="45.39065388566522" lon="10.66682939167839"><ele>95.0</ele><time>2026-04-26T14:31:18.001Z</time></trkpt><trkpt lat="45.39059844909478" lon="10.666580481108879"><ele>95.0</ele><time>2026-04-26T14:31:19.001Z</time></trkpt><trkpt lat="45.39053304132603" lon="10.666330407051865"><ele>95.0</ele><time>2026-04-26T14:31:20.001Z</time></trkpt><trkpt lat="45.39047867017145" lon="10.666051110032639"><ele>95.0</ele><time>2026-04-26T14:31:21.001Z</time></trkpt><trkpt lat="45.39043155534145" lon="10.66579839518984"><ele>93.66666666666667</ele><time>2026-04-26T14:31:22.001Z</time></trkpt><trkpt lat="45.39038553351953" lon="10.665511773575274"><ele>92.33333333333333</ele><time>2026-04-26T14:31:23.001Z</time></trkpt><trkpt lat="45.39032245538183" lon="10.665241065676302"><ele>91.0</ele><time>2026-04-26T14:31:24.001Z</time></trkpt><trkpt lat="45.39024793235664" lon="10.664997067112811"><ele>91.0</ele><time>2026-04-26T14:31:25.001Z</time></trkpt><trkpt lat="45.39018202914758" lon="10.66474095608415"><ele>91.0</ele><time>2026-04-26T14:31:26.001Z</time></trkpt><trkpt lat="45.39010582904585" lon="10.66447829623013"><ele>91.0</ele><time>2026-04-26T14:31:27.001Z</time></trkpt><trkpt lat="45.390034365946974" lon="10.66422473095462"><ele>91.0</ele><time>2026-04-26T14:31:28.001Z</time></trkpt><trkpt lat="45.38997605904836" lon="10.663949596339144"><ele>91.0</ele><time>2026-04-26T14:31:29.001Z</time></trkpt><trkpt lat="45.38990875271492" lon="10.66368501391731"><ele>91.0</ele><time>2026-04-26T14:31:30.001Z</time></trkpt><trkpt lat="45.38984463143872" lon="10.66341957349777"><ele>91.0</ele><time>2026-04-26T14:31:31.001Z</time></trkpt><trkpt lat="45.38978395071922" lon="10.663144746007392"><ele>91.0</ele><time>2026-04-26T14:31:32.001Z</time></trkpt><trkpt lat="45.38973316024744" lon="10.662868424715459"><ele>91.0</ele><time>2026-04-26T14:31:33.001Z</time></trkpt><trkpt lat="45.38968919139465" lon="10.662591152524124"><ele>91.33333333333333</ele><time>2026-04-26T14:31:34.001Z</time></trkpt><trkpt lat="45.38964972984" lon="10.662310624736527"><ele>91.66666666666667</ele><time>2026-04-26T14:31:35.001Z</time></trkpt><trkpt lat="45.38961213163846" lon="10.66203742170657"><ele>92.0</ele><time>2026-04-26T14:31:36.001Z</time></trkpt><trkpt lat="45.389574810854256" lon="10.661757041308658"><ele>92.0</ele><time>2026-04-26T14:31:37.001Z</time></trkpt><trkpt lat="45.3895518828069" lon="10.661478198780054"><ele>92.0</ele><time>2026-04-26T14:31:38.001Z</time></trkpt><trkpt lat="45.389547123785064" lon="10.661201201540573"><ele>92.0</ele><time>2026-04-26T14:31:39.001Z</time></trkpt><trkpt lat="45.38954631218882" lon="10.66091535405018"><ele>91.66666666666667</ele><time>2026-04-26T14:31:40.001Z</time></trkpt><trkpt lat="45.38954717159552" lon="10.660636820091444"><ele>91.33333333333333</ele><time>2026-04-26T14:31:41.001Z</time></trkpt><trkpt lat="45.38953623176146" lon="10.66035146483918"><ele>91.0</ele><time>2026-04-26T14:31:42.001Z</time></trkpt><trkpt lat="45.3895353206092" lon="10.660068469256059"><ele>91.0</ele><time>2026-04-26T14:31:43.001Z</time></trkpt><trkpt lat="45.38951061011118" lon="10.659785871462228"><ele>91.0</ele><time>2026-04-26T14:31:44.001Z</time></trkpt><trkpt lat="45.3894681582709" lon="10.659504192526235"><ele>91.0</ele><time>2026-04-26T14:31:45.001Z</time></trkpt><trkpt lat="45.38940355999208" lon="10.659255389350564"><ele>91.5</ele><time>2026-04-26T14:31:46.001Z</time></trkpt><trkpt lat="45.38931962360683" lon="10.659075438205099"><ele>92.0</ele><time>2026-04-26T14:31:47.001Z</time></trkpt><trkpt lat="45.38927158237253" lon="10.658903957276666"><ele>92.5</ele><time>2026-04-26T14:31:48.001Z</time></trkpt><trkpt lat="45.38921977223172" lon="10.658770071944007"><ele>93.0</ele><time>2026-04-26T14:31:49.001Z</time></trkpt><trkpt lat="45.389167024705515" lon="10.658635945793307"><ele>93.0</ele><time>2026-04-26T14:31:50.001Z</time></trkpt><trkpt lat="45.38902213872552" lon="10.65862399631581"><ele>93.0</ele><time>2026-04-26T14:31:53.001Z</time></trkpt><trkpt lat="45.388910586766194" lon="10.658578268129437"><ele>93.0</ele><time>2026-04-26T14:31:55.001Z</time></trkpt><trkpt lat="45.38883704702164" lon="10.658530923788094"><ele>93.0</ele><time>2026-04-26T14:31:56.001Z</time></trkpt><trkpt lat="45.38877903897104" lon="10.658480263933352"><ele>93.0</ele><time>2026-04-26T14:31:57.001Z</time></trkpt><trkpt lat="45.38872227907825" lon="10.658422598557458"><ele>92.5</ele><time>2026-04-26T14:31:58.001Z</time></trkpt><trkpt lat="45.388655314272484" lon="10.65835184816548"><ele>92.0</ele><time>2026-04-26T14:31:59.001Z</time></trkpt><trkpt lat="45.38858637042475" lon="10.658276796501417"><ele>91.5</ele><time>2026-04-26T14:32:00.001Z</time></trkpt><trkpt lat="45.3884962136736" lon="10.658218275818168"><ele>91.0</ele><time>2026-04-26T14:32:01.001Z</time></trkpt><trkpt lat="45.388437640958145" lon="10.658139792259405"><ele>90.5</ele><time>2026-04-26T14:32:02.001Z</time></trkpt><trkpt lat="45.38838057286751" lon="10.65808787166427"><ele>90.0</ele><time>2026-04-26T14:32:03.001Z</time></trkpt><trkpt lat="45.38829528800135" lon="10.657973351343262"><ele>90.0</ele><time>2026-04-26T14:32:05.001Z</time></trkpt><trkpt lat="45.38829148526193" lon="10.657835497677826"><ele>90.0</ele><time>2026-04-26T14:32:07.002Z</time></trkpt><trkpt lat="45.388300493495024" lon="10.657725718793683"><ele>90.0</ele><time>2026-04-26T14:32:08.002Z</time></trkpt><trkpt lat="45.388292395684324" lon="10.657596370184033"><ele>90.0</ele><time>2026-04-26T14:32:09.002Z</time></trkpt><trkpt lat="45.38830691098206" lon="10.657464055911229"><ele>90.0</ele><time>2026-04-26T14:32:10.002Z</time></trkpt><trkpt lat="45.38830979666021" lon="10.657336014996355"><ele>90.0</ele><time>2026-04-26T14:32:11.002Z</time></trkpt><trkpt lat="45.38833062600388" lon="10.657208820767984"><ele>90.0</ele><time>2026-04-26T14:32:12.002Z</time></trkpt><trkpt lat="45.38832576788264" lon="10.65707611469549"><ele>90.0</ele><time>2026-04-26T14:32:13.002Z</time></trkpt><trkpt lat="45.38833499361342" lon="10.65696634878195"><ele>90.0</ele><time>2026-04-26T14:32:14.002Z</time></trkpt><trkpt lat="45.388343817180036" lon="10.656841485823042"><ele>90.0</ele><time>2026-04-26T14:32:15.002Z</time></trkpt><trkpt lat="45.38834876263847" lon="10.656726239353894"><ele>90.0</ele><time>2026-04-26T14:32:16.002Z</time></trkpt><trkpt lat="45.388354583061826" lon="10.656608087229626"><ele>90.5</ele><time>2026-04-26T14:32:17.002Z</time></trkpt><trkpt lat="45.3883569048997" lon="10.656505106167305"><ele>91.0</ele><time>2026-04-26T14:32:18.002Z</time></trkpt><trkpt lat="45.38836343260532" lon="10.656407010702038"><ele>91.5</ele><time>2026-04-26T14:32:19Z</time></trkpt><trkpt lat="45.388371433194195" lon="10.65630589281935"><ele>92.0</ele><time>2026-04-26T14:32:20Z</time></trkpt><trkpt lat="45.38838166406502" lon="10.65614161418175"><ele>92.5</ele><time>2026-04-26T14:32:22Z</time></trkpt><trkpt lat="45.38838532685821" lon="10.656001044035369"><ele>93.0</ele><time>2026-04-26T14:32:24Z</time></trkpt><trkpt lat="45.3883926859782" lon="10.655852429626478"><ele>93.60000000000001</ele><time>2026-04-26T14:32:26Z</time></trkpt><trkpt lat="45.38840406024738" lon="10.65571318160284"><ele>94.2</ele><time>2026-04-26T14:32:28Z</time></trkpt><trkpt lat="45.388401658500506" lon="10.655573857916883"><ele>94.8</ele><time>2026-04-26T14:32:30Z</time></trkpt><trkpt lat="45.38839513533816" lon="10.655428664769994"><ele>95.4</ele><time>2026-04-26T14:32:32Z</time></trkpt><trkpt lat="45.38837426055853" lon="10.65525529047238"><ele>96.0</ele><time>2026-04-26T14:32:34Z</time></trkpt><trkpt lat="45.38835042881672" lon="10.655166185076219"><ele>96.4</ele><time>2026-04-26T14:32:35Z</time></trkpt><trkpt lat="45.38826631141402" lon="10.655040097984953"><ele>96.8</ele><time>2026-04-26T14:32:37Z</time></trkpt><trkpt lat="45.38820069179687" lon="10.654976493319145"><ele>97.2</ele><time>2026-04-26T14:32:39Z</time></trkpt><trkpt lat="45.388101292430584" lon="10.654873767896278"><ele>97.60000000000001</ele><time>2026-04-26T14:32:41Z</time></trkpt><trkpt lat="45.38800846405977" lon="10.654785432495414"><ele>98.0</ele><time>2026-04-26T14:32:43Z</time></trkpt><trkpt lat="45.387899921758645" lon="10.654718901470886"><ele>97.83333333333333</ele><time>2026-04-26T14:32:45Z</time></trkpt><trkpt lat="45.3878108001992" lon="10.654670359631295"><ele>97.66666666666666</ele><time>2026-04-26T14:32:47Z</time></trkpt><trkpt lat="45.38775641612436" lon="10.65462306906941"><ele>97.5</ele><time>2026-04-26T14:32:48Z</time></trkpt><trkpt lat="45.38769667108809" lon="10.654584199932408"><ele>97.33333333333334</ele><time>2026-04-26T14:32:49Z</time></trkpt><trkpt lat="45.38760083053156" lon="10.654525112140817"><ele>97.16666666666667</ele><time>2026-04-26T14:32:51Z</time></trkpt><trkpt lat="45.38752209781084" lon="10.654465390689106"><ele>97.0</ele><time>2026-04-26T14:32:53Z</time></trkpt><trkpt lat="45.38744156650159" lon="10.654372577281698"><ele>97.00000000000001</ele><time>2026-04-26T14:32:55Z</time></trkpt><trkpt lat="45.38739541997427" lon="10.6542807948336"><ele>97.0</ele><time>2026-04-26T14:32:57Z</time></trkpt><trkpt lat="45.38734732307348" lon="10.654161291798113"><ele>97.0</ele><time>2026-04-26T14:32:59Z</time></trkpt><trkpt lat="45.38730845009862" lon="10.654038740790552"><ele>97.0</ele><time>2026-04-26T14:33:01.001Z</time></trkpt><trkpt lat="45.38726847878104" lon="10.65389136373941"><ele>97.00000000000001</ele><time>2026-04-26T14:33:03.001Z</time></trkpt><trkpt lat="45.38725034644805" lon="10.653805061418826"><ele>97.0</ele><time>2026-04-26T14:33:04.001Z</time></trkpt><trkpt lat="45.38722196143505" lon="10.653662940136954"><ele>96.50000000000001</ele><time>2026-04-26T14:33:06.001Z</time></trkpt><trkpt lat="45.387194209527316" lon="10.65352894318011"><ele>96.0</ele><time>2026-04-26T14:33:08.001Z</time></trkpt><trkpt lat="45.38714747694424" lon="10.653385654790512"><ele>95.5</ele><time>2026-04-26T14:33:10.001Z</time></trkpt><trkpt lat="45.38712948231278" lon="10.653279531982356"><ele>95.0</ele><time>2026-04-26T14:33:11.001Z</time></trkpt><trkpt lat="45.387112439400035" lon="10.65318006002975"><ele>94.5</ele><time>2026-04-26T14:33:12.001Z</time></trkpt><trkpt lat="45.38709287664025" lon="10.653088193385491"><ele>94.0</ele><time>2026-04-26T14:33:13.001Z</time></trkpt><trkpt lat="45.38708243447865" lon="10.652993625702964"><ele>94.66666666666666</ele><time>2026-04-26T14:33:14.001Z</time></trkpt><trkpt lat="45.38706378776365" lon="10.652900205405064"><ele>95.33333333333333</ele><time>2026-04-26T14:33:15.001Z</time></trkpt><trkpt lat="45.387050087223564" lon="10.65280422925094"><ele>96.0</ele><time>2026-04-26T14:33:16.001Z</time></trkpt><trkpt lat="45.3870374861718" lon="10.652706818421498"><ele>96.66666666666666</ele><time>2026-04-26T14:33:17.001Z</time></trkpt><trkpt lat="45.387040019684264" lon="10.652614425451594"><ele>97.33333333333333</ele><time>2026-04-26T14:33:18.001Z</time></trkpt><trkpt lat="45.387028495736416" lon="10.652520246993106"><ele>98.0</ele><time>2026-04-26T14:33:19.001Z</time></trkpt><trkpt lat="45.38699328533018" lon="10.652348148119621"><ele>98.0</ele><time>2026-04-26T14:33:21.001Z</time></trkpt><trkpt lat="45.38697838856109" lon="10.65218271621283"><ele>98.0</ele><time>2026-04-26T14:33:23.001Z</time></trkpt><trkpt lat="45.386949758007965" lon="10.65202622669176"><ele>98.0</ele><time>2026-04-26T14:33:25.001Z</time></trkpt><trkpt lat="45.386925524130774" lon="10.651866761168241"><ele>98.0</ele><time>2026-04-26T14:33:27.001Z</time></trkpt><trkpt lat="45.3868979530902" lon="10.6517055041891"><ele>98.2</ele><time>2026-04-26T14:33:29.001Z</time></trkpt><trkpt lat="45.3868959428579" lon="10.651615605944867"><ele>98.4</ele><time>2026-04-26T14:33:30.001Z</time></trkpt><trkpt lat="45.386891613424154" lon="10.651464636186743"><ele>98.60000000000001</ele><time>2026-04-26T14:33:32.001Z</time></trkpt><trkpt lat="45.38689294301853" lon="10.651334151171804"><ele>98.80000000000001</ele><time>2026-04-26T14:33:34.001Z</time></trkpt><trkpt lat="45.38687726751864" lon="10.651217568494058"><ele>99.0</ele><time>2026-04-26T14:33:36.001Z</time></trkpt><trkpt lat="45.386782878239856" lon="10.651139979891136"><ele>100.16666666666667</ele><time>2026-04-26T14:33:38.001Z</time></trkpt><trkpt lat="45.386693771293366" lon="10.65109178591341"><ele>101.33333333333334</ele><time>2026-04-26T14:33:40.001Z</time></trkpt><trkpt lat="45.38660260462456" lon="10.65104493681433"><ele>102.5</ele><time>2026-04-26T14:33:42.001Z</time></trkpt><trkpt lat="45.3865260595829" lon="10.650980995749414"><ele>103.66666666666667</ele><time>2026-04-26T14:33:44.001Z</time></trkpt><trkpt lat="45.38647377122025" lon="10.650906843432466"><ele>104.83333333333334</ele><time>2026-04-26T14:33:46.001Z</time></trkpt><trkpt lat="45.38653331428738" lon="10.650996236196573"><ele>106.0</ele><time>2026-04-26T14:34:03.001Z</time></trkpt><trkpt lat="45.386599181568904" lon="10.651044186624585"><ele>106.0</ele><time>2026-04-26T14:34:05.001Z</time></trkpt><trkpt lat="45.38667485493676" lon="10.651086498880739"><ele>106.0</ele><time>2026-04-26T14:34:08.002Z</time></trkpt><trkpt lat="45.386743649696264" lon="10.651124681089522"><ele>106.0</ele><time>2026-04-26T14:34:10.002Z</time></trkpt><trkpt lat="45.386825282098336" lon="10.651167478250525"><ele>106.0</ele><time>2026-04-26T14:34:13.002Z</time></trkpt><trkpt lat="45.38690178539479" lon="10.651248759160913"><ele>106.0</ele><time>2026-04-26T14:34:16.002Z</time></trkpt><trkpt lat="45.386868206482355" lon="10.651526441760987"><ele>104.6</ele><time>2026-04-26T14:34:20.002Z</time></trkpt><trkpt lat="45.38687191458723" lon="10.651650303981452"><ele>103.19999999999999</ele><time>2026-04-26T14:34:22.002Z</time></trkpt><trkpt lat="45.38687974059377" lon="10.651776669373021"><ele>101.80000000000001</ele><time>2026-04-26T14:34:24.002Z</time></trkpt><trkpt lat="45.386894892472114" lon="10.65197915611447"><ele>100.4</ele><time>2026-04-26T14:34:26Z</time></trkpt><trkpt lat="45.38691575763801" lon="10.652111769590759"><ele>99.0</ele><time>2026-04-26T14:34:27Z</time></trkpt><trkpt lat="45.38696109980204" lon="10.652309738314374"><ele>98.75</ele><time>2026-04-26T14:34:28Z</time></trkpt><trkpt lat="45.38700013226912" lon="10.652557840807086"><ele>98.5</ele><time>2026-04-26T14:34:29Z</time></trkpt><trkpt lat="45.38702646486779" lon="10.652760895093955"><ele>98.25</ele><time>2026-04-26T14:34:30Z</time></trkpt><trkpt lat="45.38704632006568" lon="10.6529218307432"><ele>98.0</ele><time>2026-04-26T14:34:31Z</time></trkpt><trkpt lat="45.38706849194511" lon="10.653064944895698"><ele>97.80000000000001</ele><time>2026-04-26T14:34:32Z</time></trkpt><trkpt lat="45.38708530022923" lon="10.653186561805839"><ele>97.6</ele><time>2026-04-26T14:34:33Z</time></trkpt><trkpt lat="45.38712748853666" lon="10.65335731072132"><ele>97.4</ele><time>2026-04-26T14:34:35Z</time></trkpt><trkpt lat="45.387147696380076" lon="10.653466484125921"><ele>97.19999999999999</ele><time>2026-04-26T14:34:36Z</time></trkpt><trkpt lat="45.387164947410355" lon="10.653576252004594"><ele>97.0</ele><time>2026-04-26T14:34:37Z</time></trkpt><trkpt lat="45.38718304422053" lon="10.653691627736901"><ele>97.00000000000001</ele><time>2026-04-26T14:34:38Z</time></trkpt><trkpt lat="45.387212586428674" lon="10.653815450240959"><ele>97.0</ele><time>2026-04-26T14:34:39Z</time></trkpt><trkpt lat="45.3872383616279" lon="10.653925618712845"><ele>97.0</ele><time>2026-04-26T14:34:40Z</time></trkpt><trkpt lat="45.38726128507972" lon="10.654042687434929"><ele>97.0</ele><time>2026-04-26T14:34:41Z</time></trkpt><trkpt lat="45.38729575382087" lon="10.654143096859828"><ele>97.00000000000001</ele><time>2026-04-26T14:34:42Z</time></trkpt><trkpt lat="45.38731110487662" lon="10.654230424356793"><ele>97.0</ele><time>2026-04-26T14:34:43Z</time></trkpt><trkpt lat="45.38735636671758" lon="10.654333408179493"><ele>97.0</ele><time>2026-04-26T14:34:45Z</time></trkpt><trkpt lat="45.38740666984329" lon="10.654399437198641"><ele>97.0</ele><time>2026-04-26T14:34:48Z</time></trkpt><trkpt lat="45.38748434623904" lon="10.654479965049944"><ele>97.0</ele><time>2026-04-26T14:35:31.001Z</time></trkpt><trkpt lat="45.387552227233705" lon="10.65454567665893"><ele>97.0</ele><time>2026-04-26T14:35:33.001Z</time></trkpt><trkpt lat="45.3876645041878" lon="10.654593711312726"><ele>97.0</ele><time>2026-04-26T14:35:35.001Z</time></trkpt><trkpt lat="45.38776244391842" lon="10.6546809943247"><ele>97.19999999999999</ele><time>2026-04-26T14:35:37.001Z</time></trkpt><trkpt lat="45.387840079875325" lon="10.654727297714636"><ele>97.4</ele><time>2026-04-26T14:35:39.001Z</time></trkpt><trkpt lat="45.387922824289504" lon="10.654776647797487"><ele>97.6</ele><time>2026-04-26T14:35:41.001Z</time></trkpt><trkpt lat="45.388033370365626" lon="10.654862497428484"><ele>97.80000000000001</ele><time>2026-04-26T14:35:43.001Z</time></trkpt><trkpt lat="45.38813957103835" lon="10.654974030775245"><ele>98.0</ele><time>2026-04-26T14:35:45.001Z</time></trkpt><trkpt lat="45.38824537238121" lon="10.65505117445246"><ele>97.99999999999999</ele><time>2026-04-26T14:35:47.001Z</time></trkpt><trkpt lat="45.38828740816226" lon="10.655126228224695"><ele>98.0</ele><time>2026-04-26T14:35:48.001Z</time></trkpt><trkpt lat="45.38835298431459" lon="10.655257459258102"><ele>98.0</ele><time>2026-04-26T14:35:50.001Z</time></trkpt><trkpt lat="45.38836729347808" lon="10.655351425003554"><ele>98.0</ele><time>2026-04-26T14:35:51.001Z</time></trkpt><trkpt lat="45.388373376918075" lon="10.655441274330233"><ele>97.99999999999999</ele><time>2026-04-26T14:35:52.001Z</time></trkpt><trkpt lat="45.38837532420689" lon="10.655532935145164"><ele>98.0</ele><time>2026-04-26T14:35:53.001Z</time></trkpt><trkpt lat="45.388376273667106" lon="10.655696272706255"><ele>97.66666666666666</ele><time>2026-04-26T14:35:55.001Z</time></trkpt><trkpt lat="45.38837290127592" lon="10.655804523318862"><ele>97.33333333333333</ele><time>2026-04-26T14:35:56.001Z</time></trkpt><trkpt lat="45.38836391799807" lon="10.655921285265787"><ele>97.0</ele><time>2026-04-26T14:35:57.001Z</time></trkpt><trkpt lat="45.38836178848367" lon="10.656038363214492"><ele>96.66666666666666</ele><time>2026-04-26T14:35:58.001Z</time></trkpt><trkpt lat="45.388359552963855" lon="10.656188217730381"><ele>96.33333333333333</ele><time>2026-04-26T14:35:59.001Z</time></trkpt><trkpt lat="45.38835338845574" lon="10.656329370626404"><ele>96.0</ele><time>2026-04-26T14:36:00.001Z</time></trkpt><trkpt lat="45.388342143899195" lon="10.656497316547703"><ele>95.25</ele><time>2026-04-26T14:36:01.001Z</time></trkpt><trkpt lat="45.38832590582926" lon="10.656672184461163"><ele>94.5</ele><time>2026-04-26T14:36:02.001Z</time></trkpt><trkpt lat="45.38831705200658" lon="10.65686004007983"><ele>93.75</ele><time>2026-04-26T14:36:03.001Z</time></trkpt><trkpt lat="45.38831176753427" lon="10.657054894185459"><ele>93.0</ele><time>2026-04-26T14:36:04.001Z</time></trkpt><trkpt lat="45.388303472552685" lon="10.657251336768818"><ele>92.4</ele><time>2026-04-26T14:36:05.001Z</time></trkpt><trkpt lat="45.38829324990377" lon="10.65741420651014"><ele>91.80000000000001</ele><time>2026-04-26T14:36:06.001Z</time></trkpt><trkpt lat="45.388280528012714" lon="10.657559027231196"><ele>91.2</ele><time>2026-04-26T14:36:07.001Z</time></trkpt><trkpt lat="45.38826880470642" lon="10.657683128637238"><ele>90.6</ele><time>2026-04-26T14:36:08.001Z</time></trkpt><trkpt lat="45.38826236197921" lon="10.657797231241918"><ele>90.0</ele><time>2026-04-26T14:36:09.001Z</time></trkpt><trkpt lat="45.38825531746682" lon="10.657900461767689"><ele>90.0</ele><time>2026-04-26T14:36:10.001Z</time></trkpt><trkpt lat="45.38829696893203" lon="10.658062948249096"><ele>90.0</ele><time>2026-04-26T14:36:12.001Z</time></trkpt><trkpt lat="45.38839814341203" lon="10.658155213025685"><ele>90.0</ele><time>2026-04-26T14:36:14.001Z</time></trkpt><trkpt lat="45.38846071276432" lon="10.658212184740552"><ele>90.0</ele><time>2026-04-26T14:36:15.001Z</time></trkpt><trkpt lat="45.38853834357109" lon="10.658287142448645"><ele>90.0</ele><time>2026-04-26T14:36:16.001Z</time></trkpt><trkpt lat="45.38863256075537" lon="10.658382193113631"><ele>90.0</ele><time>2026-04-26T14:36:17.001Z</time></trkpt><trkpt lat="45.388728213645116" lon="10.658485600937002"><ele>90.0</ele><time>2026-04-26T14:36:18.001Z</time></trkpt><trkpt lat="45.38880926174587" lon="10.658563488372994"><ele>90.0</ele><time>2026-04-26T14:36:19.001Z</time></trkpt><trkpt lat="45.388879782170974" lon="10.658614932511416"><ele>90.0</ele><time>2026-04-26T14:36:20.001Z</time></trkpt><trkpt lat="45.38895149517248" lon="10.658643018176988"><ele>90.0</ele><time>2026-04-26T14:36:21.001Z</time></trkpt><trkpt lat="45.38904472172685" lon="10.658661560150586"><ele>90.5</ele><time>2026-04-26T14:36:23.001Z</time></trkpt><trkpt lat="45.389106725453615" lon="10.658643599503073"><ele>91.0</ele><time>2026-04-26T14:36:27.001Z</time></trkpt><trkpt lat="45.38908301443228" lon="10.658406639365385"><ele>91.5</ele><time>2026-04-26T14:36:28.001Z</time></trkpt><trkpt lat="45.38904221399533" lon="10.658271340807152"><ele>92.0</ele><time>2026-04-26T14:36:29.001Z</time></trkpt><trkpt lat="45.389008237875984" lon="10.65811339165954"><ele>92.0</ele><time>2026-04-26T14:36:30Z</time></trkpt><trkpt lat="45.3889857590803" lon="10.657956799118468"><ele>92.0</ele><time>2026-04-26T14:36:31Z</time></trkpt><trkpt lat="45.388972225349455" lon="10.657784031743946"><ele>92.0</ele><time>2026-04-26T14:36:32Z</time></trkpt><trkpt lat="45.38895212649835" lon="10.657586812490212"><ele>92.0</ele><time>2026-04-26T14:36:33Z</time></trkpt><trkpt lat="45.38892836325038" lon="10.657366457311356"><ele>93.33333333333334</ele><time>2026-04-26T14:36:34Z</time></trkpt><trkpt lat="45.388903588070946" lon="10.657150363130997"><ele>94.66666666666667</ele><time>2026-04-26T14:36:35Z</time></trkpt><trkpt lat="45.38887722118167" lon="10.6569329196478"><ele>96.0</ele><time>2026-04-26T14:36:36Z</time></trkpt><trkpt lat="45.388847854159984" lon="10.65670637941844"><ele>96.0</ele><time>2026-04-26T14:36:37Z</time></trkpt><trkpt lat="45.38883099981166" lon="10.656453200977055"><ele>96.0</ele><time>2026-04-26T14:36:38Z</time></trkpt><trkpt lat="45.38879877990958" lon="10.656213672423377"><ele>96.0</ele><time>2026-04-26T14:36:39Z</time></trkpt><trkpt lat="45.38876486712424" lon="10.655961558678046"><ele>96.0</ele><time>2026-04-26T14:36:40Z</time></trkpt><trkpt lat="45.388734835321884" lon="10.655724863172116"><ele>96.0</ele><time>2026-04-26T14:36:41Z</time></trkpt><trkpt lat="45.38870627249461" lon="10.65549215567481"><ele>96.0</ele><time>2026-04-26T14:36:42Z</time></trkpt><trkpt lat="45.388678599251904" lon="10.65526669584152"><ele>96.66666666666666</ele><time>2026-04-26T14:36:43Z</time></trkpt><trkpt lat="45.38864566207549" lon="10.655033873883772"><ele>97.33333333333333</ele><time>2026-04-26T14:36:44Z</time></trkpt><trkpt lat="45.38861400846823" lon="10.65480494668382"><ele>98.0</ele><time>2026-04-26T14:36:45Z</time></trkpt><trkpt lat="45.38858976610066" lon="10.654582062222065"><ele>97.75</ele><time>2026-04-26T14:36:46Z</time></trkpt><trkpt lat="45.38857629017604" lon="10.654391347836102"><ele>97.5</ele><time>2026-04-26T14:36:47Z</time></trkpt><trkpt lat="45.38858732360337" lon="10.65420186123492"><ele>97.25</ele><time>2026-04-26T14:36:48Z</time></trkpt><trkpt lat="45.38864292159023" lon="10.654009672236489"><ele>97.0</ele><time>2026-04-26T14:36:49Z</time></trkpt><trkpt lat="45.38874110398403" lon="10.653818027423899"><ele>99.0</ele><time>2026-04-26T14:36:50Z</time></trkpt><trkpt lat="45.38885675390913" lon="10.653620891655772"><ele>101.0</ele><time>2026-04-26T14:36:51Z</time></trkpt><trkpt lat="45.38898372036731" lon="10.653419521864139"><ele>103.0</ele><time>2026-04-26T14:36:52Z</time></trkpt><trkpt lat="45.38910041354107" lon="10.65319355095372"><ele>103.0</ele><time>2026-04-26T14:36:53Z</time></trkpt><trkpt lat="45.389206708424" lon="10.652938323541349"><ele>103.0</ele><time>2026-04-26T14:36:54Z</time></trkpt><trkpt lat="45.38929175658156" lon="10.652657563337174"><ele>103.0</ele><time>2026-04-26T14:36:55Z</time></trkpt><trkpt lat="45.38937282044921" lon="10.652366927968455"><ele>102.33333333333334</ele><time>2026-04-26T14:36:56Z</time></trkpt><trkpt lat="45.38945772248914" lon="10.65206958321793"><ele>101.66666666666666</ele><time>2026-04-26T14:36:57Z</time></trkpt><trkpt lat="45.38953349909711" lon="10.651790686195193"><ele>101.0</ele><time>2026-04-26T14:36:58Z</time></trkpt><trkpt lat="45.389560451638545" lon="10.651495605591515"><ele>100.33333333333333</ele><time>2026-04-26T14:36:59Z</time></trkpt><trkpt lat="45.38955805388815" lon="10.65119183935449"><ele>99.66666666666666</ele><time>2026-04-26T14:37:00Z</time></trkpt><trkpt lat="45.38958953588474" lon="10.650890384179535"><ele>99.0</ele><time>2026-04-26T14:37:01Z</time></trkpt><trkpt lat="45.389620794226666" lon="10.65058857635415"><ele>99.0</ele><time>2026-04-26T14:37:02Z</time></trkpt><trkpt lat="45.3896658105107" lon="10.650292033957522"><ele>99.0</ele><time>2026-04-26T14:37:03Z</time></trkpt><trkpt lat="45.389712764193334" lon="10.65002234311467"><ele>99.0</ele><time>2026-04-26T14:37:04Z</time></trkpt><trkpt lat="45.38976284028666" lon="10.649744561742038"><ele>99.0</ele><time>2026-04-26T14:37:05Z</time></trkpt><trkpt lat="45.389811035405465" lon="10.649498529519033"><ele>99.0</ele><time>2026-04-26T14:37:06Z</time></trkpt><trkpt lat="45.389862540504936" lon="10.649274151090442"><ele>99.0</ele><time>2026-04-26T14:37:07Z</time></trkpt><trkpt lat="45.3899188683382" lon="10.649058404212019"><ele>98.75</ele><time>2026-04-26T14:37:08Z</time></trkpt><trkpt lat="45.38997071975617" lon="10.648865817330172"><ele>98.5</ele><time>2026-04-26T14:37:09Z</time></trkpt><trkpt lat="45.390007151238834" lon="10.6486778637015"><ele>98.25</ele><time>2026-04-26T14:37:10Z</time></trkpt><trkpt lat="45.390053648339425" lon="10.6485010414103"><ele>98.0</ele><time>2026-04-26T14:37:11Z</time></trkpt><trkpt lat="45.390101816430565" lon="10.648324762918156"><ele>97.75</ele><time>2026-04-26T14:37:12Z</time></trkpt><trkpt lat="45.39015205092933" lon="10.648135682751132"><ele>97.5</ele><time>2026-04-26T14:37:13Z</time></trkpt><trkpt lat="45.39020647081898" lon="10.64795426946989"><ele>97.25</ele><time>2026-04-26T14:37:14Z</time></trkpt><trkpt lat="45.39025417041833" lon="10.647764361549786"><ele>97.0</ele><time>2026-04-26T14:37:15Z</time></trkpt><trkpt lat="45.39030661198913" lon="10.64757692284027"><ele>97.0</ele><time>2026-04-26T14:37:16Z</time></trkpt><trkpt lat="45.390358144283084" lon="10.647391294456941"><ele>97.0</ele><time>2026-04-26T14:37:17Z</time></trkpt><trkpt lat="45.39041042029824" lon="10.647202330566182"><ele>97.0</ele><time>2026-04-26T14:37:18Z</time></trkpt><trkpt lat="45.39046023344986" lon="10.647010643593411"><ele>97.0</ele><time>2026-04-26T14:37:19Z</time></trkpt><trkpt lat="45.39051000125901" lon="10.646814479725581"><ele>98.66666666666667</ele><time>2026-04-26T14:37:20Z</time></trkpt><trkpt lat="45.390563320911575" lon="10.64660702099076"><ele>100.33333333333334</ele><time>2026-04-26T14:37:21Z</time></trkpt><trkpt lat="45.39062008602589" lon="10.646409023008287"><ele>102.0</ele><time>2026-04-26T14:37:22Z</time></trkpt><trkpt lat="45.39067338038946" lon="10.646203346605576"><ele>101.66666666666666</ele><time>2026-04-26T14:37:23Z</time></trkpt><trkpt lat="45.390731597006926" lon="10.645997148337008"><ele>101.33333333333333</ele><time>2026-04-26T14:37:24Z</time></trkpt><trkpt lat="45.39078866711816" lon="10.645786995619194"><ele>101.0</ele><time>2026-04-26T14:37:25Z</time></trkpt><trkpt lat="45.390846376332334" lon="10.645576277627256"><ele>101.0</ele><time>2026-04-26T14:37:26Z</time></trkpt><trkpt lat="45.390889471922925" lon="10.645359890768196"><ele>101.0</ele><time>2026-04-26T14:37:27Z</time></trkpt><trkpt lat="45.390904942405484" lon="10.64513244590789"><ele>101.0</ele><time>2026-04-26T14:37:28Z</time></trkpt><trkpt lat="45.39089508712041" lon="10.644911846928327"><ele>101.5</ele><time>2026-04-26T14:37:29Z</time></trkpt><trkpt lat="45.39087129837305" lon="10.644698728238698"><ele>102.0</ele><time>2026-04-26T14:37:30Z</time></trkpt><trkpt lat="45.390832034609815" lon="10.644509706622113"><ele>102.5</ele><time>2026-04-26T14:37:31Z</time></trkpt><trkpt lat="45.390772514220835" lon="10.644351179122198"><ele>103.0</ele><time>2026-04-26T14:37:32.001Z</time></trkpt><trkpt lat="45.390686095090885" lon="10.644237275241803"><ele>103.16666666666667</ele><time>2026-04-26T14:37:33.001Z</time></trkpt><trkpt lat="45.390590712919185" lon="10.644166817315023"><ele>103.33333333333334</ele><time>2026-04-26T14:37:34.001Z</time></trkpt><trkpt lat="45.39050094030924" lon="10.644121647231962"><ele>103.5</ele><time>2026-04-26T14:37:35.001Z</time></trkpt><trkpt lat="45.39041750539376" lon="10.644080716989322"><ele>103.66666666666666</ele><time>2026-04-26T14:37:36.001Z</time></trkpt><trkpt lat="45.390348004783746" lon="10.644051151084922"><ele>103.83333333333333</ele><time>2026-04-26T14:37:37.001Z</time></trkpt><trkpt lat="45.39028293202005" lon="10.644013949102915"><ele>104.0</ele><time>2026-04-26T14:37:38.001Z</time></trkpt><trkpt lat="45.39017933925554" lon="10.643936155695338"><ele>104.0</ele><time>2026-04-26T14:37:40.001Z</time></trkpt><trkpt lat="45.390101310437615" lon="10.643919019632685"><ele>104.0</ele><time>2026-04-26T14:37:41.001Z</time></trkpt><trkpt lat="45.39000551099353" lon="10.643909954601558"><ele>104.0</ele><time>2026-04-26T14:37:42.001Z</time></trkpt><trkpt lat="45.38989466221776" lon="10.643891816137508"><ele>104.0</ele><time>2026-04-26T14:37:43.001Z</time></trkpt><trkpt lat="45.38976534929533" lon="10.6438571412898"><ele>104.0</ele><time>2026-04-26T14:37:44.001Z</time></trkpt><trkpt lat="45.38964124424467" lon="10.643813011835828"><ele>104.0</ele><time>2026-04-26T14:37:45.001Z</time></trkpt><trkpt lat="45.38953238889933" lon="10.643772995276862"><ele>104.0</ele><time>2026-04-26T14:37:46.001Z</time></trkpt><trkpt lat="45.38942779723297" lon="10.643731853263843"><ele>104.0</ele><time>2026-04-26T14:37:47.001Z</time></trkpt><trkpt lat="45.38931163159633" lon="10.643689809086839"><ele>104.0</ele><time>2026-04-26T14:37:48.001Z</time></trkpt><trkpt lat="45.38918347171251" lon="10.643643128493364"><ele>104.5</ele><time>2026-04-26T14:37:49.001Z</time></trkpt><trkpt lat="45.389053978815625" lon="10.643602701806216"><ele>105.0</ele><time>2026-04-26T14:37:50.001Z</time></trkpt><trkpt lat="45.38892657373645" lon="10.643558521311302"><ele>105.5</ele><time>2026-04-26T14:37:51.001Z</time></trkpt><trkpt lat="45.38880570412832" lon="10.643513907021894"><ele>106.0</ele><time>2026-04-26T14:37:52.001Z</time></trkpt><trkpt lat="45.38868639702524" lon="10.643467273447682"><ele>106.0</ele><time>2026-04-26T14:37:53.001Z</time></trkpt><trkpt lat="45.38857373551438" lon="10.64342346925398"><ele>106.0</ele><time>2026-04-26T14:37:54.001Z</time></trkpt><trkpt lat="45.38846840720884" lon="10.643377823895493"><ele>106.0</ele><time>2026-04-26T14:37:55.001Z</time></trkpt><trkpt lat="45.38836723828876" lon="10.64333869624118"><ele>106.0</ele><time>2026-04-26T14:37:56.001Z</time></trkpt><trkpt lat="45.3882676305175" lon="10.643286044395033"><ele>106.0</ele><time>2026-04-26T14:37:57.001Z</time></trkpt><trkpt lat="45.388170304035775" lon="10.64323592040389"><ele>106.0</ele><time>2026-04-26T14:37:58.001Z</time></trkpt><trkpt lat="45.38807162372017" lon="10.643187179610134"><ele>106.0</ele><time>2026-04-26T14:37:59.001Z</time></trkpt><trkpt lat="45.38797295041292" lon="10.64313923383096"><ele>106.0</ele><time>2026-04-26T14:38:00.001Z</time></trkpt><trkpt lat="45.38787465782289" lon="10.643090275242148"><ele>106.0</ele><time>2026-04-26T14:38:01.001Z</time></trkpt><trkpt lat="45.38778035594363" lon="10.643044531815606"><ele>106.0</ele><time>2026-04-26T14:38:02.001Z</time></trkpt><trkpt lat="45.38768341373007" lon="10.642997042073938"><ele>106.0</ele><time>2026-04-26T14:38:03.001Z</time></trkpt><trkpt lat="45.387582354377265" lon="10.642949955408564"><ele>106.0</ele><time>2026-04-26T14:38:04.001Z</time></trkpt><trkpt lat="45.387480275147446" lon="10.642900904983295"><ele>106.0</ele><time>2026-04-26T14:38:05.001Z</time></trkpt><trkpt lat="45.387376852440354" lon="10.642845044999493"><ele>106.0</ele><time>2026-04-26T14:38:06.001Z</time></trkpt><trkpt lat="45.387268880467424" lon="10.642792102768816"><ele>106.0</ele><time>2026-04-26T14:38:07.001Z</time></trkpt><trkpt lat="45.3871730084816" lon="10.642717452476344"><ele>106.0</ele><time>2026-04-26T14:38:08.001Z</time></trkpt><trkpt lat="45.38706364070078" lon="10.642658065740351"><ele>106.0</ele><time>2026-04-26T14:38:09.001Z</time></trkpt><trkpt lat="45.38695097186268" lon="10.642620007766746"><ele>106.0</ele><time>2026-04-26T14:38:10.001Z</time></trkpt><trkpt lat="45.386841141477504" lon="10.642557620202291"><ele>106.0</ele><time>2026-04-26T14:38:11.001Z</time></trkpt><trkpt lat="45.386723782322115" lon="10.642498034214753"><ele>106.0</ele><time>2026-04-26T14:38:12.001Z</time></trkpt><trkpt lat="45.38660858874775" lon="10.642438648631343"><ele>106.0</ele><time>2026-04-26T14:38:13.001Z</time></trkpt><trkpt lat="45.38649463941835" lon="10.642375277242996"><ele>106.0</ele><time>2026-04-26T14:38:14.001Z</time></trkpt><trkpt lat="45.386409130301836" lon="10.642324214453527"><ele>106.0</ele><time>2026-04-26T14:38:15.001Z</time></trkpt><trkpt lat="45.386335976287846" lon="10.642292957557578"><ele>106.0</ele><time>2026-04-26T14:38:16.001Z</time></trkpt><trkpt lat="45.386247080449664" lon="10.64224094630665"><ele>106.0</ele><time>2026-04-26T14:38:18.001Z</time></trkpt><trkpt lat="45.38632372564426" lon="10.642358728697403"><ele>106.0</ele><time>2026-04-26T14:38:23.001Z</time></trkpt><trkpt lat="45.38646547207717" lon="10.642395500029288"><ele>106.0</ele><time>2026-04-26T14:38:25.001Z</time></trkpt><trkpt lat="45.38654059037463" lon="10.642433593693097"><ele>106.0</ele><time>2026-04-26T14:38:26.001Z</time></trkpt><trkpt lat="45.3866253094158" lon="10.64247726942503"><ele>106.0</ele><time>2026-04-26T14:38:27.001Z</time></trkpt><trkpt lat="45.38672431803106" lon="10.642525184521768"><ele>106.00000000000001</ele><time>2026-04-26T14:38:28.001Z</time></trkpt><trkpt lat="45.386825052866" lon="10.642580939629077"><ele>106.0</ele><time>2026-04-26T14:38:29.001Z</time></trkpt><trkpt lat="45.38690645971808" lon="10.642628432181949"><ele>106.0</ele><time>2026-04-26T14:38:30.001Z</time></trkpt><trkpt lat="45.386983021794556" lon="10.642669573705083"><ele>106.0</ele><time>2026-04-26T14:38:31.001Z</time></trkpt><trkpt lat="45.38706392015144" lon="10.64271490142392"><ele>106.00000000000001</ele><time>2026-04-26T14:38:32.001Z</time></trkpt><trkpt lat="45.38713636916129" lon="10.642754575337616"><ele>106.0</ele><time>2026-04-26T14:38:33.001Z</time></trkpt><trkpt lat="45.38721445981435" lon="10.642818389579514"><ele>105.50000000000001</ele><time>2026-04-26T14:38:35.001Z</time></trkpt><trkpt lat="45.38728538895536" lon="10.642892557733063"><ele>105.0</ele><time>2026-04-26T14:38:39Z</time></trkpt><trkpt lat="45.38734251665946" lon="10.642971144837759"><ele>104.5</ele><time>2026-04-26T14:38:41Z</time></trkpt><trkpt lat="45.38740249052173" lon="10.643017174459853"><ele>104.0</ele><time>2026-04-26T14:38:43Z</time></trkpt><trkpt lat="45.387484193401285" lon="10.643051846889245"><ele>103.50000000000001</ele><time>2026-04-26T14:38:45Z</time></trkpt><trkpt lat="45.38755000681841" lon="10.643097444461738"><ele>103.0</ele><time>2026-04-26T14:38:47Z</time></trkpt><trkpt lat="45.38758074014842" lon="10.643181528448078"><ele>103.0</ele><time>2026-04-26T14:38:50Z</time></trkpt><trkpt lat="45.3875963610925" lon="10.643293974506308"><ele>103.0</ele><time>2026-04-26T14:38:54Z</time></trkpt><trkpt lat="45.3875561489365" lon="10.643428450902327"><ele>103.0</ele><time>2026-04-26T14:38:57Z</time></trkpt><trkpt lat="45.387507677903706" lon="10.643568303419991"><ele>103.0</ele><time>2026-04-26T14:38:59Z</time></trkpt><trkpt lat="45.387459931644656" lon="10.643707149157791"><ele>103.0</ele><time>2026-04-26T14:39:01Z</time></trkpt><trkpt lat="45.38741724573441" lon="10.643816239298976"><ele>101.66666666666667</ele><time>2026-04-26T14:39:03Z</time></trkpt><trkpt lat="45.38737389393014" lon="10.643931599126475"><ele>100.33333333333334</ele><time>2026-04-26T14:39:05Z</time></trkpt><trkpt lat="45.387330281357364" lon="10.644035569918795"><ele>99.0</ele><time>2026-04-26T14:39:07Z</time></trkpt><trkpt lat="45.38729666596418" lon="10.644130885614505"><ele>97.66666666666667</ele><time>2026-04-26T14:39:09Z</time></trkpt><trkpt lat="45.38725534989327" lon="10.644227830527768"><ele>96.33333333333334</ele><time>2026-04-26T14:39:11Z</time></trkpt><trkpt lat="45.38719930823093" lon="10.644339067692883"><ele>95.0</ele><time>2026-04-26T14:39:13Z</time></trkpt><trkpt lat="45.387137573515325" lon="10.644461259926851"><ele>94.6</ele><time>2026-04-26T14:39:15Z</time></trkpt><trkpt lat="45.38706833951612" lon="10.644578255232478"><ele>94.2</ele><time>2026-04-26T14:39:17Z</time></trkpt><trkpt lat="45.386991226638166" lon="10.644691910592657"><ele>93.80000000000001</ele><time>2026-04-26T14:39:19Z</time></trkpt><trkpt lat="45.386901837959016" lon="10.644780036149768"><ele>93.4</ele><time>2026-04-26T14:39:21Z</time></trkpt><trkpt lat="45.386826054120554" lon="10.644883242377194"><ele>93.0</ele><time>2026-04-26T14:39:23Z</time></trkpt><trkpt lat="45.38676701125126" lon="10.645035985735245"><ele>93.0</ele><time>2026-04-26T14:39:25Z</time></trkpt><trkpt lat="45.38672369639667" lon="10.645125453080327"><ele>93.0</ele><time>2026-04-26T14:39:26Z</time></trkpt><trkpt lat="45.38668142355756" lon="10.645218830190991"><ele>93.0</ele><time>2026-04-26T14:39:27Z</time></trkpt><trkpt lat="45.38662741863235" lon="10.645296513919511"><ele>93.0</ele><time>2026-04-26T14:39:28Z</time></trkpt><trkpt lat="45.38660449465338" lon="10.645389536148956"><ele>93.0</ele><time>2026-04-26T14:39:29Z</time></trkpt><trkpt lat="45.386550269835055" lon="10.645472887972995"><ele>93.0</ele><time>2026-04-26T14:39:30Z</time></trkpt><trkpt lat="45.38652056974928" lon="10.645577429826425"><ele>93.28571428571429</ele><time>2026-04-26T14:39:31Z</time></trkpt><trkpt lat="45.386485166846164" lon="10.645668955043261"><ele>93.57142857142857</ele><time>2026-04-26T14:39:32Z</time></trkpt><trkpt lat="45.38644477325567" lon="10.64577066065457"><ele>93.85714285714286</ele><time>2026-04-26T14:39:33Z</time></trkpt><trkpt lat="45.386407650948065" lon="10.6458578586221"><ele>94.14285714285714</ele><time>2026-04-26T14:39:34Z</time></trkpt><trkpt lat="45.38635259809222" lon="10.645936623041258"><ele>94.42857142857143</ele><time>2026-04-26T14:39:35Z</time></trkpt><trkpt lat="45.38631270924881" lon="10.64601492503784"><ele>94.71428571428572</ele><time>2026-04-26T14:39:36Z</time></trkpt><trkpt lat="45.386267872505066" lon="10.646101284364478"><ele>95.0</ele><time>2026-04-26T14:39:37Z</time></trkpt><trkpt lat="45.38624233181457" lon="10.646185713000813"><ele>96.5</ele><time>2026-04-26T14:39:38Z</time></trkpt><trkpt lat="45.38619733050636" lon="10.64625720711113"><ele>98.0</ele><time>2026-04-26T14:39:39Z</time></trkpt><trkpt lat="45.38615727819014" lon="10.646328751103772"><ele>99.5</ele><time>2026-04-26T14:39:40Z</time></trkpt><trkpt lat="45.3860918619581" lon="10.64643660914407"><ele>101.0</ele><time>2026-04-26T14:39:42Z</time></trkpt><trkpt lat="45.38603478232686" lon="10.646579178134088"><ele>102.49999999999999</ele><time>2026-04-26T14:39:44Z</time></trkpt><trkpt lat="45.38601425838371" lon="10.646709800118188"><ele>104.0</ele><time>2026-04-26T14:39:46Z</time></trkpt><trkpt lat="45.385994644221995" lon="10.646857656086327"><ele>105.66666666666666</ele><time>2026-04-26T14:39:48Z</time></trkpt><trkpt lat="45.38599715786539" lon="10.646988751871737"><ele>107.33333333333333</ele><time>2026-04-26T14:39:50Z</time></trkpt><trkpt lat="45.386033744355395" lon="10.647099414923126"><ele>109.0</ele><time>2026-04-26T14:39:52Z</time></trkpt><trkpt lat="45.38609765560418" lon="10.647131163243035"><ele>110.66666666666666</ele><time>2026-04-26T14:39:53Z</time></trkpt><trkpt lat="45.3861514302359" lon="10.647181134243803"><ele>112.33333333333333</ele><time>2026-04-26T14:39:54Z</time></trkpt><trkpt lat="45.3862082134285" lon="10.64722586094493"><ele>114.0</ele><time>2026-04-26T14:39:55Z</time></trkpt><trkpt lat="45.38632787785753" lon="10.64730603378046"><ele>112.83333333333333</ele><time>2026-04-26T14:39:57.001Z</time></trkpt><trkpt lat="45.38638546513495" lon="10.647347222842608"><ele>111.66666666666666</ele><time>2026-04-26T14:39:58.001Z</time></trkpt><trkpt lat="45.38644235772334" lon="10.647388476941382"><ele>110.5</ele><time>2026-04-26T14:39:59.001Z</time></trkpt><trkpt lat="45.38650092250299" lon="10.647429829768638"><ele>109.33333333333333</ele><time>2026-04-26T14:40:00.001Z</time></trkpt><trkpt lat="45.38656046806416" lon="10.647469489327111"><ele>108.16666666666666</ele><time>2026-04-26T14:40:01.001Z</time></trkpt><trkpt lat="45.3866645004992" lon="10.64754998986775"><ele>107.0</ele><time>2026-04-26T14:40:03.001Z</time></trkpt><trkpt lat="45.386752455040956" lon="10.647612840269547"><ele>107.0</ele><time>2026-04-26T14:40:05.001Z</time></trkpt><trkpt lat="45.38683458417072" lon="10.647678805411417"><ele>106.99999999999999</ele><time>2026-04-26T14:40:07.001Z</time></trkpt><trkpt lat="45.386919612605226" lon="10.64774124996777"><ele>106.99999999999999</ele><time>2026-04-26T14:40:09.001Z</time></trkpt><trkpt lat="45.3869910078555" lon="10.64780398894569"><ele>107.0</ele><time>2026-04-26T14:40:11.001Z</time></trkpt><trkpt lat="45.3870353361975" lon="10.647915614199222"><ele>107.0</ele><time>2026-04-26T14:40:13.001Z</time></trkpt><trkpt lat="45.38697974483772" lon="10.648018413411458"><ele>108.39999999999999</ele><time>2026-04-26T14:40:15.001Z</time></trkpt><trkpt lat="45.38697142594052" lon="10.64816168210384"><ele>109.79999999999998</ele><time>2026-04-26T14:40:17.001Z</time></trkpt><trkpt lat="45.38695807707582" lon="10.648330578847267"><ele>111.2</ele><time>2026-04-26T14:40:19.001Z</time></trkpt><trkpt lat="45.3869446978536" lon="10.648499860187734"><ele>112.6</ele><time>2026-04-26T14:40:21.001Z</time></trkpt><trkpt lat="45.38693303341184" lon="10.648647445173568"><ele>114.0</ele><time>2026-04-26T14:40:23.001Z</time></trkpt><trkpt lat="45.38699920684025" lon="10.648722440097535"><ele>114.6</ele><time>2026-04-26T14:40:24.001Z</time></trkpt><trkpt lat="45.386994665872926" lon="10.648872838961884"><ele>115.2</ele><time>2026-04-26T14:40:26.001Z</time></trkpt><trkpt lat="45.38697703642761" lon="10.64903127924169"><ele>115.79999999999998</ele><time>2026-04-26T14:40:28.001Z</time></trkpt><trkpt lat="45.3869388444261" lon="10.649197798871876"><ele>116.39999999999999</ele><time>2026-04-26T14:40:30.001Z</time></trkpt><trkpt lat="45.38689868695676" lon="10.649336364113255"><ele>117.0</ele><time>2026-04-26T14:40:32.001Z</time></trkpt><trkpt lat="45.3868344610418" lon="10.64947329975225"><ele>115.5</ele><time>2026-04-26T14:40:34.001Z</time></trkpt><trkpt lat="45.38675952727124" lon="10.649579944072297"><ele>114.0</ele><time>2026-04-26T14:40:36.001Z</time></trkpt><trkpt lat="45.38668680796277" lon="10.649653507980096"><ele>112.5</ele><time>2026-04-26T14:40:38.001Z</time></trkpt><trkpt lat="45.38662007244349" lon="10.649688679697448"><ele>111.0</ele><time>2026-04-26T14:40:40.001Z</time></trkpt><trkpt lat="45.386533172944276" lon="10.649708925968076"><ele>109.5</ele><time>2026-04-26T14:40:41.999Z</time></trkpt><trkpt lat="45.386445171582224" lon="10.649718702792214"><ele>108.0</ele><time>2026-04-26T14:40:43.999Z</time></trkpt><trkpt lat="45.38636054352979" lon="10.64976314941944"><ele>108.33333333333333</ele><time>2026-04-26T14:40:45.999Z</time></trkpt><trkpt lat="45.38631194534254" lon="10.649824537036212"><ele>108.66666666666666</ele><time>2026-04-26T14:40:48.999Z</time></trkpt><trkpt lat="45.38624818671995" lon="10.649931672106"><ele>109.0</ele><time>2026-04-26T14:40:51.999Z</time></trkpt><trkpt lat="45.38620610678018" lon="10.65002153776679"><ele>109.33333333333333</ele><time>2026-04-26T14:40:53.999Z</time></trkpt><trkpt lat="45.386161988914544" lon="10.65009988540745"><ele>109.66666666666666</ele><time>2026-04-26T14:40:56Z</time></trkpt><trkpt lat="45.386111155980934" lon="10.650199690471505"><ele>110.0</ele><time>2026-04-26T14:41:05Z</time></trkpt><trkpt lat="45.386113614803584" lon="10.650292257264008"><ele>109.33333333333333</ele><time>2026-04-26T14:41:07Z</time></trkpt><trkpt lat="45.38605261692198" lon="10.650380164017522"><ele>108.66666666666666</ele><time>2026-04-26T14:41:09.999Z</time></trkpt><trkpt lat="45.3859640190613" lon="10.65035032508418"><ele>108.0</ele><time>2026-04-26T14:41:11.999Z</time></trkpt><trkpt lat="45.38589894157119" lon="10.650362885025267"><ele>107.33333333333334</ele><time>2026-04-26T14:41:12.999Z</time></trkpt><trkpt lat="45.38582780022528" lon="10.650378383250588"><ele>106.66666666666667</ele><time>2026-04-26T14:41:13.999Z</time></trkpt><trkpt lat="45.38574914021567" lon="10.650392313212059"><ele>106.0</ele><time>2026-04-26T14:41:14.999Z</time></trkpt><trkpt lat="45.385671586353816" lon="10.650396039684242"><ele>106.00000000000001</ele><time>2026-04-26T14:41:15.999Z</time></trkpt><trkpt lat="45.38560350117835" lon="10.650399678204671"><ele>106.0</ele><time>2026-04-26T14:41:16.999Z</time></trkpt><trkpt lat="45.38550281131799" lon="10.650405554110172"><ele>106.0</ele><time>2026-04-26T14:41:18.999Z</time></trkpt><trkpt lat="45.38540778452467" lon="10.650447717494766"><ele>106.0</ele><time>2026-04-26T14:41:20.999Z</time></trkpt><trkpt lat="45.3853480185082" lon="10.650485336195885"><ele>106.00000000000001</ele><time>2026-04-26T14:41:21.999Z</time></trkpt><trkpt lat="45.38529017738716" lon="10.650576136981945"><ele>106.0</ele><time>2026-04-26T14:41:23.999Z</time></trkpt><trkpt lat="45.38525307180161" lon="10.650653873438188"><ele>107.00000000000001</ele><time>2026-04-26T14:41:24.999Z</time></trkpt><trkpt lat="45.385222786904436" lon="10.650732605518318"><ele>108.0</ele><time>2026-04-26T14:41:25.999Z</time></trkpt><trkpt lat="45.38518321515438" lon="10.650820462540548"><ele>109.0</ele><time>2026-04-26T14:41:26.999Z</time></trkpt><trkpt lat="45.385153920386635" lon="10.650901451255155"><ele>110.0</ele><time>2026-04-26T14:41:27.999Z</time></trkpt><trkpt lat="45.38510384506989" lon="10.651046559555304"><ele>111.00000000000001</ele><time>2026-04-26T14:41:29.999Z</time></trkpt><trkpt lat="45.3850690598239" lon="10.65113632365871"><ele>112.0</ele><time>2026-04-26T14:41:30.999Z</time></trkpt><trkpt lat="45.3850263821574" lon="10.651211587820795"><ele>112.00000000000001</ele><time>2026-04-26T14:41:31.999Z</time></trkpt><trkpt lat="45.38495948478842" lon="10.651318510474045"><ele>112.0</ele><time>2026-04-26T14:41:33.999Z</time></trkpt><trkpt lat="45.3848886658235" lon="10.651380156866887"><ele>112.0</ele><time>2026-04-26T14:41:34.999Z</time></trkpt><trkpt lat="45.384824988704544" lon="10.651426953489302"><ele>112.0</ele><time>2026-04-26T14:41:35.999Z</time></trkpt><trkpt lat="45.384758214965544" lon="10.651461771494521"><ele>112.00000000000001</ele><time>2026-04-26T14:41:36.999Z</time></trkpt><trkpt lat="45.384652294529545" lon="10.651482484049078"><ele>112.0</ele><time>2026-04-26T14:41:38.999Z</time></trkpt><trkpt lat="45.384526538259074" lon="10.651531597124857"><ele>113.8</ele><time>2026-04-26T14:41:40.999Z</time></trkpt><trkpt lat="45.38445232388842" lon="10.651569967556"><ele>115.6</ele><time>2026-04-26T14:41:41.999Z</time></trkpt><trkpt lat="45.384337762578184" lon="10.651631996052298"><ele>117.39999999999999</ele><time>2026-04-26T14:41:43.999Z</time></trkpt><trkpt lat="45.38427627680552" lon="10.651660062858872"><ele>119.19999999999999</ele><time>2026-04-26T14:41:44.999Z</time></trkpt><trkpt lat="45.384176347275506" lon="10.651698966313369"><ele>121.0</ele><time>2026-04-26T14:41:46.999Z</time></trkpt><trkpt lat="45.38407312569098" lon="10.65167106130798"><ele>121.00000000000001</ele><time>2026-04-26T14:41:48.999Z</time></trkpt><trkpt lat="45.38397016157667" lon="10.651662405702407"><ele>121.0</ele><time>2026-04-26T14:41:50.999Z</time></trkpt><trkpt lat="45.38388447447134" lon="10.65167596489792"><ele>121.0</ele><time>2026-04-26T14:41:52.999Z</time></trkpt><trkpt lat="45.38379534287865" lon="10.651715119473712"><ele>121.0</ele><time>2026-04-26T14:41:54.999Z</time></trkpt><trkpt lat="45.383726346749356" lon="10.651758517113397"><ele>121.00000000000001</ele><time>2026-04-26T14:41:56.999Z</time></trkpt><trkpt lat="45.383647993447006" lon="10.65174823641511"><ele>121.0</ele><time>2026-04-26T14:42:00.999Z</time></trkpt><trkpt lat="45.38363150552639" lon="10.65156811635362"><ele>120.5</ele><time>2026-04-26T14:42:02.999Z</time></trkpt><trkpt lat="45.38359812090737" lon="10.651444648003844"><ele>120.0</ele><time>2026-04-26T14:42:03.999Z</time></trkpt><trkpt lat="45.38355670011561" lon="10.651298345909366"><ele>119.5</ele><time>2026-04-26T14:42:04.999Z</time></trkpt><trkpt lat="45.3834903432582" lon="10.65112369655007"><ele>119.0</ele><time>2026-04-26T14:42:05.999Z</time></trkpt><trkpt lat="45.38344657093892" lon="10.650920675743293"><ele>118.75</ele><time>2026-04-26T14:42:06.999Z</time></trkpt><trkpt lat="45.38338988085714" lon="10.650736760637995"><ele>118.5</ele><time>2026-04-26T14:42:07.999Z</time></trkpt><trkpt lat="45.383335857311735" lon="10.650538558171919"><ele>118.25</ele><time>2026-04-26T14:42:08.999Z</time></trkpt><trkpt lat="45.38328161091097" lon="10.65033155845067"><ele>118.0</ele><time>2026-04-26T14:42:09.999Z</time></trkpt><trkpt lat="45.38321960045387" lon="10.650124661929537"><ele>119.0</ele><time>2026-04-26T14:42:10.999Z</time></trkpt><trkpt lat="45.383119889101096" lon="10.649936251650322"><ele>120.0</ele><time>2026-04-26T14:42:11.999Z</time></trkpt><trkpt lat="45.382967963868225" lon="10.649751276409601"><ele>121.0</ele><time>2026-04-26T14:42:12.999Z</time></trkpt><trkpt lat="45.38276445973366" lon="10.649549549473825"><ele>119.5</ele><time>2026-04-26T14:42:13.999Z</time></trkpt><trkpt lat="45.38254390878925" lon="10.649296582721426"><ele>118.0</ele><time>2026-04-26T14:42:14.999Z</time></trkpt><trkpt lat="45.38232834372224" lon="10.6490992691059"><ele>117.66666666666667</ele><time>2026-04-26T14:42:15.999Z</time></trkpt><trkpt lat="45.38215806636797" lon="10.648909303928287"><ele>117.33333333333334</ele><time>2026-04-26T14:42:16.999Z</time></trkpt><trkpt lat="45.38201901286922" lon="10.648709907879452"><ele>117.0</ele><time>2026-04-26T14:42:17.999Z</time></trkpt><trkpt lat="45.38189131630926" lon="10.648528517641601"><ele>117.5</ele><time>2026-04-26T14:42:18.999Z</time></trkpt><trkpt lat="45.3817730005749" lon="10.648354366144181"><ele>118.0</ele><time>2026-04-26T14:42:19.999Z</time></trkpt><trkpt lat="45.38166824872254" lon="10.648217023620692"><ele>118.5</ele><time>2026-04-26T14:42:20.999Z</time></trkpt><trkpt lat="45.381573510049144" lon="10.648094492314883"><ele>119.0</ele><time>2026-04-26T14:42:22Z</time></trkpt><trkpt lat="45.38145545179454" lon="10.648028303739162"><ele>118.0</ele><time>2026-04-26T14:42:23Z</time></trkpt><trkpt lat="45.38131238860146" lon="10.648018979176767"><ele>117.0</ele><time>2026-04-26T14:42:24Z</time></trkpt><trkpt lat="45.381147715817356" lon="10.648034734287418"><ele>116.0</ele><time>2026-04-26T14:42:25Z</time></trkpt><trkpt lat="45.380967935619694" lon="10.648036721106841"><ele>116.0</ele><time>2026-04-26T14:42:26Z</time></trkpt><trkpt lat="45.380781827357296" lon="10.647999886178386"><ele>116.0</ele><time>2026-04-26T14:42:27Z</time></trkpt><trkpt lat="45.38058210246404" lon="10.647995136560432"><ele>116.0</ele><time>2026-04-26T14:42:28Z</time></trkpt><trkpt lat="45.38041164633154" lon="10.647947615945357"><ele>116.33333333333333</ele><time>2026-04-26T14:42:29Z</time></trkpt><trkpt lat="45.380251818749464" lon="10.647947423651795"><ele>116.66666666666666</ele><time>2026-04-26T14:42:30Z</time></trkpt><trkpt lat="45.38009801367563" lon="10.647925783582908"><ele>117.0</ele><time>2026-04-26T14:42:31Z</time></trkpt><trkpt lat="45.37995150029957" lon="10.647908635485265"><ele>117.0</ele><time>2026-04-26T14:42:32Z</time></trkpt><trkpt lat="45.379821102990135" lon="10.647888361900767"><ele>117.0</ele><time>2026-04-26T14:42:33Z</time></trkpt><trkpt lat="45.37970120287749" lon="10.647826926465148"><ele>117.0</ele><time>2026-04-26T14:42:34Z</time></trkpt><trkpt lat="45.379572939200216" lon="10.647753374226708"><ele>117.0</ele><time>2026-04-26T14:42:35Z</time></trkpt><trkpt lat="45.37943019584687" lon="10.647693804693638"><ele>117.66666666666666</ele><time>2026-04-26T14:42:36Z</time></trkpt><trkpt lat="45.379290342826586" lon="10.647598536204976"><ele>118.33333333333333</ele><time>2026-04-26T14:42:37Z</time></trkpt><trkpt lat="45.37914529706326" lon="10.647498232521446"><ele>119.0</ele><time>2026-04-26T14:42:38Z</time></trkpt><trkpt lat="45.379000155847365" lon="10.647396161505261"><ele>119.0</ele><time>2026-04-26T14:42:39Z</time></trkpt><trkpt lat="45.37887842315876" lon="10.647271483268176"><ele>119.0</ele><time>2026-04-26T14:42:40Z</time></trkpt><trkpt lat="45.3787436875323" lon="10.647180359778439"><ele>119.0</ele><time>2026-04-26T14:42:41Z</time></trkpt><trkpt lat="45.37861871749313" lon="10.647057807350732"><ele>118.5</ele><time>2026-04-26T14:42:42Z</time></trkpt><trkpt lat="45.3785035659913" lon="10.646939913052298"><ele>118.0</ele><time>2026-04-26T14:42:43Z</time></trkpt><trkpt lat="45.378398981219874" lon="10.646824931757983"><ele>117.5</ele><time>2026-04-26T14:42:44Z</time></trkpt><trkpt lat="45.3783011371813" lon="10.646715271286922"><ele>117.0</ele><time>2026-04-26T14:42:45Z</time></trkpt><trkpt lat="45.37824076712892" lon="10.646550352146885"><ele>117.0</ele><time>2026-04-26T14:42:46Z</time></trkpt><trkpt lat="45.378178613956145" lon="10.646368334825333"><ele>117.0</ele><time>2026-04-26T14:42:47Z</time></trkpt><trkpt lat="45.378119861308015" lon="10.646159090090174"><ele>117.0</ele><time>2026-04-26T14:42:47.998Z</time></trkpt><trkpt lat="45.37806678645741" lon="10.645928230555588"><ele>116.66666666666666</ele><time>2026-04-26T14:42:48.998Z</time></trkpt><trkpt lat="45.378020333247974" lon="10.645701316275092"><ele>116.33333333333333</ele><time>2026-04-26T14:42:49.999Z</time></trkpt><trkpt lat="45.3779603066344" lon="10.645486747845165"><ele>116.0</ele><time>2026-04-26T14:42:50.999Z</time></trkpt><trkpt lat="45.37791785012621" lon="10.645286084134364"><ele>116.75</ele><time>2026-04-26T14:42:51.999Z</time></trkpt><trkpt lat="45.37785897186318" lon="10.64509974891078"><ele>117.5</ele><time>2026-04-26T14:42:52.999Z</time></trkpt><trkpt lat="45.377774504043565" lon="10.644935712870673"><ele>118.25</ele><time>2026-04-26T14:42:53.999Z</time></trkpt><trkpt lat="45.37767021544421" lon="10.644794446785944"><ele>119.0</ele><time>2026-04-26T14:42:54.999Z</time></trkpt><trkpt lat="45.377552219093964" lon="10.644672647971863"><ele>119.0</ele><time>2026-04-26T14:42:55.999Z</time></trkpt><trkpt lat="45.37742506925579" lon="10.644576485013063"><ele>119.0</ele><time>2026-04-26T14:42:56.999Z</time></trkpt><trkpt lat="45.377291165844056" lon="10.644503518049317"><ele>119.0</ele><time>2026-04-26T14:42:57.999Z</time></trkpt><trkpt lat="45.37715132865931" lon="10.644443238295295"><ele>119.0</ele><time>2026-04-26T14:42:59Z</time></trkpt><trkpt lat="45.37700768673159" lon="10.644392189280737"><ele>118.0</ele><time>2026-04-26T14:43:00Z</time></trkpt><trkpt lat="45.37686724194007" lon="10.644337903381757"><ele>117.0</ele><time>2026-04-26T14:43:01Z</time></trkpt><trkpt lat="45.376733445844486" lon="10.644273788127206"><ele>116.0</ele><time>2026-04-26T14:43:02Z</time></trkpt><trkpt lat="45.37659376377102" lon="10.644189820824318"><ele>115.0</ele><time>2026-04-26T14:43:03Z</time></trkpt><trkpt lat="45.37645835439319" lon="10.644076288231062"><ele>114.75</ele><time>2026-04-26T14:43:04Z</time></trkpt><trkpt lat="45.37632950187229" lon="10.643967341867121"><ele>114.5</ele><time>2026-04-26T14:43:05Z</time></trkpt><trkpt lat="45.37621820348636" lon="10.643834023638377"><ele>114.25</ele><time>2026-04-26T14:43:06Z</time></trkpt><trkpt lat="45.37612577521362" lon="10.643663748049157"><ele>114.0</ele><time>2026-04-26T14:43:07Z</time></trkpt><trkpt lat="45.37605156902189" lon="10.64347591709087"><ele>113.66666666666666</ele><time>2026-04-26T14:43:08Z</time></trkpt><trkpt lat="45.375982741764716" lon="10.64327960114118"><ele>113.33333333333333</ele><time>2026-04-26T14:43:09Z</time></trkpt><trkpt lat="45.375922647809794" lon="10.64308464341505"><ele>113.0</ele><time>2026-04-26T14:43:10Z</time></trkpt><trkpt lat="45.37587564783267" lon="10.642880738907682"><ele>113.33333333333333</ele><time>2026-04-26T14:43:11Z</time></trkpt><trkpt lat="45.375834163262965" lon="10.642668484692074"><ele>113.66666666666666</ele><time>2026-04-26T14:43:12Z</time></trkpt><trkpt lat="45.37579031964931" lon="10.64245624288526"><ele>114.0</ele><time>2026-04-26T14:43:13Z</time></trkpt><trkpt lat="45.37573341951247" lon="10.642260469517158"><ele>114.0</ele><time>2026-04-26T14:43:14Z</time></trkpt><trkpt lat="45.3756810637278" lon="10.642045713181416"><ele>114.0</ele><time>2026-04-26T14:43:15Z</time></trkpt><trkpt lat="45.3756530477287" lon="10.641860355931223"><ele>114.0</ele><time>2026-04-26T14:43:16Z</time></trkpt><trkpt lat="45.37561359636001" lon="10.64169029300904"><ele>114.0</ele><time>2026-04-26T14:43:17.001Z</time></trkpt><trkpt lat="45.37557888157469" lon="10.64153253690024"><ele>113.83333333333333</ele><time>2026-04-26T14:43:18.001Z</time></trkpt><trkpt lat="45.3755512573771" lon="10.64140432771981"><ele>113.66666666666666</ele><time>2026-04-26T14:43:19.001Z</time></trkpt><trkpt lat="45.37553063783244" lon="10.64130210998165"><ele>113.5</ele><time>2026-04-26T14:43:20.001Z</time></trkpt><trkpt lat="45.37550250013848" lon="10.641170197764612"><ele>113.33333333333333</ele><time>2026-04-26T14:43:22.001Z</time></trkpt><trkpt lat="45.37551780780389" lon="10.641079411820392"><ele>113.16666666666666</ele><time>2026-04-26T14:43:25.001Z</time></trkpt><trkpt lat="45.375630405474745" lon="10.64103511433225"><ele>113.0</ele><time>2026-04-26T14:43:26.001Z</time></trkpt><trkpt lat="45.375718679191046" lon="10.64103136517095"><ele>113.4</ele><time>2026-04-26T14:43:27.001Z</time></trkpt><trkpt lat="45.37581875392971" lon="10.641028178720491"><ele>113.80000000000001</ele><time>2026-04-26T14:43:28.001Z</time></trkpt><trkpt lat="45.37591738564692" lon="10.641019016924638"><ele>114.2</ele><time>2026-04-26T14:43:29.001Z</time></trkpt><trkpt lat="45.37602601766145" lon="10.641000275697895"><ele>114.6</ele><time>2026-04-26T14:43:30.001Z</time></trkpt><trkpt lat="45.37614648486996" lon="10.640960447312223"><ele>115.0</ele><time>2026-04-26T14:43:31.001Z</time></trkpt><trkpt lat="45.37627915566871" lon="10.640896671762503"><ele>113.33333333333334</ele><time>2026-04-26T14:43:32.001Z</time></trkpt><trkpt lat="45.37642044390581" lon="10.640811199077024"><ele>111.66666666666666</ele><time>2026-04-26T14:43:33.001Z</time></trkpt><trkpt lat="45.37655360183939" lon="10.640725345127262"><ele>110.0</ele><time>2026-04-26T14:43:34.001Z</time></trkpt><trkpt lat="45.37669481208986" lon="10.64064063179808"><ele>110.0</ele><time>2026-04-26T14:43:35.001Z</time></trkpt><trkpt lat="45.376845800253925" lon="10.640555858462836"><ele>110.0</ele><time>2026-04-26T14:43:36.001Z</time></trkpt><trkpt lat="45.37701327294992" lon="10.64050213586752"><ele>110.0</ele><time>2026-04-26T14:43:37.001Z</time></trkpt><trkpt lat="45.37717330787875" lon="10.640446914384054"><ele>110.0</ele><time>2026-04-26T14:43:38.001Z</time></trkpt><trkpt lat="45.377314307611414" lon="10.640390657259621"><ele>110.0</ele><time>2026-04-26T14:43:39.001Z</time></trkpt><trkpt lat="45.37745218762025" lon="10.640358353502746"><ele>110.0</ele><time>2026-04-26T14:43:40.001Z</time></trkpt><trkpt lat="45.37758890421636" lon="10.64029974877645"><ele>110.0</ele><time>2026-04-26T14:43:41.001Z</time></trkpt><trkpt lat="45.37771336376117" lon="10.64019741784223"><ele>110.75</ele><time>2026-04-26T14:43:42.001Z</time></trkpt><trkpt lat="45.37781233391505" lon="10.64004988005483"><ele>111.5</ele><time>2026-04-26T14:43:43.001Z</time></trkpt><trkpt lat="45.377892088739486" lon="10.639869412021465"><ele>112.25</ele><time>2026-04-26T14:43:44.001Z</time></trkpt><trkpt lat="45.37795624939072" lon="10.639677859206229"><ele>113.0</ele><time>2026-04-26T14:43:45.001Z</time></trkpt><trkpt lat="45.37801183582904" lon="10.639499689890114"><ele>112.2</ele><time>2026-04-26T14:43:46.001Z</time></trkpt><trkpt lat="45.37808524094224" lon="10.639353108423148"><ele>111.4</ele><time>2026-04-26T14:43:47.001Z</time></trkpt><trkpt lat="45.37812747213882" lon="10.639209271656176"><ele>110.60000000000001</ele><time>2026-04-26T14:43:48.001Z</time></trkpt><trkpt lat="45.378203622323305" lon="10.639113943314841"><ele>109.80000000000001</ele><time>2026-04-26T14:43:49.001Z</time></trkpt><trkpt lat="45.37828680356119" lon="10.639015351225243"><ele>109.0</ele><time>2026-04-26T14:43:50.001Z</time></trkpt><trkpt lat="45.3783932418887" lon="10.63894598742508"><ele>109.0</ele><time>2026-04-26T14:43:51.001Z</time></trkpt><trkpt lat="45.37853462508731" lon="10.638955952429612"><ele>109.0</ele><time>2026-04-26T14:43:52.001Z</time></trkpt><trkpt lat="45.37868552565415" lon="10.63902046293229"><ele>109.0</ele><time>2026-04-26T14:43:53.001Z</time></trkpt><trkpt lat="45.37881961650647" lon="10.639084563507188"><ele>109.0</ele><time>2026-04-26T14:43:54.001Z</time></trkpt><trkpt lat="45.37894193672201" lon="10.639131859836974"><ele>108.0</ele><time>2026-04-26T14:43:55.001Z</time></trkpt><trkpt lat="45.37905731884051" lon="10.639163522690792"><ele>107.0</ele><time>2026-04-26T14:43:56.001Z</time></trkpt><trkpt lat="45.37916910542115" lon="10.63916417868007"><ele>106.0</ele><time>2026-04-26T14:43:57.001Z</time></trkpt><trkpt lat="45.379273913353614" lon="10.63912076756635"><ele>105.0</ele><time>2026-04-26T14:43:58.001Z</time></trkpt><trkpt lat="45.37936952862909" lon="10.639021727465158"><ele>105.0</ele><time>2026-04-26T14:43:59.001Z</time></trkpt><trkpt lat="45.37946104910204" lon="10.638851925377951"><ele>105.0</ele><time>2026-04-26T14:44:00.001Z</time></trkpt><trkpt lat="45.379562098225385" lon="10.638696522561807"><ele>105.0</ele><time>2026-04-26T14:44:01.001Z</time></trkpt><trkpt lat="45.37965826103411" lon="10.638501080346614"><ele>103.0</ele><time>2026-04-26T14:44:02.001Z</time></trkpt><trkpt lat="45.37976668957778" lon="10.638324635182915"><ele>101.0</ele><time>2026-04-26T14:44:03.001Z</time></trkpt><trkpt lat="45.37987023792664" lon="10.638146291968996"><ele>99.0</ele><time>2026-04-26T14:44:04.001Z</time></trkpt><trkpt lat="45.379977041774495" lon="10.637982347684057"><ele>99.0</ele><time>2026-04-26T14:44:05.001Z</time></trkpt><trkpt lat="45.38008853291905" lon="10.637841138990044"><ele>99.0</ele><time>2026-04-26T14:44:06.001Z</time></trkpt><trkpt lat="45.380206343493775" lon="10.637739378277015"><ele>99.0</ele><time>2026-04-26T14:44:07.001Z</time></trkpt><trkpt lat="45.38032622479257" lon="10.637681325318878"><ele>99.0</ele><time>2026-04-26T14:44:08.002Z</time></trkpt><trkpt lat="45.380439122969484" lon="10.637652978078469"><ele>99.80000000000001</ele><time>2026-04-26T14:44:09.002Z</time></trkpt><trkpt lat="45.38053816818267" lon="10.63763913273087"><ele>100.60000000000001</ele><time>2026-04-26T14:44:10.002Z</time></trkpt><trkpt lat="45.38060586695491" lon="10.637626957594042"><ele>101.4</ele><time>2026-04-26T14:44:11.002Z</time></trkpt><trkpt lat="45.380681465084706" lon="10.63761130378995"><ele>102.2</ele><time>2026-04-26T14:44:15.002Z</time></trkpt><trkpt lat="45.38066203394481" lon="10.637335171534339"><ele>103.0</ele><time>2026-04-26T14:44:17.002Z</time></trkpt><trkpt lat="45.38061968373868" lon="10.637194878385278"><ele>103.00000000000001</ele><time>2026-04-26T14:44:19.002Z</time></trkpt><trkpt lat="45.380590429354726" lon="10.63710097574836"><ele>103.0</ele><time>2026-04-26T14:44:20.002Z</time></trkpt><trkpt lat="45.38056412996548" lon="10.637018045609448"><ele>103.0</ele><time>2026-04-26T14:44:21.002Z</time></trkpt><trkpt lat="45.3805370814183" lon="10.636927700393652"><ele>103.0</ele><time>2026-04-26T14:44:22.002Z</time></trkpt><trkpt lat="45.38048822927505" lon="10.636757545783157"><ele>103.00000000000001</ele><time>2026-04-26T14:44:24.002Z</time></trkpt><trkpt lat="45.380466244370346" lon="10.636652763220487"><ele>103.0</ele><time>2026-04-26T14:44:25.002Z</time></trkpt><trkpt lat="45.38044860487197" lon="10.636561888334002"><ele>103.0</ele><time>2026-04-26T14:44:26.002Z</time></trkpt><trkpt lat="45.38043787339827" lon="10.636463754638013"><ele>103.0</ele><time>2026-04-26T14:44:27.002Z</time></trkpt><trkpt lat="45.380436677929474" lon="10.636361091134534"><ele>103.0</ele><time>2026-04-26T14:44:28.002Z</time></trkpt><trkpt lat="45.380439538073546" lon="10.6361844001352"><ele>103.0</ele><time>2026-04-26T14:44:30.002Z</time></trkpt><trkpt lat="45.38046951171424" lon="10.63600883115059"><ele>103.0</ele><time>2026-04-26T14:44:32.002Z</time></trkpt><trkpt lat="45.3805060951806" lon="10.635912577815105"><ele>103.4</ele><time>2026-04-26T14:44:33.002Z</time></trkpt><trkpt lat="45.380528767573075" lon="10.635822990122884"><ele>103.80000000000001</ele><time>2026-04-26T14:44:34.002Z</time></trkpt><trkpt lat="45.38057304772542" lon="10.635673366883362"><ele>104.2</ele><time>2026-04-26T14:44:36.002Z</time></trkpt><trkpt lat="45.380644142381385" lon="10.635520210115516"><ele>104.6</ele><time>2026-04-26T14:44:38.002Z</time></trkpt><trkpt lat="45.380703793282024" lon="10.635389471051766"><ele>105.0</ele><time>2026-04-26T14:44:40.002Z</time></trkpt><trkpt lat="45.38076864758171" lon="10.635256929531153"><ele>104.16666666666667</ele><time>2026-04-26T14:44:42.002Z</time></trkpt><trkpt lat="45.38080725970443" lon="10.63518205091315"><ele>103.33333333333334</ele><time>2026-04-26T14:44:43.002Z</time></trkpt><trkpt lat="45.38086422680471" lon="10.635087259947337"><ele>102.5</ele><time>2026-04-26T14:44:44.002Z</time></trkpt><trkpt lat="45.38092511852413" lon="10.635015411532924"><ele>101.66666666666667</ele><time>2026-04-26T14:44:45.002Z</time></trkpt><trkpt lat="45.380979794954285" lon="10.634940786438797"><ele>100.83333333333334</ele><time>2026-04-26T14:44:46.002Z</time></trkpt><trkpt lat="45.3810263136119" lon="10.634876825222397"><ele>100.0</ele><time>2026-04-26T14:44:47.002Z</time></trkpt><trkpt lat="45.38111343847127" lon="10.634762772349115"><ele>100.0</ele><time>2026-04-26T14:44:49.002Z</time></trkpt><trkpt lat="45.38115608128159" lon="10.634696270658724"><ele>100.0</ele><time>2026-04-26T14:44:50.002Z</time></trkpt><trkpt lat="45.38120949362912" lon="10.634613129560716"><ele>100.0</ele><time>2026-04-26T14:44:51.002Z</time></trkpt><trkpt lat="45.38127743027126" lon="10.634533377997338"><ele>100.0</ele><time>2026-04-26T14:44:52.002Z</time></trkpt><trkpt lat="45.381331363881365" lon="10.63443865231358"><ele>100.0</ele><time>2026-04-26T14:44:54.001Z</time></trkpt><trkpt lat="45.381410961856595" lon="10.63428609153129"><ele>100.6</ele><time>2026-04-26T14:44:56.001Z</time></trkpt><trkpt lat="45.38146726271742" lon="10.634149844935163"><ele>101.2</ele><time>2026-04-26T14:44:58.001Z</time></trkpt><trkpt lat="45.38151131258111" lon="10.63402798921735"><ele>101.80000000000001</ele><time>2026-04-26T14:45:00.001Z</time></trkpt><trkpt lat="45.38155092082637" lon="10.633900887745659"><ele>102.4</ele><time>2026-04-26T14:45:02.001Z</time></trkpt><trkpt lat="45.381584912102475" lon="10.633778732540412"><ele>103.0</ele><time>2026-04-26T14:45:04.001Z</time></trkpt><trkpt lat="45.38162423973801" lon="10.63364464596368"><ele>102.2</ele><time>2026-04-26T14:45:06.001Z</time></trkpt><trkpt lat="45.38167933282403" lon="10.633513289514998"><ele>101.4</ele><time>2026-04-26T14:45:08.001Z</time></trkpt><trkpt lat="45.381735911419376" lon="10.633347499861081"><ele>100.60000000000001</ele><time>2026-04-26T14:45:10.001Z</time></trkpt><trkpt lat="45.38177454778587" lon="10.633246022274744"><ele>99.80000000000001</ele><time>2026-04-26T14:45:11.001Z</time></trkpt><trkpt lat="45.3818142786409" lon="10.633138858545802"><ele>99.0</ele><time>2026-04-26T14:45:12.001Z</time></trkpt><trkpt lat="45.381858329871235" lon="10.633024001002134"><ele>99.0</ele><time>2026-04-26T14:45:13.001Z</time></trkpt><trkpt lat="45.38189979088785" lon="10.632909992467079"><ele>99.0</ele><time>2026-04-26T14:45:14.001Z</time></trkpt><trkpt lat="45.381942821536676" lon="10.63280147660127"><ele>99.0</ele><time>2026-04-26T14:45:15.001Z</time></trkpt><trkpt lat="45.38198522696959" lon="10.632686907942917"><ele>99.0</ele><time>2026-04-26T14:45:16.001Z</time></trkpt><trkpt lat="45.38202183099383" lon="10.63257967400756"><ele>99.0</ele><time>2026-04-26T14:45:17.001Z</time></trkpt><trkpt lat="45.382055434582405" lon="10.632476021931952"><ele>99.0</ele><time>2026-04-26T14:45:18.001Z</time></trkpt><trkpt lat="45.38209180768907" lon="10.632373569536814"><ele>98.80000000000001</ele><time>2026-04-26T14:45:19.001Z</time></trkpt><trkpt lat="45.38213224983489" lon="10.632266076683322"><ele>98.60000000000001</ele><time>2026-04-26T14:45:20.001Z</time></trkpt><trkpt lat="45.38217433001559" lon="10.632143930455111"><ele>98.4</ele><time>2026-04-26T14:45:21.001Z</time></trkpt><trkpt lat="45.382210264774066" lon="10.63202767813706"><ele>98.2</ele><time>2026-04-26T14:45:22.001Z</time></trkpt><trkpt lat="45.38225489525182" lon="10.631898141195151"><ele>98.0</ele><time>2026-04-26T14:45:23.001Z</time></trkpt><trkpt lat="45.38228857837554" lon="10.631794458638385"><ele>99.2</ele><time>2026-04-26T14:45:24.001Z</time></trkpt><trkpt lat="45.38232855556108" lon="10.631680882650706"><ele>100.4</ele><time>2026-04-26T14:45:25.001Z</time></trkpt><trkpt lat="45.3823684146483" lon="10.63157089976494"><ele>101.60000000000001</ele><time>2026-04-26T14:45:26.001Z</time></trkpt><trkpt lat="45.38240056638937" lon="10.631478302962403"><ele>102.80000000000001</ele><time>2026-04-26T14:45:27.001Z</time></trkpt><trkpt lat="45.38246089354021" lon="10.631305547519185"><ele>104.0</ele><time>2026-04-26T14:45:29.001Z</time></trkpt><trkpt lat="45.38251101444076" lon="10.631135571989244"><ele>104.33333333333333</ele><time>2026-04-26T14:45:31.001Z</time></trkpt><trkpt lat="45.38253526978979" lon="10.631042747971568"><ele>104.66666666666666</ele><time>2026-04-26T14:45:32.001Z</time></trkpt><trkpt lat="45.38254419669739" lon="10.630935423746477"><ele>105.0</ele><time>2026-04-26T14:45:34.001Z</time></trkpt><trkpt lat="45.38251582102857" lon="10.630827505257004"><ele>105.33333333333334</ele><time>2026-04-26T14:45:36.001Z</time></trkpt><trkpt lat="45.38245002311691" lon="10.63074460652677"><ele>105.66666666666667</ele><time>2026-04-26T14:45:38.001Z</time></trkpt><trkpt lat="45.38237992742658" lon="10.630674643886072"><ele>106.0</ele><time>2026-04-26T14:45:40.001Z</time></trkpt><trkpt lat="45.382275887751206" lon="10.630605271771536"><ele>106.0</ele><time>2026-04-26T14:45:42.001Z</time></trkpt><trkpt lat="45.382225548950295" lon="10.630539776204037"><ele>106.0</ele><time>2026-04-26T14:45:43.001Z</time></trkpt><trkpt lat="45.38212713502251" lon="10.63045301194773"><ele>106.0</ele><time>2026-04-26T14:45:45.001Z</time></trkpt><trkpt lat="45.38203089408512" lon="10.630367243964658"><ele>106.0</ele><time>2026-04-26T14:45:47.001Z</time></trkpt><trkpt lat="45.3819761670711" lon="10.630318472400655"><ele>106.0</ele><time>2026-04-26T14:45:48.001Z</time></trkpt><trkpt lat="45.38187546264607" lon="10.630227524815314"><ele>105.28571428571429</ele><time>2026-04-26T14:45:50.001Z</time></trkpt><trkpt lat="45.381820431284005" lon="10.630175853006609"><ele>104.57142857142857</ele><time>2026-04-26T14:45:51.001Z</time></trkpt><trkpt lat="45.38176396751753" lon="10.630122836280147"><ele>103.85714285714286</ele><time>2026-04-26T14:45:52.001Z</time></trkpt><trkpt lat="45.38170739080019" lon="10.63006971353851"><ele>103.14285714285714</ele><time>2026-04-26T14:45:53.001Z</time></trkpt><trkpt lat="45.38165460493751" lon="10.63002015012672"><ele>102.42857142857142</ele><time>2026-04-26T14:45:54.001Z</time></trkpt><trkpt lat="45.38158382935903" lon="10.629981261998347"><ele>101.71428571428571</ele><time>2026-04-26T14:45:55.001Z</time></trkpt><trkpt lat="45.38152552534081" lon="10.629926640266502"><ele>101.0</ele><time>2026-04-26T14:45:56.001Z</time></trkpt><trkpt lat="45.38145927758285" lon="10.629861945166656"><ele>100.99999999999999</ele><time>2026-04-26T14:45:57.001Z</time></trkpt><trkpt lat="45.38139686159973" lon="10.62980712851402"><ele>101.0</ele><time>2026-04-26T14:45:58.001Z</time></trkpt><trkpt lat="45.38133118415352" lon="10.62974504802592"><ele>101.0</ele><time>2026-04-26T14:45:59.001Z</time></trkpt><trkpt lat="45.38126303606682" lon="10.62968243744148"><ele>101.0</ele><time>2026-04-26T14:46:00.001Z</time></trkpt><trkpt lat="45.381200264118036" lon="10.629634078544306"><ele>100.99999999999999</ele><time>2026-04-26T14:46:01.001Z</time></trkpt><trkpt lat="45.381127585982405" lon="10.62954267440604"><ele>101.0</ele><time>2026-04-26T14:46:02.001Z</time></trkpt><trkpt lat="45.38105379223517" lon="10.629476861346093"><ele>100.49999999999999</ele><time>2026-04-26T14:46:03.001Z</time></trkpt><trkpt lat="45.38098033408699" lon="10.629430038261367"><ele>100.0</ele><time>2026-04-26T14:46:04.001Z</time></trkpt><trkpt lat="45.38090572540786" lon="10.629371843864428"><ele>99.5</ele><time>2026-04-26T14:46:05.001Z</time></trkpt><trkpt lat="45.38083953817968" lon="10.629285778606839"><ele>99.0</ele><time>2026-04-26T14:46:06.001Z</time></trkpt><trkpt lat="45.38077574293293" lon="10.62922888269705"><ele>98.49999999999999</ele><time>2026-04-26T14:46:07.001Z</time></trkpt><trkpt lat="45.380705836654414" lon="10.629185973604994"><ele>98.0</ele><time>2026-04-26T14:46:08.001Z</time></trkpt><trkpt lat="45.38065853051866" lon="10.629124346631272"><ele>98.0</ele><time>2026-04-26T14:46:09.001Z</time></trkpt><trkpt lat="45.38057048376122" lon="10.62904514590336"><ele>98.0</ele><time>2026-04-26T14:46:11.001Z</time></trkpt><trkpt lat="45.38046369597606" lon="10.628948723725498"><ele>98.0</ele><time>2026-04-26T14:46:13.001Z</time></trkpt><trkpt lat="45.38040022708443" lon="10.628891415585345"><ele>98.0</ele><time>2026-04-26T14:46:14.001Z</time></trkpt><trkpt lat="45.38032179655749" lon="10.628837984324257"><ele>98.0</ele><time>2026-04-26T14:46:15.001Z</time></trkpt><trkpt lat="45.38026242319362" lon="10.628781034040042"><ele>98.16666666666666</ele><time>2026-04-26T14:46:16.001Z</time></trkpt><trkpt lat="45.380204829340705" lon="10.628729482622647"><ele>98.33333333333333</ele><time>2026-04-26T14:46:17.001Z</time></trkpt><trkpt lat="45.380149849120215" lon="10.628668044298987"><ele>98.5</ele><time>2026-04-26T14:46:18.001Z</time></trkpt><trkpt lat="45.38005149158513" lon="10.628597393113568"><ele>98.66666666666666</ele><time>2026-04-26T14:46:20.001Z</time></trkpt><trkpt lat="45.379986687896206" lon="10.628548648269499"><ele>98.83333333333333</ele><time>2026-04-26T14:46:23.001Z</time></trkpt><trkpt lat="45.38005269384769" lon="10.628469098233042"><ele>99.0</ele><time>2026-04-26T14:46:28.002Z</time></trkpt><trkpt lat="45.380172494289354" lon="10.62841466703666"><ele>99.2</ele><time>2026-04-26T14:46:30.002Z</time></trkpt><trkpt lat="45.3802390873902" lon="10.628330020904407"><ele>99.4</ele><time>2026-04-26T14:46:31.002Z</time></trkpt><trkpt lat="45.38032066977208" lon="10.628280368999373"><ele>99.6</ele><time>2026-04-26T14:46:32.002Z</time></trkpt><trkpt lat="45.38040478815645" lon="10.628222853195847"><ele>99.8</ele><time>2026-04-26T14:46:33.002Z</time></trkpt><trkpt lat="45.38048477599728" lon="10.628168866088878"><ele>100.0</ele><time>2026-04-26T14:46:34.002Z</time></trkpt><trkpt lat="45.38057742879269" lon="10.628110838667405"><ele>100.00000000000001</ele><time>2026-04-26T14:46:35.002Z</time></trkpt><trkpt lat="45.38067120852694" lon="10.628038402343101"><ele>100.0</ele><time>2026-04-26T14:46:36.002Z</time></trkpt><trkpt lat="45.38076572301115" lon="10.628025118738304"><ele>100.0</ele><time>2026-04-26T14:46:37.002Z</time></trkpt><trkpt lat="45.38084929830294" lon="10.627998384143114"><ele>100.0</ele><time>2026-04-26T14:46:38.002Z</time></trkpt><trkpt lat="45.380922944050695" lon="10.627975069833122"><ele>100.00000000000001</ele><time>2026-04-26T14:46:39.002Z</time></trkpt><trkpt lat="45.38099300965929" lon="10.62792795827894"><ele>100.0</ele><time>2026-04-26T14:46:40.002Z</time></trkpt><trkpt lat="45.38105787869548" lon="10.627908433542144"><ele>100.00000000000001</ele><time>2026-04-26T14:46:41.002Z</time></trkpt><trkpt lat="45.3811275383067" lon="10.627880666916376"><ele>100.0</ele><time>2026-04-26T14:46:42.002Z</time></trkpt><trkpt lat="45.381205423565916" lon="10.627784608831075"><ele>100.0</ele><time>2026-04-26T14:46:44.002Z</time></trkpt><trkpt lat="45.38125226988307" lon="10.62767076246678"><ele>100.0</ele><time>2026-04-26T14:46:46.002Z</time></trkpt><trkpt lat="45.38128813859956" lon="10.627571060920925"><ele>100.00000000000001</ele><time>2026-04-26T14:46:47.002Z</time></trkpt><trkpt lat="45.38130801139694" lon="10.62745058324779"><ele>100.0</ele><time>2026-04-26T14:46:48.002Z</time></trkpt><trkpt lat="45.381325368178636" lon="10.627301622265662"><ele>100.25</ele><time>2026-04-26T14:46:49.002Z</time></trkpt><trkpt lat="45.38133884489232" lon="10.627159893631998"><ele>100.5</ele><time>2026-04-26T14:46:50.002Z</time></trkpt><trkpt lat="45.3813505225605" lon="10.626969395398955"><ele>100.75</ele><time>2026-04-26T14:46:51.002Z</time></trkpt><trkpt lat="45.38138929310906" lon="10.626798276851842"><ele>101.0</ele><time>2026-04-26T14:46:52.002Z</time></trkpt><trkpt lat="45.38139767349825" lon="10.626628769554467"><ele>101.0</ele><time>2026-04-26T14:46:53.002Z</time></trkpt><trkpt lat="45.38143105278158" lon="10.626441832201806"><ele>101.0</ele><time>2026-04-26T14:46:54.002Z</time></trkpt><trkpt lat="45.381457728831904" lon="10.626253910778773"><ele>101.0</ele><time>2026-04-26T14:46:55.002Z</time></trkpt><trkpt lat="45.381498481887846" lon="10.626072893107722"><ele>101.0</ele><time>2026-04-26T14:46:56.002Z</time></trkpt><trkpt lat="45.3815144885114" lon="10.625874311578304"><ele>100.75</ele><time>2026-04-26T14:46:57.002Z</time></trkpt><trkpt lat="45.381543124127006" lon="10.625675601945108"><ele>100.5</ele><time>2026-04-26T14:46:58.002Z</time></trkpt><trkpt lat="45.3815644679682" lon="10.625483808268237"><ele>100.25</ele><time>2026-04-26T14:46:59Z</time></trkpt><trkpt lat="45.38159045349488" lon="10.625306590580086"><ele>100.0</ele><time>2026-04-26T14:47:00Z</time></trkpt><trkpt lat="45.38161589059957" lon="10.625129096810529"><ele>99.75</ele><time>2026-04-26T14:47:01.001Z</time></trkpt><trkpt lat="45.381631143448914" lon="10.624956064248492"><ele>99.5</ele><time>2026-04-26T14:47:02.001Z</time></trkpt><trkpt lat="45.381626693117916" lon="10.624771661950126"><ele>99.25</ele><time>2026-04-26T14:47:03Z</time></trkpt><trkpt lat="45.38163608610339" lon="10.624606293856006"><ele>99.0</ele><time>2026-04-26T14:47:04.001Z</time></trkpt><trkpt lat="45.38164782994445" lon="10.624424969583242"><ele>99.5</ele><time>2026-04-26T14:47:05Z</time></trkpt><trkpt lat="45.381647556263204" lon="10.624241113535115"><ele>100.0</ele><time>2026-04-26T14:47:06Z</time></trkpt><trkpt lat="45.381663906693085" lon="10.624066109540669"><ele>100.5</ele><time>2026-04-26T14:47:07.001Z</time></trkpt><trkpt lat="45.38167885988628" lon="10.623896620769926"><ele>101.0</ele><time>2026-04-26T14:47:08Z</time></trkpt><trkpt lat="45.381703262137265" lon="10.623765347965977"><ele>100.99999999999999</ele><time>2026-04-26T14:47:09Z</time></trkpt><trkpt lat="45.38169958747042" lon="10.62364893626099"><ele>101.0</ele><time>2026-04-26T14:47:10.001Z</time></trkpt><trkpt lat="45.38170502306073" lon="10.623540056385952"><ele>101.0</ele><time>2026-04-26T14:47:11Z</time></trkpt><trkpt lat="45.38171263903683" lon="10.623441059847112"><ele>101.0</ele><time>2026-04-26T14:47:12Z</time></trkpt><trkpt lat="45.38169286213234" lon="10.623286003262546"><ele>100.99999999999999</ele><time>2026-04-26T14:47:14.001Z</time></trkpt><trkpt lat="45.38163462783259" lon="10.623214375037351"><ele>101.0</ele><time>2026-04-26T14:47:16.001Z</time></trkpt><trkpt lat="45.381551722554995" lon="10.62319891924488"><ele>100.83333333333333</ele><time>2026-04-26T14:47:18.001Z</time></trkpt><trkpt lat="45.381438571157204" lon="10.623178886146977"><ele>100.66666666666666</ele><time>2026-04-26T14:47:20.001Z</time></trkpt><trkpt lat="45.38136543188343" lon="10.623166721553963"><ele>100.5</ele><time>2026-04-26T14:47:21.001Z</time></trkpt><trkpt lat="45.381287042939064" lon="10.623168696118563"><ele>100.33333333333334</ele><time>2026-04-26T14:47:22.001Z</time></trkpt><trkpt lat="45.38121677712604" lon="10.623165235436263"><ele>100.16666666666667</ele><time>2026-04-26T14:47:23.001Z</time></trkpt><trkpt lat="45.38114593493832" lon="10.623170578417668"><ele>100.0</ele><time>2026-04-26T14:47:24.001Z</time></trkpt><trkpt lat="45.381088289280584" lon="10.623315844731351"><ele>100.8</ele><time>2026-04-26T14:47:25.001Z</time></trkpt><trkpt lat="45.381031728187544" lon="10.62337905945831"><ele>101.6</ele><time>2026-04-26T14:47:26.001Z</time></trkpt><trkpt lat="45.38096813835671" lon="10.623451193747982"><ele>102.4</ele><time>2026-04-26T14:47:27.001Z</time></trkpt><trkpt lat="45.38090223189693" lon="10.62350136147825"><ele>103.2</ele><time>2026-04-26T14:47:28.001Z</time></trkpt><trkpt lat="45.38078996340128" lon="10.623577930816115"><ele>104.0</ele><time>2026-04-26T14:47:30.001Z</time></trkpt><trkpt lat="45.38068275766563" lon="10.623639421015627"><ele>103.83333333333333</ele><time>2026-04-26T14:47:32.001Z</time></trkpt><trkpt lat="45.380584621003415" lon="10.623665466808484"><ele>103.66666666666666</ele><time>2026-04-26T14:47:34.001Z</time></trkpt><trkpt lat="45.380479799570764" lon="10.623667180849589"><ele>103.5</ele><time>2026-04-26T14:47:36.001Z</time></trkpt><trkpt lat="45.380424734121455" lon="10.623589514893457"><ele>103.33333333333334</ele><time>2026-04-26T14:47:38.001Z</time></trkpt><trkpt lat="45.38037847675377" lon="10.623526369674638"><ele>103.16666666666667</ele><time>2026-04-26T14:47:51.001Z</time></trkpt><trkpt lat="45.38030159005935" lon="10.623447151065728"><ele>103.0</ele><time>2026-04-26T14:47:53.001Z</time></trkpt><trkpt lat="45.38022577434561" lon="10.623369035939985"><ele>104.25</ele><time>2026-04-26T14:47:55.001Z</time></trkpt><trkpt lat="45.38043435423311" lon="10.62310975352633"><ele>105.5</ele><time>2026-04-26T14:47:56.001Z</time></trkpt><trkpt lat="45.38037711301207" lon="10.622998147451924"><ele>106.75</ele><time>2026-04-26T14:47:58.001Z</time></trkpt><trkpt lat="45.380318000076215" lon="10.622937772544493"><ele>108.0</ele><time>2026-04-26T14:48:00.001Z</time></trkpt><trkpt lat="45.37985681086282" lon="10.623302963654204"><ele>108.0</ele><time>2026-04-26T14:48:02.001Z</time></trkpt><trkpt lat="45.37977786818581" lon="10.623343887169945"><ele>108.00000000000001</ele><time>2026-04-26T14:48:04.001Z</time></trkpt><trkpt lat="45.379696114292855" lon="10.623421263521443"><ele>108.00000000000001</ele><time>2026-04-26T14:48:06.001Z</time></trkpt><trkpt lat="45.379603282649015" lon="10.623507466265371"><ele>108.0</ele><time>2026-04-26T14:48:08.001Z</time></trkpt><trkpt lat="45.37952900574834" lon="10.623559132047163"><ele>108.0</ele><time>2026-04-26T14:48:10.001Z</time></trkpt><trkpt lat="45.37945464149532" lon="10.623514954686836"><ele>109.66666666666667</ele><time>2026-04-26T14:48:12.001Z</time></trkpt><trkpt lat="45.37936253452061" lon="10.623371304383166"><ele>111.33333333333334</ele><time>2026-04-26T14:48:14.001Z</time></trkpt><trkpt lat="45.37932111288761" lon="10.623292844388585"><ele>113.0</ele><time>2026-04-26T14:48:15.001Z</time></trkpt><trkpt lat="45.37927275570567" lon="10.623212476277821"><ele>114.66666666666667</ele><time>2026-04-26T14:48:16.001Z</time></trkpt><trkpt lat="45.37922555093319" lon="10.623131171944868"><ele>116.33333333333334</ele><time>2026-04-26T14:48:17.001Z</time></trkpt><trkpt lat="45.37916805773583" lon="10.623040945008901"><ele>118.0</ele><time>2026-04-26T14:48:18.001Z</time></trkpt><trkpt lat="45.37908952562825" lon="10.622899834264896"><ele>118.00000000000001</ele><time>2026-04-26T14:48:20.001Z</time></trkpt><trkpt lat="45.379039109981015" lon="10.622823547745597"><ele>118.0</ele><time>2026-04-26T14:48:21.001Z</time></trkpt><trkpt lat="45.378993858122584" lon="10.622739275129495"><ele>118.0</ele><time>2026-04-26T14:48:22.001Z</time></trkpt><trkpt lat="45.378947848100545" lon="10.622650966926471"><ele>118.0</ele><time>2026-04-26T14:48:23.001Z</time></trkpt><trkpt lat="45.378906682934414" lon="10.622570283125501"><ele>118.00000000000001</ele><time>2026-04-26T14:48:24.001Z</time></trkpt><trkpt lat="45.37886569582376" lon="10.622490706805621"><ele>118.0</ele><time>2026-04-26T14:48:25.001Z</time></trkpt><trkpt lat="45.37880989341751" lon="10.622365456879562"><ele>121.0</ele><time>2026-04-26T14:48:27.001Z</time></trkpt><trkpt lat="45.37873084148157" lon="10.622302181367694"><ele>124.00000000000001</ele><time>2026-04-26T14:48:29.001Z</time></trkpt><trkpt lat="45.37865749939551" lon="10.622400517858729"><ele>127.00000000000001</ele><time>2026-04-26T14:48:31.001Z</time></trkpt><trkpt lat="45.37862358086691" lon="10.622591116513652"><ele>130.0</ele><time>2026-04-26T14:48:33.001Z</time></trkpt><trkpt lat="45.37861164601269" lon="10.622703873595558"><ele>133.0</ele><time>2026-04-26T14:48:34.001Z</time></trkpt><trkpt lat="45.378597967133956" lon="10.62279634248489"><ele>132.6</ele><time>2026-04-26T14:48:35.001Z</time></trkpt><trkpt lat="45.378587996824535" lon="10.62289467797184"><ele>132.20000000000002</ele><time>2026-04-26T14:48:36.001Z</time></trkpt><trkpt lat="45.378580714847494" lon="10.622983859029292"><ele>131.8</ele><time>2026-04-26T14:48:37.001Z</time></trkpt><trkpt lat="45.3785712512334" lon="10.623148353367098"><ele>131.4</ele><time>2026-04-26T14:48:39.001Z</time></trkpt><trkpt lat="45.378560630495926" lon="10.623330000770554"><ele>131.0</ele><time>2026-04-26T14:48:41.002Z</time></trkpt><trkpt lat="45.37853838158343" lon="10.623432550021208"><ele>131.0</ele><time>2026-04-26T14:48:43.002Z</time></trkpt><trkpt lat="45.3784999828832" lon="10.623528235590769"><ele>131.0</ele><time>2026-04-26T14:48:45.002Z</time></trkpt><trkpt lat="45.37842047810617" lon="10.623616219063964"><ele>131.0</ele><time>2026-04-26T14:48:47.002Z</time></trkpt><trkpt lat="45.37836175782496" lon="10.6236623810131"><ele>131.0</ele><time>2026-04-26T14:48:48.002Z</time></trkpt><trkpt lat="45.378288168632494" lon="10.62369189141503"><ele>131.0</ele><time>2026-04-26T14:48:49.002Z</time></trkpt><trkpt lat="45.37819147258517" lon="10.623719799901615"><ele>131.0</ele><time>2026-04-26T14:48:51.002Z</time></trkpt><trkpt lat="45.37813784771131" lon="10.623771316232247"><ele>130.6</ele><time>2026-04-26T14:48:53.002Z</time></trkpt><trkpt lat="45.37811656983111" lon="10.623890162167417"><ele>130.2</ele><time>2026-04-26T14:48:55.002Z</time></trkpt><trkpt lat="45.37806953567726" lon="10.624061190708819"><ele>129.8</ele><time>2026-04-26T14:48:57.002Z</time></trkpt><trkpt lat="45.37804135031175" lon="10.624173017054627"><ele>129.4</ele><time>2026-04-26T14:48:58.002Z</time></trkpt><trkpt lat="45.3780185710132" lon="10.624280953950429"><ele>129.0</ele><time>2026-04-26T14:48:59.002Z</time></trkpt><trkpt lat="45.378002168962794" lon="10.62438206855236"><ele>128.8</ele><time>2026-04-26T14:49:00.002Z</time></trkpt><trkpt lat="45.37796072283845" lon="10.624507023103229"><ele>128.60000000000002</ele><time>2026-04-26T14:49:02.002Z</time></trkpt><trkpt lat="45.37789867790948" lon="10.624604345478835"><ele>128.4</ele><time>2026-04-26T14:49:04.002Z</time></trkpt><trkpt lat="45.37778717646703" lon="10.624687686023094"><ele>128.20000000000002</ele><time>2026-04-26T14:49:06.001Z</time></trkpt><trkpt lat="45.37772867790126" lon="10.624750710606763"><ele>128.0</ele><time>2026-04-26T14:49:07.001Z</time></trkpt><trkpt lat="45.37765617021986" lon="10.624791463556722"><ele>128.0</ele><time>2026-04-26T14:49:08.001Z</time></trkpt><trkpt lat="45.377580184498854" lon="10.624857425407269"><ele>127.99999999999999</ele><time>2026-04-26T14:49:09.001Z</time></trkpt><trkpt lat="45.377510564536635" lon="10.62491512688182"><ele>128.0</ele><time>2026-04-26T14:49:10.001Z</time></trkpt><trkpt lat="45.377444819312615" lon="10.624969615935457"><ele>128.0</ele><time>2026-04-26T14:49:11.001Z</time></trkpt><trkpt lat="45.37738615189038" lon="10.625016687760617"><ele>127.99999999999999</ele><time>2026-04-26T14:49:12.001Z</time></trkpt><trkpt lat="45.37733157776127" lon="10.625066112249048"><ele>128.0</ele><time>2026-04-26T14:49:13.001Z</time></trkpt><trkpt lat="45.37727093293246" lon="10.62510685688558"><ele>128.0</ele><time>2026-04-26T14:49:14.001Z</time></trkpt><trkpt lat="45.377209117029246" lon="10.625152068814504"><ele>127.99999999999999</ele><time>2026-04-26T14:49:15.001Z</time></trkpt><trkpt lat="45.37714109255633" lon="10.62519215522766"><ele>128.0</ele><time>2026-04-26T14:49:16.001Z</time></trkpt><trkpt lat="45.3770779514754" lon="10.625258261972224"><ele>128.0</ele><time>2026-04-26T14:49:17.001Z</time></trkpt><trkpt lat="45.37700859390575" lon="10.625316758558204"><ele>128.0</ele><time>2026-04-26T14:49:18.001Z</time></trkpt><trkpt lat="45.376947796929585" lon="10.625354906628662"><ele>127.99999999999999</ele><time>2026-04-26T14:49:19.001Z</time></trkpt><trkpt lat="45.3768600678995" lon="10.62550029254979"><ele>128.0</ele><time>2026-04-26T14:49:21.001Z</time></trkpt><trkpt lat="45.37682167509569" lon="10.625601714551001"><ele>128.14285714285714</ele><time>2026-04-26T14:49:22.001Z</time></trkpt><trkpt lat="45.376812973691685" lon="10.625707571186705"><ele>128.28571428571428</ele><time>2026-04-26T14:49:23.001Z</time></trkpt><trkpt lat="45.376786503679895" lon="10.625796836510979"><ele>128.42857142857142</ele><time>2026-04-26T14:49:24.001Z</time></trkpt><trkpt lat="45.37677059635193" lon="10.625913593411509"><ele>128.57142857142856</ele><time>2026-04-26T14:49:25.001Z</time></trkpt><trkpt lat="45.376770805865014" lon="10.626010554720015"><ele>128.71428571428572</ele><time>2026-04-26T14:49:26.001Z</time></trkpt><trkpt lat="45.37675881485554" lon="10.626112501510214"><ele>128.85714285714283</ele><time>2026-04-26T14:49:27.001Z</time></trkpt><trkpt lat="45.376755311784514" lon="10.626216942003069"><ele>129.0</ele><time>2026-04-26T14:49:28.001Z</time></trkpt><trkpt lat="45.37673945216307" lon="10.626325322444583"><ele>129.0</ele><time>2026-04-26T14:49:29.001Z</time></trkpt><trkpt lat="45.3767347433538" lon="10.626447716133034"><ele>129.0</ele><time>2026-04-26T14:49:30.001Z</time></trkpt><trkpt lat="45.37672261075526" lon="10.626651463383839"><ele>129.0</ele><time>2026-04-26T14:49:31.001Z</time></trkpt><trkpt lat="45.37671078852295" lon="10.62688535839794"><ele>129.0</ele><time>2026-04-26T14:49:32.001Z</time></trkpt><trkpt lat="45.37670359723714" lon="10.62710332087282"><ele>128.83333333333334</ele><time>2026-04-26T14:49:33.001Z</time></trkpt><trkpt lat="45.37667549098957" lon="10.62726757860184"><ele>128.66666666666666</ele><time>2026-04-26T14:49:34.001Z</time></trkpt><trkpt lat="45.37666668362696" lon="10.627387873236769"><ele>128.5</ele><time>2026-04-26T14:49:35.001Z</time></trkpt><trkpt lat="45.376658636181645" lon="10.627494716538505"><ele>128.33333333333331</ele><time>2026-04-26T14:49:36.001Z</time></trkpt><trkpt lat="45.37664925495621" lon="10.627588528563033"><ele>128.16666666666666</ele><time>2026-04-26T14:49:37.001Z</time></trkpt><trkpt lat="45.376639509801905" lon="10.627685981060967"><ele>128.0</ele><time>2026-04-26T14:49:38.001Z</time></trkpt><trkpt lat="45.37663419971879" lon="10.627793496183095"><ele>127.83333333333333</ele><time>2026-04-26T14:49:39.001Z</time></trkpt><trkpt lat="45.37661200805415" lon="10.627896350584315"><ele>127.66666666666666</ele><time>2026-04-26T14:49:40.001Z</time></trkpt><trkpt lat="45.376581708041925" lon="10.628015255042135"><ele>127.5</ele><time>2026-04-26T14:49:41.001Z</time></trkpt><trkpt lat="45.37654618535433" lon="10.628130322135577"><ele>127.33333333333334</ele><time>2026-04-26T14:49:42.001Z</time></trkpt><trkpt lat="45.3765126500546" lon="10.628243838718536"><ele>127.16666666666667</ele><time>2026-04-26T14:49:43.001Z</time></trkpt><trkpt lat="45.37646878304506" lon="10.62833121684871"><ele>127.0</ele><time>2026-04-26T14:49:44.001Z</time></trkpt><trkpt lat="45.37643126970621" lon="10.628435659301902"><ele>127.00000000000001</ele><time>2026-04-26T14:49:45.001Z</time></trkpt><trkpt lat="45.37636387690413" lon="10.628586506139422"><ele>127.0</ele><time>2026-04-26T14:49:47.001Z</time></trkpt><trkpt lat="45.376313474503064" lon="10.628660797851492"><ele>127.0</ele><time>2026-04-26T14:49:48.001Z</time></trkpt><trkpt lat="45.3762541487582" lon="10.628724535169193"><ele>127.0</ele><time>2026-04-26T14:49:49.001Z</time></trkpt><trkpt lat="45.37619567777956" lon="10.628782573953982"><ele>127.00000000000001</ele><time>2026-04-26T14:49:50.001Z</time></trkpt><trkpt lat="45.37613470013328" lon="10.628838032764493"><ele>127.0</ele><time>2026-04-26T14:49:51.001Z</time></trkpt><trkpt lat="45.376061460273725" lon="10.628902338506254"><ele>126.33333333333334</ele><time>2026-04-26T14:49:52.001Z</time></trkpt><trkpt lat="45.376000277214025" lon="10.628980970632716"><ele>125.66666666666667</ele><time>2026-04-26T14:49:53.001Z</time></trkpt><trkpt lat="45.3759314188404" lon="10.629030542843905"><ele>125.0</ele><time>2026-04-26T14:49:54.001Z</time></trkpt><trkpt lat="45.37586035901021" lon="10.629102519678197"><ele>124.33333333333334</ele><time>2026-04-26T14:49:55.001Z</time></trkpt><trkpt lat="45.37578693389117" lon="10.629171871769351"><ele>123.66666666666667</ele><time>2026-04-26T14:49:56.001Z</time></trkpt><trkpt lat="45.37570988767408" lon="10.629239867289519"><ele>123.0</ele><time>2026-04-26T14:49:57.001Z</time></trkpt><trkpt lat="45.37562580069856" lon="10.62930389096307"><ele>123.0</ele><time>2026-04-26T14:49:58.001Z</time></trkpt><trkpt lat="45.37553718558215" lon="10.629375797363165"><ele>123.00000000000001</ele><time>2026-04-26T14:49:59.001Z</time></trkpt><trkpt lat="45.37545817076841" lon="10.629439904795502"><ele>123.00000000000001</ele><time>2026-04-26T14:50:00.001Z</time></trkpt><trkpt lat="45.37536983349005" lon="10.629498771502458"><ele>123.0</ele><time>2026-04-26T14:50:01.001Z</time></trkpt><trkpt lat="45.37527595857225" lon="10.629560339851944"><ele>123.0</ele><time>2026-04-26T14:50:02.001Z</time></trkpt><trkpt lat="45.375189868326224" lon="10.629630535202407"><ele>122.83333333333333</ele><time>2026-04-26T14:50:03.001Z</time></trkpt><trkpt lat="45.3751091029659" lon="10.629703024851855"><ele>122.66666666666666</ele><time>2026-04-26T14:50:04.001Z</time></trkpt><trkpt lat="45.37503163164363" lon="10.629772895742843"><ele>122.5</ele><time>2026-04-26T14:50:05.001Z</time></trkpt><trkpt lat="45.374969583858935" lon="10.629820813447713"><ele>122.33333333333333</ele><time>2026-04-26T14:50:06.001Z</time></trkpt><trkpt lat="45.374896885733975" lon="10.629849795865363"><ele>122.16666666666666</ele><time>2026-04-26T14:50:07.001Z</time></trkpt><trkpt lat="45.3748370089119" lon="10.629882315625089"><ele>122.0</ele><time>2026-04-26T14:50:08.001Z</time></trkpt><trkpt lat="45.37458595739907" lon="10.629936495040639"><ele>120.8</ele><time>2026-04-26T14:50:12.001Z</time></trkpt><trkpt lat="45.37450725571184" lon="10.629930696807673"><ele>119.6</ele><time>2026-04-26T14:50:13.001Z</time></trkpt><trkpt lat="45.374385305848605" lon="10.629932885170456"><ele>118.39999999999999</ele><time>2026-04-26T14:50:15.001Z</time></trkpt><trkpt lat="45.374258661377674" lon="10.63000016236819"><ele>117.19999999999999</ele><time>2026-04-26T14:50:17.001Z</time></trkpt><trkpt lat="45.374194717705876" lon="10.63007011364301"><ele>116.0</ele><time>2026-04-26T14:50:18.001Z</time></trkpt><trkpt lat="45.37412769406557" lon="10.630163122419523"><ele>116.0</ele><time>2026-04-26T14:50:19.001Z</time></trkpt><trkpt lat="45.37406471264688" lon="10.630262658605586"><ele>116.0</ele><time>2026-04-26T14:50:20.001Z</time></trkpt><trkpt lat="45.37400276142706" lon="10.630352045176979"><ele>116.0</ele><time>2026-04-26T14:50:21.001Z</time></trkpt><trkpt lat="45.373949643257085" lon="10.630417247033783"><ele>116.0</ele><time>2026-04-26T14:50:22.001Z</time></trkpt><trkpt lat="45.373862559217024" lon="10.630529715811956"><ele>116.0</ele><time>2026-04-26T14:50:24.001Z</time></trkpt><trkpt lat="45.37377186747886" lon="10.630625373880013"><ele>115.16666666666666</ele><time>2026-04-26T14:50:26.001Z</time></trkpt><trkpt lat="45.373713594787574" lon="10.630691728005944"><ele>114.33333333333333</ele><time>2026-04-26T14:50:27.001Z</time></trkpt><trkpt lat="45.37363190280877" lon="10.630784091717299"><ele>113.5</ele><time>2026-04-26T14:50:29.001Z</time></trkpt><trkpt lat="45.37355153303098" lon="10.63087488571179"><ele>112.66666666666666</ele><time>2026-04-26T14:50:31.002Z</time></trkpt><trkpt lat="45.373504816488" lon="10.63094960749983"><ele>111.83333333333333</ele><time>2026-04-26T14:50:33.002Z</time></trkpt><trkpt lat="45.3734453902515" lon="10.63099753847298"><ele>111.0</ele><time>2026-04-26T14:50:37.002Z</time></trkpt><trkpt lat="45.37341915755054" lon="10.630906554242475"><ele>111.0</ele><time>2026-04-26T14:50:42.002Z</time></trkpt><trkpt lat="45.37338978163682" lon="10.630825938824309"><ele>111.0</ele><time>2026-04-26T14:50:43.002Z</time></trkpt><trkpt lat="45.37334396712843" lon="10.63074508191483"><ele>111.0</ele><time>2026-04-26T14:50:44.002Z</time></trkpt><trkpt lat="45.373324091661864" lon="10.630653155717104"><ele>111.0</ele><time>2026-04-26T14:50:45.002Z</time></trkpt><trkpt lat="45.37329103490398" lon="10.630544889249627"><ele>111.0</ele><time>2026-04-26T14:50:47.002Z</time></trkpt><trkpt lat="45.37326155027865" lon="10.63045267758811"><ele>111.0</ele><time>2026-04-26T14:50:50.002Z</time></trkpt><trkpt lat="45.37316493380374" lon="10.630458479805185"><ele>111.0</ele><time>2026-04-26T14:50:51.002Z</time></trkpt><trkpt lat="45.373099522793815" lon="10.630371396349418"><ele>111.0</ele><time>2026-04-26T14:50:53.002Z</time></trkpt><trkpt lat="45.37303945844998" lon="10.630291241631346"><ele>111.0</ele><time>2026-04-26T14:50:55.002Z</time></trkpt><trkpt lat="45.372972365609556" lon="10.630207545554883"><ele>111.0</ele><time>2026-04-26T14:50:57.002Z</time></trkpt><trkpt lat="45.37290373941787" lon="10.63015194774225"><ele>111.0</ele><time>2026-04-26T14:50:59.002Z</time></trkpt><trkpt lat="45.37286499542825" lon="10.630073604728567"><ele>111.0</ele><time>2026-04-26T14:51:03.002Z</time></trkpt><trkpt lat="45.37276037801434" lon="10.630280798680825"><ele>110.0</ele><time>2026-04-26T15:01:39.001Z</time></trkpt><trkpt lat="45.37272188327744" lon="10.630400961087087"><ele>109.0</ele><time>2026-04-26T15:01:40.999Z</time></trkpt><trkpt lat="45.372691635944754" lon="10.630564312016578"><ele>108.0</ele><time>2026-04-26T15:01:42.999Z</time></trkpt><trkpt lat="45.37267209295603" lon="10.63065084421921"><ele>107.0</ele><time>2026-04-26T15:01:43.999Z</time></trkpt><trkpt lat="45.37266730148021" lon="10.630791043705823"><ele>106.0</ele><time>2026-04-26T15:01:45.999Z</time></trkpt><trkpt lat="45.37261791037378" lon="10.63093967960879"><ele>106.0</ele><time>2026-04-26T15:01:47.999Z</time></trkpt><trkpt lat="45.372601390094005" lon="10.631037714787691"><ele>106.0</ele><time>2026-04-26T15:01:48.999Z</time></trkpt><trkpt lat="45.372584075257734" lon="10.631137870243512"><ele>106.0</ele><time>2026-04-26T15:01:49.999Z</time></trkpt><trkpt lat="45.37256658545456" lon="10.631235451121913"><ele>106.0</ele><time>2026-04-26T15:01:50.999Z</time></trkpt><trkpt lat="45.37254383402845" lon="10.63134093418801"><ele>106.0</ele><time>2026-04-26T15:01:51.999Z</time></trkpt><trkpt lat="45.372525357637485" lon="10.631432646837224"><ele>106.0</ele><time>2026-04-26T15:01:52.999Z</time></trkpt><trkpt lat="45.37250676853319" lon="10.631541006585532"><ele>106.0</ele><time>2026-04-26T15:01:53.999Z</time></trkpt><trkpt lat="45.37249218519989" lon="10.631634915355601"><ele>105.83333333333334</ele><time>2026-04-26T15:01:54.999Z</time></trkpt><trkpt lat="45.37247511868266" lon="10.631734041620284"><ele>105.66666666666667</ele><time>2026-04-26T15:01:55.999Z</time></trkpt><trkpt lat="45.37245966766361" lon="10.63182225598872"><ele>105.5</ele><time>2026-04-26T15:01:56.999Z</time></trkpt><trkpt lat="45.37244043979931" lon="10.631922396671646"><ele>105.33333333333334</ele><time>2026-04-26T15:01:57.999Z</time></trkpt><trkpt lat="45.37240542546195" lon="10.632081880755106"><ele>105.16666666666667</ele><time>2026-04-26T15:01:59.999Z</time></trkpt><trkpt lat="45.37237331817102" lon="10.632244938228693"><ele>105.0</ele><time>2026-04-26T15:02:01.999Z</time></trkpt><trkpt lat="45.3723430974588" lon="10.632385773361309"><ele>104.66666666666667</ele><time>2026-04-26T15:02:03.999Z</time></trkpt><trkpt lat="45.37234123033769" lon="10.63248611759921"><ele>104.33333333333334</ele><time>2026-04-26T15:02:05.999Z</time></trkpt><trkpt lat="45.37228270420748" lon="10.632536305800098"><ele>104.0</ele><time>2026-04-26T15:02:07.999Z</time></trkpt><trkpt lat="45.37220264819458" lon="10.632486949617673"><ele>103.66666666666667</ele><time>2026-04-26T15:02:09.999Z</time></trkpt><trkpt lat="45.37211888790048" lon="10.632411927226931"><ele>103.33333333333334</ele><time>2026-04-26T15:02:12Z</time></trkpt><trkpt lat="45.372043551209806" lon="10.632378046259895"><ele>103.0</ele><time>2026-04-26T15:02:14Z</time></trkpt><trkpt lat="45.37201078326274" lon="10.632253685604"><ele>102.80000000000001</ele><time>2026-04-26T15:02:17Z</time></trkpt><trkpt lat="45.37203776647547" lon="10.632101263920385"><ele>102.6</ele><time>2026-04-26T15:02:19Z</time></trkpt><trkpt lat="45.37206794865183" lon="10.631932041782266"><ele>102.4</ele><time>2026-04-26T15:02:21Z</time></trkpt><trkpt lat="45.37209351028993" lon="10.631812595926897"><ele>102.19999999999999</ele><time>2026-04-26T15:02:22Z</time></trkpt><trkpt lat="45.37212030481287" lon="10.631687388864956"><ele>102.0</ele><time>2026-04-26T15:02:23Z</time></trkpt><trkpt lat="45.37214914987762" lon="10.631552600036393"><ele>102.5</ele><time>2026-04-26T15:02:24Z</time></trkpt><trkpt lat="45.372170422099394" lon="10.6314531980241"><ele>103.0</ele><time>2026-04-26T15:02:25Z</time></trkpt><trkpt lat="45.37219194250466" lon="10.631347295411793"><ele>103.5</ele><time>2026-04-26T15:02:26Z</time></trkpt><trkpt lat="45.37220715811643" lon="10.631257214688581"><ele>104.0</ele><time>2026-04-26T15:02:27Z</time></trkpt><trkpt lat="45.372228342885236" lon="10.631087888446665"><ele>104.5</ele><time>2026-04-26T15:02:29Z</time></trkpt><trkpt lat="45.37220997803812" lon="10.631000782244351"><ele>105.0</ele><time>2026-04-26T15:02:30Z</time></trkpt><trkpt lat="45.37215823373323" lon="10.630934654691393"><ele>105.8</ele><time>2026-04-26T15:02:31Z</time></trkpt><trkpt lat="45.372089319578485" lon="10.630912456293826"><ele>106.6</ele><time>2026-04-26T15:02:32Z</time></trkpt><trkpt lat="45.37201300225357" lon="10.630883692906469"><ele>107.4</ele><time>2026-04-26T15:02:33Z</time></trkpt><trkpt lat="45.37192390123207" lon="10.63085184506168"><ele>108.2</ele><time>2026-04-26T15:02:34Z</time></trkpt><trkpt lat="45.37181399487669" lon="10.630835075795368"><ele>109.0</ele><time>2026-04-26T15:02:35Z</time></trkpt><trkpt lat="45.37171881029822" lon="10.63077099956196"><ele>109.00000000000001</ele><time>2026-04-26T15:02:36Z</time></trkpt><trkpt lat="45.371617781439234" lon="10.630718069656858"><ele>109.0</ele><time>2026-04-26T15:02:38Z</time></trkpt><trkpt lat="45.37154789632565" lon="10.630675449057472"><ele>109.0</ele><time>2026-04-26T15:02:40Z</time></trkpt><trkpt lat="45.371493685988355" lon="10.630804955222606"><ele>109.0</ele><time>2026-04-26T15:02:42Z</time></trkpt><trkpt lat="45.37148447356779" lon="10.63089694562613"><ele>109.00000000000001</ele><time>2026-04-26T15:02:43Z</time></trkpt><trkpt lat="45.37147358160481" lon="10.630986564482072"><ele>109.0</ele><time>2026-04-26T15:02:44Z</time></trkpt><trkpt lat="45.37144975689703" lon="10.631109161532091"><ele>108.80000000000001</ele><time>2026-04-26T15:02:46Z</time></trkpt><trkpt lat="45.37141792313549" lon="10.631276813084304"><ele>108.60000000000001</ele><time>2026-04-26T15:02:48Z</time></trkpt><trkpt lat="45.37137838124382" lon="10.631418688715666"><ele>108.4</ele><time>2026-04-26T15:02:50Z</time></trkpt><trkpt lat="45.37128856665747" lon="10.631494787233505"><ele>108.2</ele><time>2026-04-26T15:02:52Z</time></trkpt><trkpt lat="45.37117849190707" lon="10.631506616115315"><ele>108.0</ele><time>2026-04-26T15:02:54Z</time></trkpt><trkpt lat="45.37111340990668" lon="10.631469609452921"><ele>108.0</ele><time>2026-04-26T15:02:55Z</time></trkpt><trkpt lat="45.371028455824366" lon="10.631474791162335"><ele>108.0</ele><time>2026-04-26T15:02:56Z</time></trkpt><trkpt lat="45.37094841703397" lon="10.631460907073194"><ele>108.0</ele><time>2026-04-26T15:02:57.001Z</time></trkpt><trkpt lat="45.37086958457629" lon="10.631452526696481"><ele>108.0</ele><time>2026-04-26T15:02:58.001Z</time></trkpt><trkpt lat="45.370799174516065" lon="10.63145735595774"><ele>108.0</ele><time>2026-04-26T15:02:59.001Z</time></trkpt><trkpt lat="45.370735759359235" lon="10.63146303932383"><ele>108.0</ele><time>2026-04-26T15:03:00.001Z</time></trkpt><trkpt lat="45.370663349572766" lon="10.6314756143675"><ele>108.0</ele><time>2026-04-26T15:03:01.001Z</time></trkpt><trkpt lat="45.37059333331992" lon="10.631485396428111"><ele>108.0</ele><time>2026-04-26T15:03:02.001Z</time></trkpt><trkpt lat="45.370531252060886" lon="10.63150436257066"><ele>108.0</ele><time>2026-04-26T15:03:03.001Z</time></trkpt><trkpt lat="45.37046739810012" lon="10.631516320017733"><ele>108.0</ele><time>2026-04-26T15:03:04.001Z</time></trkpt><trkpt lat="45.37035757744593" lon="10.631557314966592"><ele>108.0</ele><time>2026-04-26T15:03:06.001Z</time></trkpt><trkpt lat="45.37029715340753" lon="10.631587225913878"><ele>108.0</ele><time>2026-04-26T15:03:07.001Z</time></trkpt><trkpt lat="45.37023015424287" lon="10.631609835648119"><ele>108.0</ele><time>2026-04-26T15:03:08.001Z</time></trkpt><trkpt lat="45.3701504286048" lon="10.631642274761754"><ele>108.80000000000001</ele><time>2026-04-26T15:03:09.001Z</time></trkpt><trkpt lat="45.37007152615319" lon="10.631670998543376"><ele>109.60000000000001</ele><time>2026-04-26T15:03:10.001Z</time></trkpt><trkpt lat="45.37000976847799" lon="10.631691738470757"><ele>110.39999999999999</ele><time>2026-04-26T15:03:11.001Z</time></trkpt><trkpt lat="45.36994895185331" lon="10.631718252440455"><ele>111.19999999999999</ele><time>2026-04-26T15:03:12.001Z</time></trkpt><trkpt lat="45.369826315862944" lon="10.631759331721819"><ele>112.0</ele><time>2026-04-26T15:03:14.001Z</time></trkpt><trkpt lat="45.36970665619532" lon="10.63181427804554"><ele>112.33333333333334</ele><time>2026-04-26T15:03:16.001Z</time></trkpt><trkpt lat="45.36964289093343" lon="10.631848702816288"><ele>112.66666666666667</ele><time>2026-04-26T15:03:17.001Z</time></trkpt><trkpt lat="45.36958307693091" lon="10.631880933760348"><ele>113.0</ele><time>2026-04-26T15:03:18.001Z</time></trkpt><trkpt lat="45.369476286386124" lon="10.631894090123074"><ele>113.33333333333334</ele><time>2026-04-26T15:03:20.001Z</time></trkpt><trkpt lat="45.36937153668672" lon="10.631919565959175"><ele>113.66666666666667</ele><time>2026-04-26T15:03:22.001Z</time></trkpt><trkpt lat="45.36926837541488" lon="10.631923984873307"><ele>114.0</ele><time>2026-04-26T15:03:24.001Z</time></trkpt><trkpt lat="45.36915262727221" lon="10.631907457612344"><ele>114.0</ele><time>2026-04-26T15:03:26.001Z</time></trkpt><trkpt lat="45.36902636341312" lon="10.631881080418147"><ele>114.0</ele><time>2026-04-26T15:03:28.001Z</time></trkpt><trkpt lat="45.368929115581814" lon="10.631852801254325"><ele>114.0</ele><time>2026-04-26T15:03:30.001Z</time></trkpt><trkpt lat="45.368838575558215" lon="10.631815981845826"><ele>114.0</ele><time>2026-04-26T15:03:32.001Z</time></trkpt><trkpt lat="45.36874003554577" lon="10.631878583614501"><ele>114.0</ele><time>2026-04-26T15:03:34.001Z</time></trkpt><trkpt lat="45.36863774313828" lon="10.631989040313774"><ele>112.16666666666667</ele><time>2026-04-26T15:03:36.001Z</time></trkpt><trkpt lat="45.368594665248814" lon="10.632054866852132"><ele>110.33333333333334</ele><time>2026-04-26T15:03:37.001Z</time></trkpt><trkpt lat="45.368535245696506" lon="10.63214918722482"><ele>108.5</ele><time>2026-04-26T15:03:38.001Z</time></trkpt><trkpt lat="45.368470952509334" lon="10.632238587138598"><ele>106.66666666666667</ele><time>2026-04-26T15:03:39.001Z</time></trkpt><trkpt lat="45.36841463250883" lon="10.632296070818153"><ele>104.83333333333334</ele><time>2026-04-26T15:03:40.001Z</time></trkpt><trkpt lat="45.36835334717976" lon="10.632335606924459"><ele>103.0</ele><time>2026-04-26T15:03:41.001Z</time></trkpt><trkpt lat="45.368266945673476" lon="10.63232093600847"><ele>103.0</ele><time>2026-04-26T15:03:42.001Z</time></trkpt><trkpt lat="45.36816651623602" lon="10.632332567622381"><ele>103.0</ele><time>2026-04-26T15:03:43.001Z</time></trkpt><trkpt lat="45.36804348817979" lon="10.632342506796661"><ele>103.0</ele><time>2026-04-26T15:03:44.001Z</time></trkpt><trkpt lat="45.3679206497138" lon="10.632357746252726"><ele>103.0</ele><time>2026-04-26T15:03:45.001Z</time></trkpt><trkpt lat="45.36783890958171" lon="10.632406113378126"><ele>103.0</ele><time>2026-04-26T15:03:46.001Z</time></trkpt><trkpt lat="45.36776246483372" lon="10.632439879616003"><ele>103.2</ele><time>2026-04-26T15:03:46.999Z</time></trkpt><trkpt lat="45.36767211197579" lon="10.63250760762498"><ele>103.4</ele><time>2026-04-26T15:03:47.999Z</time></trkpt><trkpt lat="45.367585034445106" lon="10.6326025935055"><ele>103.60000000000001</ele><time>2026-04-26T15:03:48.999Z</time></trkpt><trkpt lat="45.36752647433869" lon="10.632698823431484"><ele>103.80000000000001</ele><time>2026-04-26T15:03:49.999Z</time></trkpt><trkpt lat="45.36746593543595" lon="10.632800849772611"><ele>104.0</ele><time>2026-04-26T15:03:50.999Z</time></trkpt><trkpt lat="45.367406523113885" lon="10.632917330386622"><ele>104.16666666666666</ele><time>2026-04-26T15:03:51.999Z</time></trkpt><trkpt lat="45.3673364375478" lon="10.633014191279734"><ele>104.33333333333333</ele><time>2026-04-26T15:03:52.999Z</time></trkpt><trkpt lat="45.36728316439698" lon="10.633106844113621"><ele>104.5</ele><time>2026-04-26T15:03:53.999Z</time></trkpt><trkpt lat="45.36724410457003" lon="10.633177254998003"><ele>104.66666666666666</ele><time>2026-04-26T15:03:54.999Z</time></trkpt><trkpt lat="45.36719766645597" lon="10.633250040563876"><ele>104.83333333333333</ele><time>2026-04-26T15:03:55.999Z</time></trkpt><trkpt lat="45.36714879001073" lon="10.633328652391254"><ele>105.0</ele><time>2026-04-26T15:03:56.999Z</time></trkpt><trkpt lat="45.367071216565655" lon="10.633444550768749"><ele>105.0</ele><time>2026-04-26T15:03:58.999Z</time></trkpt><trkpt lat="45.36698549041747" lon="10.633523503508565"><ele>105.0</ele><time>2026-04-26T15:04:00.999Z</time></trkpt><trkpt lat="45.36690673187027" lon="10.633622458071818"><ele>105.0</ele><time>2026-04-26T15:04:02.999Z</time></trkpt><trkpt lat="45.36681315147491" lon="10.633678135150017"><ele>105.0</ele><time>2026-04-26T15:04:04.999Z</time></trkpt><trkpt lat="45.366731288654165" lon="10.633741422157401"><ele>105.0</ele><time>2026-04-26T15:04:06.999Z</time></trkpt><trkpt lat="45.36663114885479" lon="10.633808069664507"><ele>104.6</ele><time>2026-04-26T15:04:08.999Z</time></trkpt><trkpt lat="45.36653487127985" lon="10.633862770983447"><ele>104.2</ele><time>2026-04-26T15:04:10.999Z</time></trkpt><trkpt lat="45.36644732264638" lon="10.633900799028744"><ele>103.80000000000001</ele><time>2026-04-26T15:04:12.999Z</time></trkpt><trkpt lat="45.36634194808123" lon="10.633934761161207"><ele>103.4</ele><time>2026-04-26T15:04:14.999Z</time></trkpt><trkpt lat="45.36623113779951" lon="10.63394249381301"><ele>103.0</ele><time>2026-04-26T15:04:17Z</time></trkpt><trkpt lat="45.36615877623158" lon="10.633927198911177"><ele>103.0</ele><time>2026-04-26T15:04:18Z</time></trkpt><trkpt lat="45.36608843269152" lon="10.633906270622605"><ele>103.0</ele><time>2026-04-26T15:04:19Z</time></trkpt><trkpt lat="45.366018830776355" lon="10.633886425399249"><ele>103.0</ele><time>2026-04-26T15:04:20Z</time></trkpt><trkpt lat="45.36591335178586" lon="10.633878184850403"><ele>103.0</ele><time>2026-04-26T15:04:22Z</time></trkpt><trkpt lat="45.365824980392404" lon="10.633935991864083"><ele>103.0</ele><time>2026-04-26T15:04:24Z</time></trkpt><trkpt lat="45.36575230807316" lon="10.634081118866561"><ele>103.00000000000001</ele><time>2026-04-26T15:04:26Z</time></trkpt><trkpt lat="45.36571351072467" lon="10.634175210059862"><ele>103.0</ele><time>2026-04-26T15:04:27Z</time></trkpt><trkpt lat="45.36566848273602" lon="10.63427370540144"><ele>103.0</ele><time>2026-04-26T15:04:28Z</time></trkpt><trkpt lat="45.365625903177154" lon="10.63436161696403"><ele>103.0</ele><time>2026-04-26T15:04:29Z</time></trkpt><trkpt lat="45.36556930541538" lon="10.634459691540162"><ele>103.00000000000001</ele><time>2026-04-26T15:04:30Z</time></trkpt><trkpt lat="45.36551638120036" lon="10.63454652549621"><ele>103.0</ele><time>2026-04-26T15:04:31Z</time></trkpt><trkpt lat="45.365464514809155" lon="10.63464214234399"><ele>103.00000000000001</ele><time>2026-04-26T15:04:32Z</time></trkpt><trkpt lat="45.36542120115774" lon="10.634729992324155"><ele>103.0</ele><time>2026-04-26T15:04:33Z</time></trkpt><trkpt lat="45.36538274610476" lon="10.63482521525358"><ele>103.0</ele><time>2026-04-26T15:04:34Z</time></trkpt><trkpt lat="45.36535234513092" lon="10.634918411136958"><ele>103.0</ele><time>2026-04-26T15:04:35Z</time></trkpt><trkpt lat="45.36533281519256" lon="10.635017048774724"><ele>103.00000000000001</ele><time>2026-04-26T15:04:36Z</time></trkpt><trkpt lat="45.36533090685935" lon="10.635124924170922"><ele>103.0</ele><time>2026-04-26T15:04:37Z</time></trkpt><trkpt lat="45.36534499371478" lon="10.635238971701503"><ele>103.5</ele><time>2026-04-26T15:04:38Z</time></trkpt><trkpt lat="45.365379299960665" lon="10.635381152911718"><ele>104.0</ele><time>2026-04-26T15:04:39Z</time></trkpt><trkpt lat="45.36544022166966" lon="10.635563471721623"><ele>104.5</ele><time>2026-04-26T15:04:40Z</time></trkpt><trkpt lat="45.36550319286903" lon="10.63579766876328"><ele>105.0</ele><time>2026-04-26T15:04:41Z</time></trkpt><trkpt lat="45.365556520704686" lon="10.63595304130179"><ele>104.2</ele><time>2026-04-26T15:04:42Z</time></trkpt><trkpt lat="45.365594981728705" lon="10.636091250102744"><ele>103.4</ele><time>2026-04-26T15:04:43Z</time></trkpt><trkpt lat="45.36561544693827" lon="10.636228678038167"><ele>102.6</ele><time>2026-04-26T15:04:44Z</time></trkpt><trkpt lat="45.365631667887975" lon="10.636381822408662"><ele>101.8</ele><time>2026-04-26T15:04:45Z</time></trkpt><trkpt lat="45.36564511812205" lon="10.63657040109622"><ele>101.0</ele><time>2026-04-26T15:04:46Z</time></trkpt><trkpt lat="45.365662212153325" lon="10.636704868111961"><ele>101.0</ele><time>2026-04-26T15:04:47Z</time></trkpt><trkpt lat="45.365691954771336" lon="10.636845459154838"><ele>101.0</ele><time>2026-04-26T15:04:48Z</time></trkpt><trkpt lat="45.36569915475541" lon="10.636983458469706"><ele>101.0</ele><time>2026-04-26T15:04:49Z</time></trkpt><trkpt lat="45.36570008725895" lon="10.637102601419219"><ele>101.0</ele><time>2026-04-26T15:04:50Z</time></trkpt><trkpt lat="45.36568207156078" lon="10.637220846630365"><ele>101.0</ele><time>2026-04-26T15:04:51Z</time></trkpt><trkpt lat="45.36564379356215" lon="10.637339550624526"><ele>101.19999999999999</ele><time>2026-04-26T15:04:52Z</time></trkpt><trkpt lat="45.3655980614794" lon="10.637441880203747"><ele>101.39999999999999</ele><time>2026-04-26T15:04:53Z</time></trkpt><trkpt lat="45.365521167607476" lon="10.637537541012758"><ele>101.6</ele><time>2026-04-26T15:04:54Z</time></trkpt><trkpt lat="45.365438527148015" lon="10.637643506354268"><ele>101.8</ele><time>2026-04-26T15:04:55Z</time></trkpt><trkpt lat="45.36533885089414" lon="10.63774755664153"><ele>102.0</ele><time>2026-04-26T15:04:56Z</time></trkpt><trkpt lat="45.36526022945447" lon="10.637822220056226"><ele>102.19999999999999</ele><time>2026-04-26T15:04:57Z</time></trkpt><trkpt lat="45.3651817460276" lon="10.637892133814344"><ele>102.4</ele><time>2026-04-26T15:04:58.001Z</time></trkpt><trkpt lat="45.36511931881272" lon="10.637987148155503"><ele>102.6</ele><time>2026-04-26T15:04:59.001Z</time></trkpt><trkpt lat="45.36505450226016" lon="10.638145647888498"><ele>102.80000000000001</ele><time>2026-04-26T15:05:00.001Z</time></trkpt><trkpt lat="45.36499933919579" lon="10.638297692044155"><ele>103.0</ele><time>2026-04-26T15:05:01.001Z</time></trkpt><trkpt lat="45.364946591097286" lon="10.63843053261496"><ele>103.0</ele><time>2026-04-26T15:05:02.001Z</time></trkpt><trkpt lat="45.36490121011767" lon="10.638573822038655"><ele>103.0</ele><time>2026-04-26T15:05:03.001Z</time></trkpt><trkpt lat="45.36487093559337" lon="10.6387307853411"><ele>103.0</ele><time>2026-04-26T15:05:04.001Z</time></trkpt><trkpt lat="45.36483520742539" lon="10.638887474952927"><ele>103.0</ele><time>2026-04-26T15:05:05.001Z</time></trkpt><trkpt lat="45.36479237791019" lon="10.63902316047865"><ele>103.0</ele><time>2026-04-26T15:05:06.001Z</time></trkpt><trkpt lat="45.36475662299053" lon="10.639148522490064"><ele>103.0</ele><time>2026-04-26T15:05:07.001Z</time></trkpt><trkpt lat="45.36472990429745" lon="10.639273321238862"><ele>103.0</ele><time>2026-04-26T15:05:08.001Z</time></trkpt><trkpt lat="45.364717879553766" lon="10.639406614714272"><ele>103.0</ele><time>2026-04-26T15:05:09.001Z</time></trkpt><trkpt lat="45.36471429370483" lon="10.639541951866596"><ele>103.0</ele><time>2026-04-26T15:05:10.001Z</time></trkpt><trkpt lat="45.364714360002274" lon="10.63967030826355"><ele>103.0</ele><time>2026-04-26T15:05:11.001Z</time></trkpt><trkpt lat="45.36470260407261" lon="10.639823244594956"><ele>103.4</ele><time>2026-04-26T15:05:12.001Z</time></trkpt><trkpt lat="45.36469353759578" lon="10.639955854292932"><ele>103.80000000000001</ele><time>2026-04-26T15:05:13.001Z</time></trkpt><trkpt lat="45.36469180456482" lon="10.64008610775049"><ele>104.2</ele><time>2026-04-26T15:05:14.001Z</time></trkpt><trkpt lat="45.364689754222006" lon="10.640215231787966"><ele>104.6</ele><time>2026-04-26T15:05:15.001Z</time></trkpt><trkpt lat="45.36469140378731" lon="10.640368979067217"><ele>105.0</ele><time>2026-04-26T15:05:16.001Z</time></trkpt><trkpt lat="45.36469303900416" lon="10.640510948632926"><ele>104.8</ele><time>2026-04-26T15:05:17.001Z</time></trkpt><trkpt lat="45.3647039562611" lon="10.640653409038455"><ele>104.6</ele><time>2026-04-26T15:05:18.001Z</time></trkpt><trkpt lat="45.36473112147674" lon="10.64079642095523"><ele>104.4</ele><time>2026-04-26T15:05:19.001Z</time></trkpt><trkpt lat="45.364786193947396" lon="10.640929864807186"><ele>104.2</ele><time>2026-04-26T15:05:20.001Z</time></trkpt><trkpt lat="45.36485442531438" lon="10.641078597892532"><ele>104.0</ele><time>2026-04-26T15:05:21.001Z</time></trkpt><trkpt lat="45.364916427007884" lon="10.641228839861618"><ele>104.0</ele><time>2026-04-26T15:05:22.001Z</time></trkpt><trkpt lat="45.36497955576122" lon="10.641375893184092"><ele>104.0</ele><time>2026-04-26T15:05:23.001Z</time></trkpt><trkpt lat="45.36503510552863" lon="10.641521983248523"><ele>104.0</ele><time>2026-04-26T15:05:24.001Z</time></trkpt><trkpt lat="45.3650975052478" lon="10.641670423281816"><ele>104.0</ele><time>2026-04-26T15:05:25.001Z</time></trkpt><trkpt lat="45.365162650885644" lon="10.641804158971674"><ele>104.0</ele><time>2026-04-26T15:05:26.001Z</time></trkpt><trkpt lat="45.365223262016194" lon="10.641938817766967"><ele>104.0</ele><time>2026-04-26T15:05:27.001Z</time></trkpt><trkpt lat="45.36526484019573" lon="10.642082460656155"><ele>104.0</ele><time>2026-04-26T15:05:28.001Z</time></trkpt><trkpt lat="45.36528301078129" lon="10.64223535707179"><ele>104.0</ele><time>2026-04-26T15:05:29.001Z</time></trkpt><trkpt lat="45.36525015237697" lon="10.642398759629728"><ele>104.75</ele><time>2026-04-26T15:05:30.001Z</time></trkpt><trkpt lat="45.36521216508571" lon="10.642580307456143"><ele>105.5</ele><time>2026-04-26T15:05:31.001Z</time></trkpt><trkpt lat="45.36518862177317" lon="10.642806104784428"><ele>106.25</ele><time>2026-04-26T15:05:32.001Z</time></trkpt><trkpt lat="45.36516922284995" lon="10.642997784760997"><ele>107.0</ele><time>2026-04-26T15:05:33.001Z</time></trkpt><trkpt lat="45.3651601449329" lon="10.643149206551074"><ele>106.99999999999999</ele><time>2026-04-26T15:05:34.001Z</time></trkpt><trkpt lat="45.365155873926476" lon="10.643274650541924"><ele>107.0</ele><time>2026-04-26T15:05:35.001Z</time></trkpt><trkpt lat="45.36514889593544" lon="10.643403524083867"><ele>107.0</ele><time>2026-04-26T15:05:36.001Z</time></trkpt><trkpt lat="45.365137342328794" lon="10.643498880433878"><ele>107.0</ele><time>2026-04-26T15:05:37.001Z</time></trkpt><trkpt lat="45.365127485023116" lon="10.643669387867808"><ele>106.99999999999999</ele><time>2026-04-26T15:05:39.001Z</time></trkpt><trkpt lat="45.36512360934689" lon="10.64377841845204"><ele>107.0</ele><time>2026-04-26T15:05:41.001Z</time></trkpt><trkpt lat="45.365106622030744" lon="10.643904844724297"><ele>107.0</ele><time>2026-04-26T15:05:49.002Z</time></trkpt><trkpt lat="45.36493445355028" lon="10.643915546429486"><ele>107.0</ele><time>2026-04-26T15:05:50.002Z</time></trkpt><trkpt lat="45.364831256000485" lon="10.643912027305703"><ele>107.0</ele><time>2026-04-26T15:05:51.002Z</time></trkpt><trkpt lat="45.36471042148593" lon="10.643857262536178"><ele>107.0</ele><time>2026-04-26T15:05:52.002Z</time></trkpt><trkpt lat="45.36458939982819" lon="10.643829602588744"><ele>107.25</ele><time>2026-04-26T15:05:53Z</time></trkpt><trkpt lat="45.36449671552271" lon="10.643818859067665"><ele>107.5</ele><time>2026-04-26T15:05:54Z</time></trkpt><trkpt lat="45.36438472034964" lon="10.643784987645835"><ele>107.75</ele><time>2026-04-26T15:05:55Z</time></trkpt><trkpt lat="45.36425929422239" lon="10.643741901404718"><ele>108.0</ele><time>2026-04-26T15:05:56Z</time></trkpt><trkpt lat="45.36414573154311" lon="10.643688335215652"><ele>108.0</ele><time>2026-04-26T15:05:57Z</time></trkpt><trkpt lat="45.364019308392315" lon="10.643641467892936"><ele>108.0</ele><time>2026-04-26T15:05:58Z</time></trkpt><trkpt lat="45.36389680303467" lon="10.643629229043311"><ele>108.0</ele><time>2026-04-26T15:05:59Z</time></trkpt><trkpt lat="45.36376423391034" lon="10.643673918811865"><ele>108.0</ele><time>2026-04-26T15:06:00Z</time></trkpt><trkpt lat="45.36363739592618" lon="10.643758248841314"><ele>109.25</ele><time>2026-04-26T15:06:01Z</time></trkpt><trkpt lat="45.363507859244955" lon="10.643854522021996"><ele>110.5</ele><time>2026-04-26T15:06:02Z</time></trkpt><trkpt lat="45.36337576846415" lon="10.643947785291624"><ele>111.75</ele><time>2026-04-26T15:06:03Z</time></trkpt><trkpt lat="45.36326466848957" lon="10.644019916518905"><ele>113.0</ele><time>2026-04-26T15:06:04Z</time></trkpt><trkpt lat="45.36315265918586" lon="10.644087328244156"><ele>113.0</ele><time>2026-04-26T15:06:05Z</time></trkpt><trkpt lat="45.363032310462124" lon="10.64416192992943"><ele>113.0</ele><time>2026-04-26T15:06:06Z</time></trkpt><trkpt lat="45.36291084991542" lon="10.644239920306106"><ele>113.0</ele><time>2026-04-26T15:06:07Z</time></trkpt><trkpt lat="45.36277798379979" lon="10.644315973476534"><ele>113.0</ele><time>2026-04-26T15:06:08Z</time></trkpt><trkpt lat="45.36264593757409" lon="10.64436485263878"><ele>114.0</ele><time>2026-04-26T15:06:09Z</time></trkpt><trkpt lat="45.362512826006856" lon="10.644379696290352"><ele>115.0</ele><time>2026-04-26T15:06:10Z</time></trkpt><trkpt lat="45.36237478084128" lon="10.644374572813607"><ele>116.0</ele><time>2026-04-26T15:06:11Z</time></trkpt><trkpt lat="45.36223894562663" lon="10.644370630168691"><ele>117.0</ele><time>2026-04-26T15:06:12Z</time></trkpt><trkpt lat="45.36210902507715" lon="10.644375436685804"><ele>118.25</ele><time>2026-04-26T15:06:13Z</time></trkpt><trkpt lat="45.361979820266185" lon="10.6443931281525"><ele>119.5</ele><time>2026-04-26T15:06:14Z</time></trkpt><trkpt lat="45.361856681906545" lon="10.6444509678114"><ele>120.75</ele><time>2026-04-26T15:06:15Z</time></trkpt><trkpt lat="45.3617426084663" lon="10.644519401451781"><ele>122.0</ele><time>2026-04-26T15:06:16Z</time></trkpt><trkpt lat="45.36165362228328" lon="10.644625135501599"><ele>123.5</ele><time>2026-04-26T15:06:17Z</time></trkpt><trkpt lat="45.36156146576779" lon="10.644735006983124"><ele>125.0</ele><time>2026-04-26T15:06:18Z</time></trkpt><trkpt lat="45.36147106484712" lon="10.644840880191838"><ele>126.5</ele><time>2026-04-26T15:06:19Z</time></trkpt><trkpt lat="45.36138276964422" lon="10.64491730854826"><ele>128.0</ele><time>2026-04-26T15:06:20Z</time></trkpt><trkpt lat="45.361274071255735" lon="10.644979335467625"><ele>128.0</ele><time>2026-04-26T15:06:21Z</time></trkpt><trkpt lat="45.361169508412054" lon="10.645014024578096"><ele>128.0</ele><time>2026-04-26T15:06:22Z</time></trkpt><trkpt lat="45.36106596133877" lon="10.645014571996697"><ele>128.0</ele><time>2026-04-26T15:06:23Z</time></trkpt><trkpt lat="45.36095101938114" lon="10.645001916186141"><ele>128.0</ele><time>2026-04-26T15:06:24Z</time></trkpt><trkpt lat="45.36083747048758" lon="10.644965981381743"><ele>128.0</ele><time>2026-04-26T15:06:25Z</time></trkpt><trkpt lat="45.360724961617585" lon="10.644901168257945"><ele>128.0</ele><time>2026-04-26T15:06:26Z</time></trkpt><trkpt lat="45.3606365013364" lon="10.644848015964559"><ele>128.0</ele><time>2026-04-26T15:06:27Z</time></trkpt><trkpt lat="45.360528054960795" lon="10.644793702920033"><ele>128.0</ele><time>2026-04-26T15:06:28Z</time></trkpt><trkpt lat="45.36041357071359" lon="10.644739035759367"><ele>128.0</ele><time>2026-04-26T15:06:29Z</time></trkpt><trkpt lat="45.360298395306124" lon="10.644693329789893"><ele>126.25</ele><time>2026-04-26T15:06:30Z</time></trkpt><trkpt lat="45.36017379634896" lon="10.644653204189312"><ele>124.5</ele><time>2026-04-26T15:06:31Z</time></trkpt><trkpt lat="45.36004151665523" lon="10.644620187040823"><ele>122.75</ele><time>2026-04-26T15:06:32Z</time></trkpt><trkpt lat="45.35990471171076" lon="10.644583457993734"><ele>121.0</ele><time>2026-04-26T15:06:33Z</time></trkpt><trkpt lat="45.35976961051888" lon="10.64454144690158"><ele>122.0</ele><time>2026-04-26T15:06:34Z</time></trkpt><trkpt lat="45.359621716855514" lon="10.644500218989167"><ele>123.0</ele><time>2026-04-26T15:06:35Z</time></trkpt><trkpt lat="45.35947820546806" lon="10.644457571754492"><ele>124.0</ele><time>2026-04-26T15:06:36Z</time></trkpt><trkpt lat="45.3593250968301" lon="10.644432820504434"><ele>124.0</ele><time>2026-04-26T15:06:37Z</time></trkpt><trkpt lat="45.35918554356623" lon="10.644389818948643"><ele>124.0</ele><time>2026-04-26T15:06:38Z</time></trkpt><trkpt lat="45.35906006311166" lon="10.64435384893421"><ele>124.0</ele><time>2026-04-26T15:06:39Z</time></trkpt><trkpt lat="45.35894335838446" lon="10.644324692925542"><ele>124.0</ele><time>2026-04-26T15:06:40Z</time></trkpt><trkpt lat="45.35882987240433" lon="10.644297877966496"><ele>123.75</ele><time>2026-04-26T15:06:41Z</time></trkpt><trkpt lat="45.35871678043692" lon="10.64427191055682"><ele>123.5</ele><time>2026-04-26T15:06:42Z</time></trkpt><trkpt lat="45.35859401237134" lon="10.644246771645674"><ele>123.25</ele><time>2026-04-26T15:06:43Z</time></trkpt><trkpt lat="45.35848353282804" lon="10.6442257981569"><ele>123.0</ele><time>2026-04-26T15:06:44Z</time></trkpt><trkpt lat="45.358374601532404" lon="10.64421233288702"><ele>123.0</ele><time>2026-04-26T15:06:45Z</time></trkpt><trkpt lat="45.35827886223503" lon="10.6441990108149"><ele>123.0</ele><time>2026-04-26T15:06:46Z</time></trkpt><trkpt lat="45.3581863482146" lon="10.64417956147883"><ele>123.0</ele><time>2026-04-26T15:06:47Z</time></trkpt><trkpt lat="45.35809544437439" lon="10.644155724009009"><ele>123.0</ele><time>2026-04-26T15:06:48Z</time></trkpt><trkpt lat="45.358009978327125" lon="10.644123213500588"><ele>123.0</ele><time>2026-04-26T15:06:49Z</time></trkpt><trkpt lat="45.35793911431053" lon="10.644086990439744"><ele>123.0</ele><time>2026-04-26T15:06:50Z</time></trkpt><trkpt lat="45.35788015008388" lon="10.644044277901042"><ele>122.4</ele><time>2026-04-26T15:06:51Z</time></trkpt><trkpt lat="45.35779779499884" lon="10.644018902250934"><ele>121.80000000000001</ele><time>2026-04-26T15:06:53Z</time></trkpt><trkpt lat="45.35768816560647" lon="10.64410133228821"><ele>121.2</ele><time>2026-04-26T15:07:00.001Z</time></trkpt><trkpt lat="45.35765434088287" lon="10.644236173016996"><ele>120.6</ele><time>2026-04-26T15:07:01.001Z</time></trkpt><trkpt lat="45.357632943524" lon="10.64439012410133"><ele>120.0</ele><time>2026-04-26T15:07:02.001Z</time></trkpt><trkpt lat="45.35761347229824" lon="10.644578419912689"><ele>119.0</ele><time>2026-04-26T15:07:03.001Z</time></trkpt><trkpt lat="45.357585481010524" lon="10.644772487122816"><ele>118.0</ele><time>2026-04-26T15:07:04.001Z</time></trkpt><trkpt lat="45.35755993650453" lon="10.644991520391052"><ele>117.0</ele><time>2026-04-26T15:07:05.001Z</time></trkpt><trkpt lat="45.3575391188549" lon="10.64521004330442"><ele>116.33333333333334</ele><time>2026-04-26T15:07:06.001Z</time></trkpt><trkpt lat="45.35751887220846" lon="10.645426772578364"><ele>115.66666666666667</ele><time>2026-04-26T15:07:07.001Z</time></trkpt><trkpt lat="45.357493158342805" lon="10.645644677501357"><ele>115.0</ele><time>2026-04-26T15:07:08.001Z</time></trkpt><trkpt lat="45.357460440912696" lon="10.6458778371968"><ele>115.0</ele><time>2026-04-26T15:07:09.001Z</time></trkpt><trkpt lat="45.35742779927727" lon="10.64611588670483"><ele>115.0</ele><time>2026-04-26T15:07:10.001Z</time></trkpt><trkpt lat="45.357390999530004" lon="10.646385239175212"><ele>115.0</ele><time>2026-04-26T15:07:11.001Z</time></trkpt><trkpt lat="45.35735664797904" lon="10.646632464462417"><ele>114.66666666666667</ele><time>2026-04-26T15:07:12.001Z</time></trkpt><trkpt lat="45.35732287468913" lon="10.646894452068146"><ele>114.33333333333334</ele><time>2026-04-26T15:07:13.001Z</time></trkpt><trkpt lat="45.35728831302859" lon="10.647155209300939"><ele>114.0</ele><time>2026-04-26T15:07:14.001Z</time></trkpt><trkpt lat="45.35725331292209" lon="10.647432726348843"><ele>114.0</ele><time>2026-04-26T15:07:15.001Z</time></trkpt><trkpt lat="45.35721746125069" lon="10.647721282591103"><ele>114.0</ele><time>2026-04-26T15:07:16.001Z</time></trkpt><trkpt lat="45.35718152580136" lon="10.648014854627034"><ele>114.0</ele><time>2026-04-26T15:07:17.001Z</time></trkpt><trkpt lat="45.357146319732664" lon="10.648298870001618"><ele>114.0</ele><time>2026-04-26T15:07:18.001Z</time></trkpt><trkpt lat="45.357107814068414" lon="10.648607036941298"><ele>114.0</ele><time>2026-04-26T15:07:19.001Z</time></trkpt><trkpt lat="45.35706712749856" lon="10.648903695650171"><ele>114.0</ele><time>2026-04-26T15:07:20.001Z</time></trkpt><trkpt lat="45.357030727396726" lon="10.649195654686418"><ele>114.66666666666666</ele><time>2026-04-26T15:07:21.001Z</time></trkpt><trkpt lat="45.35698996084498" lon="10.649485389218237"><ele>115.33333333333333</ele><time>2026-04-26T15:07:22.001Z</time></trkpt><trkpt lat="45.35695298807924" lon="10.649772867949135"><ele>116.0</ele><time>2026-04-26T15:07:23.001Z</time></trkpt><trkpt lat="45.35692130340511" lon="10.650039683457871"><ele>114.33333333333333</ele><time>2026-04-26T15:07:24.001Z</time></trkpt><trkpt lat="45.35688325342244" lon="10.650310089204096"><ele>112.66666666666666</ele><time>2026-04-26T15:07:25.001Z</time></trkpt><trkpt lat="45.35685008332006" lon="10.65058580785364"><ele>111.0</ele><time>2026-04-26T15:07:26.001Z</time></trkpt><trkpt lat="45.35682408256845" lon="10.650877024333958"><ele>109.0</ele><time>2026-04-26T15:07:27.001Z</time></trkpt><trkpt lat="45.35681298955935" lon="10.651163551610711"><ele>107.0</ele><time>2026-04-26T15:07:28.001Z</time></trkpt><trkpt lat="45.35681311451039" lon="10.651462740263224"><ele>105.0</ele><time>2026-04-26T15:07:29.001Z</time></trkpt><trkpt lat="45.356823551684215" lon="10.651758986439583"><ele>104.66666666666666</ele><time>2026-04-26T15:07:30.001Z</time></trkpt><trkpt lat="45.35683704180362" lon="10.652053080094463"><ele>104.33333333333333</ele><time>2026-04-26T15:07:31.001Z</time></trkpt><trkpt lat="45.35685333271909" lon="10.65235899326203"><ele>104.0</ele><time>2026-04-26T15:07:32.001Z</time></trkpt><trkpt lat="45.35686977126976" lon="10.652642546113585"><ele>104.33333333333333</ele><time>2026-04-26T15:07:33.001Z</time></trkpt><trkpt lat="45.35688380276878" lon="10.652919655044316"><ele>104.66666666666666</ele><time>2026-04-26T15:07:34.001Z</time></trkpt><trkpt lat="45.35689392098559" lon="10.653168690196539"><ele>105.0</ele><time>2026-04-26T15:07:35.001Z</time></trkpt><trkpt lat="45.356904270846975" lon="10.653393921883737"><ele>105.0</ele><time>2026-04-26T15:07:36.001Z</time></trkpt><trkpt lat="45.356917005066386" lon="10.653582901859215"><ele>105.0</ele><time>2026-04-26T15:07:37.001Z</time></trkpt><trkpt lat="45.356928549578136" lon="10.653754710764467"><ele>105.0</ele><time>2026-04-26T15:07:38.001Z</time></trkpt><trkpt lat="45.3569352263112" lon="10.65388491896694"><ele>105.0</ele><time>2026-04-26T15:07:39.001Z</time></trkpt><trkpt lat="45.356932468289465" lon="10.653981520574197"><ele>105.0</ele><time>2026-04-26T15:07:40.001Z</time></trkpt><trkpt lat="45.35687114175865" lon="10.65407857462962"><ele>105.0</ele><time>2026-04-26T15:07:42.001Z</time></trkpt><trkpt lat="45.3567684911553" lon="10.654099009376035"><ele>105.0</ele><time>2026-04-26T15:07:44.001Z</time></trkpt><trkpt lat="45.3566998481478" lon="10.654108541497417"><ele>105.0</ele><time>2026-04-26T15:07:45.002Z</time></trkpt><trkpt lat="45.356624817970406" lon="10.654125896245189"><ele>105.0</ele><time>2026-04-26T15:07:46.002Z</time></trkpt><trkpt lat="45.35656124067558" lon="10.654170461344988"><ele>105.0</ele><time>2026-04-26T15:07:47.002Z</time></trkpt><trkpt lat="45.35647788822502" lon="10.654217023755423"><ele>105.0</ele><time>2026-04-26T15:07:48.002Z</time></trkpt><trkpt lat="45.356413715522" lon="10.65425021743831"><ele>104.66666666666667</ele><time>2026-04-26T15:07:49.002Z</time></trkpt><trkpt lat="45.356349693245676" lon="10.654275952368627"><ele>104.33333333333334</ele><time>2026-04-26T15:07:50.002Z</time></trkpt><trkpt lat="45.35628522899112" lon="10.65431535986517"><ele>104.0</ele><time>2026-04-26T15:07:51.002Z</time></trkpt><trkpt lat="45.3562201870921" lon="10.65436442254056"><ele>103.66666666666667</ele><time>2026-04-26T15:07:52.002Z</time></trkpt><trkpt lat="45.356117187717125" lon="10.654442144637358"><ele>103.33333333333334</ele><time>2026-04-26T15:07:54.002Z</time></trkpt><trkpt lat="45.35606746814845" lon="10.654506870266228"><ele>103.0</ele><time>2026-04-26T15:07:55.002Z</time></trkpt><trkpt lat="45.35601969765095" lon="10.654662167030988"><ele>103.66666666666667</ele><time>2026-04-26T15:07:57.002Z</time></trkpt><trkpt lat="45.355991362148515" lon="10.654755717042695"><ele>104.33333333333334</ele><time>2026-04-26T15:07:58.002Z</time></trkpt><trkpt lat="45.35589495736605" lon="10.654863249558339"><ele>105.0</ele><time>2026-04-26T15:08:00Z</time></trkpt><trkpt lat="45.355833204696864" lon="10.654898645400648"><ele>105.66666666666666</ele><time>2026-04-26T15:08:01Z</time></trkpt><trkpt lat="45.35575428716395" lon="10.654940577622545"><ele>106.33333333333333</ele><time>2026-04-26T15:08:02Z</time></trkpt><trkpt lat="45.355684392778066" lon="10.654990822470998"><ele>107.0</ele><time>2026-04-26T15:08:03Z</time></trkpt><trkpt lat="45.35559526624593" lon="10.655045855106753"><ele>106.49999999999999</ele><time>2026-04-26T15:08:04Z</time></trkpt><trkpt lat="45.35550926005884" lon="10.655098521557353"><ele>106.0</ele><time>2026-04-26T15:08:05Z</time></trkpt><trkpt lat="45.3554094448855" lon="10.655161845389763"><ele>105.5</ele><time>2026-04-26T15:08:06Z</time></trkpt><trkpt lat="45.355332104549504" lon="10.655193959391065"><ele>105.0</ele><time>2026-04-26T15:08:07Z</time></trkpt><trkpt lat="45.35525215377235" lon="10.655242741560263"><ele>104.49999999999999</ele><time>2026-04-26T15:08:08Z</time></trkpt><trkpt lat="45.35517898119558" lon="10.655272756515169"><ele>104.0</ele><time>2026-04-26T15:08:09Z</time></trkpt><trkpt lat="45.35511217273432" lon="10.655286487020723"><ele>103.99999999999999</ele><time>2026-04-26T15:08:10Z</time></trkpt><trkpt lat="45.355042004752256" lon="10.65528743145332"><ele>104.0</ele><time>2026-04-26T15:08:11Z</time></trkpt><trkpt lat="45.354967327056" lon="10.655263629379142"><ele>104.0</ele><time>2026-04-26T15:08:12Z</time></trkpt><trkpt lat="45.35487338783909" lon="10.655263643711933"><ele>104.0</ele><time>2026-04-26T15:08:13Z</time></trkpt><trkpt lat="45.35478217589925" lon="10.655264089445527"><ele>103.99999999999999</ele><time>2026-04-26T15:08:14Z</time></trkpt><trkpt lat="45.354690136849335" lon="10.655272759173997"><ele>104.0</ele><time>2026-04-26T15:08:15Z</time></trkpt><trkpt lat="45.35459513988068" lon="10.655267144226986"><ele>103.80000000000001</ele><time>2026-04-26T15:08:16Z</time></trkpt><trkpt lat="45.35451208156609" lon="10.655285571464209"><ele>103.60000000000001</ele><time>2026-04-26T15:08:17Z</time></trkpt><trkpt lat="45.35444787818791" lon="10.655309329124975"><ele>103.4</ele><time>2026-04-26T15:08:18Z</time></trkpt><trkpt lat="45.35432409090786" lon="10.655386066677778"><ele>103.2</ele><time>2026-04-26T15:08:20Z</time></trkpt><trkpt lat="45.35422792121556" lon="10.655425293599002"><ele>103.0</ele><time>2026-04-26T15:08:21Z</time></trkpt><trkpt lat="45.35413204855766" lon="10.65546982144164"><ele>103.33333333333334</ele><time>2026-04-26T15:08:22Z</time></trkpt><trkpt lat="45.35405154352014" lon="10.655492615552658"><ele>103.66666666666667</ele><time>2026-04-26T15:08:23Z</time></trkpt><trkpt lat="45.353983997224525" lon="10.655507337890016"><ele>104.0</ele><time>2026-04-26T15:08:24Z</time></trkpt><trkpt lat="45.35386246110387" lon="10.655488736569383"><ele>104.33333333333334</ele><time>2026-04-26T15:08:26Z</time></trkpt><trkpt lat="45.35378961138324" lon="10.655455485804572"><ele>104.66666666666667</ele><time>2026-04-26T15:08:27Z</time></trkpt><trkpt lat="45.35371494433774" lon="10.655413450212475"><ele>105.0</ele><time>2026-04-26T15:08:28Z</time></trkpt><trkpt lat="45.3536184462683" lon="10.655341551676198"><ele>105.16666666666667</ele><time>2026-04-26T15:08:29Z</time></trkpt><trkpt lat="45.35352319957121" lon="10.655290282218022"><ele>105.33333333333334</ele><time>2026-04-26T15:08:30Z</time></trkpt><trkpt lat="45.35342803829007" lon="10.655237570392881"><ele>105.5</ele><time>2026-04-26T15:08:31Z</time></trkpt><trkpt lat="45.353359216687146" lon="10.65519794835521"><ele>105.66666666666667</ele><time>2026-04-26T15:08:32Z</time></trkpt><trkpt lat="45.353278801096806" lon="10.655148530859236"><ele>105.83333333333334</ele><time>2026-04-26T15:08:33Z</time></trkpt><trkpt lat="45.353203381498375" lon="10.655112820830714"><ele>106.0</ele><time>2026-04-26T15:08:34Z</time></trkpt><trkpt lat="45.35313065694079" lon="10.655078883940043"><ele>105.66666666666667</ele><time>2026-04-26T15:08:35Z</time></trkpt><trkpt lat="45.35305889584599" lon="10.655053845284153"><ele>105.33333333333334</ele><time>2026-04-26T15:08:36Z</time></trkpt><trkpt lat="45.352984040225174" lon="10.65503387215582"><ele>105.0</ele><time>2026-04-26T15:08:37Z</time></trkpt><trkpt lat="45.352911195436576" lon="10.655019748750213"><ele>104.66666666666666</ele><time>2026-04-26T15:08:38.001Z</time></trkpt><trkpt lat="45.35282764421611" lon="10.65501328077854"><ele>104.33333333333333</ele><time>2026-04-26T15:08:39.001Z</time></trkpt><trkpt lat="45.35273366201683" lon="10.65500411779473"><ele>104.0</ele><time>2026-04-26T15:08:40.001Z</time></trkpt><trkpt lat="45.352618652904134" lon="10.654989426450541"><ele>104.0</ele><time>2026-04-26T15:08:41.001Z</time></trkpt><trkpt lat="45.35253525587131" lon="10.654980064856899"><ele>104.0</ele><time>2026-04-26T15:08:42.001Z</time></trkpt><trkpt lat="45.352438289275476" lon="10.654974746379777"><ele>104.0</ele><time>2026-04-26T15:08:43.001Z</time></trkpt><trkpt lat="45.35234744752163" lon="10.65497515627986"><ele>104.0</ele><time>2026-04-26T15:08:44.001Z</time></trkpt><trkpt lat="45.35224873138349" lon="10.654982847547911"><ele>104.0</ele><time>2026-04-26T15:08:45.001Z</time></trkpt><trkpt lat="45.352145506155146" lon="10.65498984971743"><ele>103.4</ele><time>2026-04-26T15:08:46.001Z</time></trkpt><trkpt lat="45.35204376711397" lon="10.654995330042267"><ele>102.80000000000001</ele><time>2026-04-26T15:08:47.001Z</time></trkpt><trkpt lat="45.35194078050183" lon="10.65499475624412"><ele>102.19999999999999</ele><time>2026-04-26T15:08:48.001Z</time></trkpt><trkpt lat="45.35185021653744" lon="10.654971567470337"><ele>101.6</ele><time>2026-04-26T15:08:49.001Z</time></trkpt><trkpt lat="45.351753197618144" lon="10.654966243553924"><ele>101.0</ele><time>2026-04-26T15:08:50.001Z</time></trkpt><trkpt lat="45.35161284793715" lon="10.654949805030975"><ele>101.0</ele><time>2026-04-26T15:08:52.001Z</time></trkpt><trkpt lat="45.351541756980325" lon="10.654933855888807"><ele>101.0</ele><time>2026-04-26T15:08:53.001Z</time></trkpt><trkpt lat="45.35143496622408" lon="10.654916104034022"><ele>101.0</ele><time>2026-04-26T15:08:55.001Z</time></trkpt><trkpt lat="45.35135229910326" lon="10.654916363584089"><ele>101.0</ele><time>2026-04-26T15:08:57.001Z</time></trkpt><trkpt lat="45.35129094975553" lon="10.655116430735296"><ele>101.0</ele><time>2026-04-26T15:09:02.001Z</time></trkpt><trkpt lat="45.35126209464666" lon="10.655208466694829"><ele>100.66666666666666</ele><time>2026-04-26T15:09:03.001Z</time></trkpt><trkpt lat="45.35122511514523" lon="10.655318471492292"><ele>100.33333333333333</ele><time>2026-04-26T15:09:04.001Z</time></trkpt><trkpt lat="45.35119997888668" lon="10.655404639157718"><ele>100.0</ele><time>2026-04-26T15:09:05.001Z</time></trkpt><trkpt lat="45.35118092259994" lon="10.655510336116652"><ele>99.66666666666666</ele><time>2026-04-26T15:09:06.001Z</time></trkpt><trkpt lat="45.35115911359196" lon="10.655634211248616"><ele>99.33333333333333</ele><time>2026-04-26T15:09:07.001Z</time></trkpt><trkpt lat="45.35113856679688" lon="10.655787728979748"><ele>99.0</ele><time>2026-04-26T15:09:08.001Z</time></trkpt><trkpt lat="45.35113017947901" lon="10.655950511077577"><ele>99.0</ele><time>2026-04-26T15:09:09.001Z</time></trkpt><trkpt lat="45.35112780493372" lon="10.656073982072558"><ele>99.0</ele><time>2026-04-26T15:09:10.001Z</time></trkpt><trkpt lat="45.35112525983029" lon="10.656188642959812"><ele>99.0</ele><time>2026-04-26T15:09:11.001Z</time></trkpt><trkpt lat="45.35112044278011" lon="10.65630961914516"><ele>99.0</ele><time>2026-04-26T15:09:12.001Z</time></trkpt><trkpt lat="45.351119451881516" lon="10.656432243411851"><ele>99.0</ele><time>2026-04-26T15:09:13.001Z</time></trkpt><trkpt lat="45.35111434582726" lon="10.656574459157351"><ele>99.0</ele><time>2026-04-26T15:09:14.001Z</time></trkpt><trkpt lat="45.35110150443361" lon="10.656724453370794"><ele>99.0</ele><time>2026-04-26T15:09:15.001Z</time></trkpt><trkpt lat="45.35108270646885" lon="10.656869495755402"><ele>99.0</ele><time>2026-04-26T15:09:16.001Z</time></trkpt><trkpt lat="45.35106259590189" lon="10.65700787383918"><ele>99.0</ele><time>2026-04-26T15:09:17.001Z</time></trkpt><trkpt lat="45.35103651211916" lon="10.6571299484903"><ele>99.0</ele><time>2026-04-26T15:09:18.001Z</time></trkpt><trkpt lat="45.35100206509805" lon="10.657252033708318"><ele>99.0</ele><time>2026-04-26T15:09:19.001Z</time></trkpt><trkpt lat="45.35096339911069" lon="10.657368841736433"><ele>99.4</ele><time>2026-04-26T15:09:20.001Z</time></trkpt><trkpt lat="45.35092371250535" lon="10.657480642672413"><ele>99.80000000000001</ele><time>2026-04-26T15:09:21.001Z</time></trkpt><trkpt lat="45.35087918006538" lon="10.65760734059025"><ele>100.19999999999999</ele><time>2026-04-26T15:09:22.001Z</time></trkpt><trkpt lat="45.350833007674694" lon="10.657715266032062"><ele>100.6</ele><time>2026-04-26T15:09:23.001Z</time></trkpt><trkpt lat="45.35077289291596" lon="10.657836548102827"><ele>101.0</ele><time>2026-04-26T15:09:24.001Z</time></trkpt><trkpt lat="45.350712733242645" lon="10.657934662702388"><ele>101.16666666666666</ele><time>2026-04-26T15:09:25.001Z</time></trkpt><trkpt lat="45.35065086434925" lon="10.658036888162982"><ele>101.33333333333333</ele><time>2026-04-26T15:09:26.001Z</time></trkpt><trkpt lat="45.35060556268752" lon="10.658127289185739"><ele>101.5</ele><time>2026-04-26T15:09:27.001Z</time></trkpt><trkpt lat="45.35057072078006" lon="10.65820995961998"><ele>101.66666666666666</ele><time>2026-04-26T15:09:28.001Z</time></trkpt><trkpt lat="45.35052781573087" lon="10.658312571903608"><ele>101.83333333333333</ele><time>2026-04-26T15:09:30.002Z</time></trkpt><trkpt lat="45.35057291952603" lon="10.658433515202283"><ele>102.0</ele><time>2026-04-26T15:09:33.002Z</time></trkpt><trkpt lat="45.350633711831065" lon="10.658522246843702"><ele>101.83333333333333</ele><time>2026-04-26T15:09:35.002Z</time></trkpt><trkpt lat="45.35067477067583" lon="10.658663950775587"><ele>101.66666666666666</ele><time>2026-04-26T15:09:37.002Z</time></trkpt><trkpt lat="45.350691168615455" lon="10.65875618253038"><ele>101.5</ele><time>2026-04-26T15:09:38.002Z</time></trkpt><trkpt lat="45.35070829003093" lon="10.658863669728591"><ele>101.33333333333333</ele><time>2026-04-26T15:09:39.002Z</time></trkpt><trkpt lat="45.350746135906114" lon="10.658976297017803"><ele>101.16666666666666</ele><time>2026-04-26T15:09:40.002Z</time></trkpt><trkpt lat="45.35075991106688" lon="10.659085814066295"><ele>101.0</ele><time>2026-04-26T15:09:41.002Z</time></trkpt><trkpt lat="45.35078489578153" lon="10.659204962070783"><ele>101.0</ele><time>2026-04-26T15:09:42.002Z</time></trkpt><trkpt lat="45.350801517709954" lon="10.659294801935276"><ele>101.0</ele><time>2026-04-26T15:09:43.002Z</time></trkpt><trkpt lat="45.35083426244388" lon="10.659464474924631"><ele>101.0</ele><time>2026-04-26T15:09:45.002Z</time></trkpt><trkpt lat="45.35087116862384" lon="10.659598554832117"><ele>101.0</ele><time>2026-04-26T15:09:47.002Z</time></trkpt><trkpt lat="45.350971551925795" lon="10.659734082054316"><ele>101.0</ele><time>2026-04-26T15:09:49.002Z</time></trkpt><trkpt lat="45.351026424461864" lon="10.659825993128253"><ele>101.0</ele><time>2026-04-26T15:09:50.002Z</time></trkpt><trkpt lat="45.35102724225928" lon="10.660050467956022"><ele>101.0</ele><time>2026-04-26T15:09:51.002Z</time></trkpt><trkpt lat="45.3510791114792" lon="10.6601641449705"><ele>101.0</ele><time>2026-04-26T15:09:52.002Z</time></trkpt><trkpt lat="45.35114107544271" lon="10.660302392146178"><ele>101.0</ele><time>2026-04-26T15:09:53.002Z</time></trkpt><trkpt lat="45.3512004377655" lon="10.660422875479814"><ele>101.33333333333333</ele><time>2026-04-26T15:09:54.002Z</time></trkpt><trkpt lat="45.351246252743174" lon="10.660506682493606"><ele>101.66666666666666</ele><time>2026-04-26T15:09:55.002Z</time></trkpt><trkpt lat="45.35129580337349" lon="10.66060312714255"><ele>102.0</ele><time>2026-04-26T15:09:56.002Z</time></trkpt><trkpt lat="45.35134298731823" lon="10.660693188440197"><ele>102.33333333333334</ele><time>2026-04-26T15:09:57.002Z</time></trkpt><trkpt lat="45.35139776053645" lon="10.660790474971478"><ele>102.66666666666667</ele><time>2026-04-26T15:09:58.002Z</time></trkpt><trkpt lat="45.351451932389395" lon="10.660869543721873"><ele>103.0</ele><time>2026-04-26T15:09:59.002Z</time></trkpt><trkpt lat="45.35151051211411" lon="10.660947031650915"><ele>103.0</ele><time>2026-04-26T15:10:00.002Z</time></trkpt><trkpt lat="45.35157950644696" lon="10.661041810760882"><ele>103.0</ele><time>2026-04-26T15:10:01.002Z</time></trkpt><trkpt lat="45.35163797985501" lon="10.661118389369916"><ele>103.0</ele><time>2026-04-26T15:10:02.002Z</time></trkpt><trkpt lat="45.35170812578599" lon="10.66120874339273"><ele>103.0</ele><time>2026-04-26T15:10:03.002Z</time></trkpt><trkpt lat="45.35178542076418" lon="10.661288736810977"><ele>103.0</ele><time>2026-04-26T15:10:04.002Z</time></trkpt><trkpt lat="45.35186123395682" lon="10.661355383702624"><ele>102.80000000000001</ele><time>2026-04-26T15:10:05.001Z</time></trkpt><trkpt lat="45.35195249047886" lon="10.661414044902651"><ele>102.6</ele><time>2026-04-26T15:10:06.001Z</time></trkpt><trkpt lat="45.352050372130506" lon="10.661486480665996"><ele>102.4</ele><time>2026-04-26T15:10:07.001Z</time></trkpt><trkpt lat="45.35213577006842" lon="10.661542262909007"><ele>102.19999999999999</ele><time>2026-04-26T15:10:08.001Z</time></trkpt><trkpt lat="45.35222916302704" lon="10.661622295283019"><ele>102.0</ele><time>2026-04-26T15:10:09.001Z</time></trkpt><trkpt lat="45.35232849779832" lon="10.661719435400046"><ele>102.39999999999999</ele><time>2026-04-26T15:10:10.001Z</time></trkpt><trkpt lat="45.352427600248525" lon="10.661810833205694"><ele>102.8</ele><time>2026-04-26T15:10:11Z</time></trkpt><trkpt lat="45.35251277953977" lon="10.661893593619816"><ele>103.2</ele><time>2026-04-26T15:10:12Z</time></trkpt><trkpt lat="45.352589702025" lon="10.661947737393872"><ele>103.6</ele><time>2026-04-26T15:10:13Z</time></trkpt><trkpt lat="45.35266341514414" lon="10.661987772940423"><ele>104.0</ele><time>2026-04-26T15:10:14Z</time></trkpt><trkpt lat="45.35273731592982" lon="10.661989522132695"><ele>103.99999999999999</ele><time>2026-04-26T15:10:15Z</time></trkpt><trkpt lat="45.35282913464391" lon="10.661974416430526"><ele>104.0</ele><time>2026-04-26T15:10:16Z</time></trkpt><trkpt lat="45.35291777037455" lon="10.661938625902462"><ele>104.0</ele><time>2026-04-26T15:10:17Z</time></trkpt><trkpt lat="45.35300399334488" lon="10.661892405014017"><ele>104.0</ele><time>2026-04-26T15:10:18Z</time></trkpt><trkpt lat="45.35307812069549" lon="10.661845615226373"><ele>103.99999999999999</ele><time>2026-04-26T15:10:19Z</time></trkpt><trkpt lat="45.35315628466229" lon="10.661879155990638"><ele>104.0</ele><time>2026-04-26T15:10:20Z</time></trkpt><trkpt lat="45.353230118674695" lon="10.66186580222941"><ele>103.80000000000001</ele><time>2026-04-26T15:10:21Z</time></trkpt><trkpt lat="45.353297644932724" lon="10.661862907219044"><ele>103.60000000000001</ele><time>2026-04-26T15:10:22Z</time></trkpt><trkpt lat="45.35341281862508" lon="10.661862372913829"><ele>103.4</ele><time>2026-04-26T15:10:24Z</time></trkpt><trkpt lat="45.353516329094155" lon="10.661849244486863"><ele>103.2</ele><time>2026-04-26T15:10:26Z</time></trkpt><trkpt lat="45.35361096122606" lon="10.66177611068974"><ele>103.0</ele><time>2026-04-26T15:10:28Z</time></trkpt><trkpt lat="45.35363964424813" lon="10.66169344229159"><ele>103.0</ele><time>2026-04-26T15:10:29Z</time></trkpt><trkpt lat="45.353640736051695" lon="10.661585404279846"><ele>103.0</ele><time>2026-04-26T15:10:30Z</time></trkpt><trkpt lat="45.35362963228368" lon="10.661473552008852"><ele>103.0</ele><time>2026-04-26T15:10:31Z</time></trkpt><trkpt lat="45.35364544709572" lon="10.661379097418964"><ele>103.0</ele><time>2026-04-26T15:10:32Z</time></trkpt><trkpt lat="45.35374601102484" lon="10.661287754790715"><ele>103.0</ele><time>2026-04-26T15:10:34Z</time></trkpt><trkpt lat="45.353883752014596" lon="10.66131242386192"><ele>103.00000000000001</ele><time>2026-04-26T15:10:36Z</time></trkpt><trkpt lat="45.35396765568281" lon="10.66133631849148"><ele>103.0</ele><time>2026-04-26T15:10:37Z</time></trkpt><trkpt lat="45.35405213162496" lon="10.66137316490145"><ele>103.0</ele><time>2026-04-26T15:10:38.001Z</time></trkpt><trkpt lat="45.354136819543825" lon="10.66141685453141"><ele>103.0</ele><time>2026-04-26T15:10:39.001Z</time></trkpt><trkpt lat="45.35422554214079" lon="10.661440885284833"><ele>103.00000000000001</ele><time>2026-04-26T15:10:40.001Z</time></trkpt><trkpt lat="45.35431933818566" lon="10.661454077679574"><ele>103.0</ele><time>2026-04-26T15:10:41.001Z</time></trkpt><trkpt lat="45.35442112678885" lon="10.661477284170862"><ele>103.00000000000001</ele><time>2026-04-26T15:10:42.001Z</time></trkpt><trkpt lat="45.354495158556084" lon="10.661490038359716"><ele>103.0</ele><time>2026-04-26T15:10:43.001Z</time></trkpt><trkpt lat="45.35457005860037" lon="10.66149398834226"><ele>103.0</ele><time>2026-04-26T15:10:44.001Z</time></trkpt><trkpt lat="45.35465285460756" lon="10.661516919571545"><ele>103.0</ele><time>2026-04-26T15:10:45.001Z</time></trkpt><trkpt lat="45.35472785787225" lon="10.661536107971019"><ele>103.00000000000001</ele><time>2026-04-26T15:10:46.001Z</time></trkpt><trkpt lat="45.35480301519461" lon="10.661553864216389"><ele>103.0</ele><time>2026-04-26T15:10:47.001Z</time></trkpt><trkpt lat="45.35487877470146" lon="10.66157468942045"><ele>103.16666666666667</ele><time>2026-04-26T15:10:48.001Z</time></trkpt><trkpt lat="45.35495289762186" lon="10.661601828270282"><ele>103.33333333333334</ele><time>2026-04-26T15:10:49.001Z</time></trkpt><trkpt lat="45.35503107931614" lon="10.661625103295362"><ele>103.5</ele><time>2026-04-26T15:10:50.001Z</time></trkpt><trkpt lat="45.35509553793172" lon="10.66164802654355"><ele>103.66666666666666</ele><time>2026-04-26T15:10:51.001Z</time></trkpt><trkpt lat="45.35518716547627" lon="10.661676996544449"><ele>103.83333333333333</ele><time>2026-04-26T15:10:52.001Z</time></trkpt><trkpt lat="45.3552574274642" lon="10.66169662560154"><ele>104.0</ele><time>2026-04-26T15:10:53.001Z</time></trkpt><trkpt lat="45.35537184635079" lon="10.661515118886754"><ele>103.99999999999999</ele><time>2026-04-26T15:10:54.001Z</time></trkpt><trkpt lat="45.35550678954374" lon="10.661556917083987"><ele>104.0</ele><time>2026-04-26T15:10:56.001Z</time></trkpt><trkpt lat="45.35556985278702" lon="10.661575652140428"><ele>104.0</ele><time>2026-04-26T15:10:57.001Z</time></trkpt><trkpt lat="45.355642035902456" lon="10.661596099267998"><ele>104.0</ele><time>2026-04-26T15:10:58.001Z</time></trkpt><trkpt lat="45.35570889580344" lon="10.6616146735954"><ele>103.99999999999999</ele><time>2026-04-26T15:10:59.001Z</time></trkpt><trkpt lat="45.355790072263105" lon="10.661635939791386"><ele>104.0</ele><time>2026-04-26T15:11:00.001Z</time></trkpt><trkpt lat="45.355863919843564" lon="10.661655286008683"><ele>105.25</ele><time>2026-04-26T15:11:01.001Z</time></trkpt><trkpt lat="45.35597172629378" lon="10.661683528582522"><ele>106.5</ele><time>2026-04-26T15:11:03.001Z</time></trkpt><trkpt lat="45.356054521724054" lon="10.661702595239829"><ele>107.75</ele><time>2026-04-26T15:11:05.001Z</time></trkpt><trkpt lat="45.356120526604215" lon="10.661717985587684"><ele>109.0</ele><time>2026-04-26T15:11:07.001Z</time></trkpt><trkpt lat="45.35614155616678" lon="10.66204913717111"><ele>109.00000000000001</ele><time>2026-04-26T15:11:11.001Z</time></trkpt><trkpt lat="45.35626744353289" lon="10.662106600353322"><ele>109.0</ele><time>2026-04-26T15:11:16.001Z</time></trkpt><trkpt lat="45.356335700198315" lon="10.662117032752972"><ele>109.0</ele><time>2026-04-26T15:11:18.001Z</time></trkpt><trkpt lat="45.356404803203105" lon="10.662141897010478"><ele>109.0</ele><time>2026-04-26T15:11:20.001Z</time></trkpt><trkpt lat="45.356470698404934" lon="10.662156841479277"><ele>109.00000000000001</ele><time>2026-04-26T15:11:22.001Z</time></trkpt><trkpt lat="45.35655806429295" lon="10.662176805939492"><ele>109.0</ele><time>2026-04-26T15:11:24.001Z</time></trkpt><trkpt lat="45.35663834497939" lon="10.662192468302552"><ele>109.14285714285714</ele><time>2026-04-26T15:11:26.001Z</time></trkpt><trkpt lat="45.35670076016105" lon="10.662206749758209"><ele>109.28571428571429</ele><time>2026-04-26T15:11:28.001Z</time></trkpt><trkpt lat="45.35677357354236" lon="10.662217499492948"><ele>109.42857142857142</ele><time>2026-04-26T15:11:31.001Z</time></trkpt><trkpt lat="45.3568454271828" lon="10.662217285017483"><ele>109.57142857142857</ele><time>2026-04-26T15:11:35.001Z</time></trkpt><trkpt lat="45.35691398318732" lon="10.662208538276685"><ele>109.71428571428571</ele><time>2026-04-26T15:11:37.001Z</time></trkpt><trkpt lat="45.35698946010969" lon="10.662219715061097"><ele>109.85714285714285</ele><time>2026-04-26T15:11:40.002Z</time></trkpt><trkpt lat="45.357033720843305" lon="10.662312680691764"><ele>110.0</ele><time>2026-04-26T15:11:42.002Z</time></trkpt><trkpt lat="45.35702793043026" lon="10.66240494127891"><ele>110.0</ele><time>2026-04-26T15:11:43.002Z</time></trkpt><trkpt lat="45.35700491218871" lon="10.662529399285145"><ele>110.0</ele><time>2026-04-26T15:11:44.002Z</time></trkpt><trkpt lat="45.35697887339509" lon="10.662672815177848"><ele>110.0</ele><time>2026-04-26T15:11:45.002Z</time></trkpt><trkpt lat="45.356954447595044" lon="10.662870976211362"><ele>110.0</ele><time>2026-04-26T15:11:46.002Z</time></trkpt><trkpt lat="45.356926954318915" lon="10.663098999414792"><ele>110.33333333333333</ele><time>2026-04-26T15:11:47.002Z</time></trkpt><trkpt lat="45.356890776997986" lon="10.663368588108877"><ele>110.66666666666666</ele><time>2026-04-26T15:11:48.002Z</time></trkpt><trkpt lat="45.35686395546239" lon="10.663614852167237"><ele>111.0</ele><time>2026-04-26T15:11:49.002Z</time></trkpt><trkpt lat="45.3568427650231" lon="10.663790079501407"><ele>111.4</ele><time>2026-04-26T15:11:50.002Z</time></trkpt><trkpt lat="45.35682350455012" lon="10.66392440740713"><ele>111.8</ele><time>2026-04-26T15:11:51.002Z</time></trkpt><trkpt lat="45.356798949649594" lon="10.664064223621509"><ele>112.20000000000002</ele><time>2026-04-26T15:11:52.002Z</time></trkpt><trkpt lat="45.356782789520054" lon="10.66417149114796"><ele>112.60000000000001</ele><time>2026-04-26T15:11:53.002Z</time></trkpt><trkpt lat="45.356765976056664" lon="10.664270384513488"><ele>113.0</ele><time>2026-04-26T15:11:54.002Z</time></trkpt><trkpt lat="45.35674656742321" lon="10.66444543981102"><ele>114.0</ele><time>2026-04-26T15:11:56.002Z</time></trkpt><trkpt lat="45.35676509301899" lon="10.664608095516309"><ele>115.00000000000001</ele><time>2026-04-26T15:11:58.002Z</time></trkpt><trkpt lat="45.35684365271629" lon="10.664679607276941"><ele>116.00000000000001</ele><time>2026-04-26T15:12:00.002Z</time></trkpt><trkpt lat="45.35698313664852" lon="10.66469325208197"><ele>117.0</ele><time>2026-04-26T15:12:02.002Z</time></trkpt><trkpt lat="45.35707059991101" lon="10.66473526787468"><ele>118.0</ele><time>2026-04-26T15:12:04.002Z</time></trkpt><trkpt lat="45.357127346216814" lon="10.664804459700498"><ele>118.0</ele><time>2026-04-26T15:12:05.002Z</time></trkpt><trkpt lat="45.35719366361317" lon="10.66490709607739"><ele>118.00000000000001</ele><time>2026-04-26T15:12:06.002Z</time></trkpt><trkpt lat="45.35724058076408" lon="10.664986338160677"><ele>118.00000000000001</ele><time>2026-04-26T15:12:07.002Z</time></trkpt><trkpt lat="45.35728419685249" lon="10.665066843188773"><ele>118.0</ele><time>2026-04-26T15:12:08.002Z</time></trkpt><trkpt lat="45.35735385756345" lon="10.66516949368703"><ele>118.0</ele><time>2026-04-26T15:12:10.002Z</time></trkpt><trkpt lat="45.35747231271115" lon="10.665223695473836"><ele>119.25</ele><time>2026-04-26T15:12:12Z</time></trkpt><trkpt lat="45.35756497811287" lon="10.665197135063744"><ele>120.5</ele><time>2026-04-26T15:12:13Z</time></trkpt><trkpt lat="45.35767749714319" lon="10.66515384439326"><ele>121.75</ele><time>2026-04-26T15:12:14Z</time></trkpt><trkpt lat="45.357805884331114" lon="10.665140337953"><ele>123.0</ele><time>2026-04-26T15:12:15Z</time></trkpt><trkpt lat="45.35791973889583" lon="10.665131129463543"><ele>123.0</ele><time>2026-04-26T15:12:16Z</time></trkpt><trkpt lat="45.35800602255202" lon="10.665135280134285"><ele>123.0</ele><time>2026-04-26T15:12:17Z</time></trkpt><trkpt lat="45.35807453981444" lon="10.665131291923833"><ele>123.0</ele><time>2026-04-26T15:12:18Z</time></trkpt><trkpt lat="45.3581623932114" lon="10.665137607902414"><ele>123.0</ele><time>2026-04-26T15:12:19Z</time></trkpt><trkpt lat="45.35824446763909" lon="10.665157699680833"><ele>123.0</ele><time>2026-04-26T15:12:20Z</time></trkpt><trkpt lat="45.35833358487766" lon="10.665194996581297"><ele>123.0</ele><time>2026-04-26T15:12:21Z</time></trkpt><trkpt lat="45.35841108214203" lon="10.665255714259985"><ele>122.33333333333333</ele><time>2026-04-26T15:12:22Z</time></trkpt><trkpt lat="45.35850152529059" lon="10.665336914457207"><ele>121.66666666666666</ele><time>2026-04-26T15:12:23Z</time></trkpt><trkpt lat="45.35854657477218" lon="10.665400610207017"><ele>121.0</ele><time>2026-04-26T15:12:24Z</time></trkpt><trkpt lat="45.35863249137699" lon="10.665487840658818"><ele>120.33333333333333</ele><time>2026-04-26T15:12:26Z</time></trkpt><trkpt lat="45.35870961276201" lon="10.665492754283532"><ele>119.66666666666666</ele><time>2026-04-26T15:12:28Z</time></trkpt><trkpt lat="45.358774390653345" lon="10.665495202146346"><ele>119.0</ele><time>2026-04-26T15:12:29Z</time></trkpt><trkpt lat="45.358842447281276" lon="10.665467212873642"><ele>118.6</ele><time>2026-04-26T15:12:30Z</time></trkpt><trkpt lat="45.35892627705578" lon="10.665423805649292"><ele>118.2</ele><time>2026-04-26T15:12:31Z</time></trkpt><trkpt lat="45.35901944714476" lon="10.665364058235319"><ele>117.79999999999998</ele><time>2026-04-26T15:12:32Z</time></trkpt><trkpt lat="45.359113462612505" lon="10.66530904327427"><ele>117.39999999999999</ele><time>2026-04-26T15:12:33Z</time></trkpt><trkpt lat="45.359225320427676" lon="10.66524562981523"><ele>117.0</ele><time>2026-04-26T15:12:34Z</time></trkpt><trkpt lat="45.35933126619766" lon="10.665190502930121"><ele>118.16666666666667</ele><time>2026-04-26T15:12:35Z</time></trkpt><trkpt lat="45.35941778524442" lon="10.66516764255028"><ele>119.33333333333334</ele><time>2026-04-26T15:12:36Z</time></trkpt><trkpt lat="45.35950514535879" lon="10.66515237750493"><ele>120.5</ele><time>2026-04-26T15:12:37Z</time></trkpt><trkpt lat="45.359578300643804" lon="10.665134476944157"><ele>121.66666666666667</ele><time>2026-04-26T15:12:38Z</time></trkpt><trkpt lat="45.359645841491265" lon="10.66513226312405"><ele>122.83333333333334</ele><time>2026-04-26T15:12:39Z</time></trkpt><trkpt lat="45.35974255513827" lon="10.665137349776085"><ele>124.0</ele><time>2026-04-26T15:12:41Z</time></trkpt><trkpt lat="45.35981816550409" lon="10.665157251778824"><ele>122.2</ele><time>2026-04-26T15:12:43Z</time></trkpt><trkpt lat="45.35988352512571" lon="10.665296869556299"><ele>120.4</ele><time>2026-04-26T15:12:45Z</time></trkpt><trkpt lat="45.3598849831933" lon="10.66540157205947"><ele>118.6</ele><time>2026-04-26T15:12:46Z</time></trkpt><trkpt lat="45.35987844161087" lon="10.665523149934579"><ele>116.8</ele><time>2026-04-26T15:12:47Z</time></trkpt><trkpt lat="45.35988791655419" lon="10.665652279189983"><ele>115.0</ele><time>2026-04-26T15:12:48Z</time></trkpt><trkpt lat="45.359902005927104" lon="10.665793000012565"><ele>115.0</ele><time>2026-04-26T15:12:49Z</time></trkpt><trkpt lat="45.35990911866337" lon="10.665893578860011"><ele>115.0</ele><time>2026-04-26T15:12:50Z</time></trkpt><trkpt lat="45.35990719797521" lon="10.666047948756525"><ele>115.0</ele><time>2026-04-26T15:12:52Z</time></trkpt><trkpt lat="45.35994384786941" lon="10.666160881729143"><ele>115.0</ele><time>2026-04-26T15:12:54Z</time></trkpt><trkpt lat="45.36008042897123" lon="10.6661926507847"><ele>115.0</ele><time>2026-04-26T15:12:56.001Z</time></trkpt><trkpt lat="45.360182095380495" lon="10.666208143769557"><ele>114.66666666666667</ele><time>2026-04-26T15:12:57.001Z</time></trkpt><trkpt lat="45.3602732846632" lon="10.666230820019296"><ele>114.33333333333334</ele><time>2026-04-26T15:12:58.001Z</time></trkpt><trkpt lat="45.36035008435725" lon="10.666242697706219"><ele>114.0</ele><time>2026-04-26T15:12:59.001Z</time></trkpt><trkpt lat="45.360414551813385" lon="10.66625066743318"><ele>113.66666666666666</ele><time>2026-04-26T15:13:00.001Z</time></trkpt><trkpt lat="45.360517612696135" lon="10.666271830464215"><ele>113.33333333333333</ele><time>2026-04-26T15:13:02.001Z</time></trkpt><trkpt lat="45.360580868135145" lon="10.666376061454221"><ele>113.0</ele><time>2026-04-26T15:13:04.001Z</time></trkpt><trkpt lat="45.36059034397819" lon="10.666470404524842"><ele>113.2</ele><time>2026-04-26T15:13:05.001Z</time></trkpt><trkpt lat="45.36057534622577" lon="10.666577058907867"><ele>113.4</ele><time>2026-04-26T15:13:06.001Z</time></trkpt><trkpt lat="45.36056208724655" lon="10.666705473329268"><ele>113.60000000000001</ele><time>2026-04-26T15:13:07.001Z</time></trkpt><trkpt lat="45.360544939535465" lon="10.666867910369996"><ele>113.80000000000001</ele><time>2026-04-26T15:13:08.001Z</time></trkpt><trkpt lat="45.36052700162099" lon="10.667023261257416"><ele>114.0</ele><time>2026-04-26T15:13:09.001Z</time></trkpt><trkpt lat="45.36050837521044" lon="10.667193343357827"><ele>114.0</ele><time>2026-04-26T15:13:10.001Z</time></trkpt><trkpt lat="45.36049939196471" lon="10.667355215642104"><ele>114.0</ele><time>2026-04-26T15:13:11.001Z</time></trkpt><trkpt lat="45.36050287324161" lon="10.667512315602876"><ele>114.0</ele><time>2026-04-26T15:13:12.001Z</time></trkpt><trkpt lat="45.360522552879566" lon="10.667640482352715"><ele>114.0</ele><time>2026-04-26T15:13:13.001Z</time></trkpt><trkpt lat="45.360556813692064" lon="10.667783455720372"><ele>114.0</ele><time>2026-04-26T15:13:14.001Z</time></trkpt><trkpt lat="45.36058342383032" lon="10.667903884773459"><ele>115.0</ele><time>2026-04-26T15:13:15.001Z</time></trkpt><trkpt lat="45.36059831186517" lon="10.668001188880694"><ele>116.0</ele><time>2026-04-26T15:13:16.001Z</time></trkpt><trkpt lat="45.36061275828293" lon="10.668105654946498"><ele>117.0</ele><time>2026-04-26T15:13:17.001Z</time></trkpt><trkpt lat="45.360639605800515" lon="10.668199131678074"><ele>118.0</ele><time>2026-04-26T15:13:18.001Z</time></trkpt><trkpt lat="45.36066778911404" lon="10.668305713438118"><ele>119.0</ele><time>2026-04-26T15:13:19.001Z</time></trkpt><trkpt lat="45.36069961580185" lon="10.668407564808145"><ele>120.0</ele><time>2026-04-26T15:13:20.001Z</time></trkpt><trkpt lat="45.3607249095692" lon="10.668544516966481"><ele>121.5</ele><time>2026-04-26T15:13:21.001Z</time></trkpt><trkpt lat="45.3608466396318" lon="10.668665374704265"><ele>123.0</ele><time>2026-04-26T15:13:23.001Z</time></trkpt><trkpt lat="45.360946511633195" lon="10.668740127408185"><ele>124.5</ele><time>2026-04-26T15:13:24.001Z</time></trkpt><trkpt lat="45.361048576158346" lon="10.668855743457446"><ele>126.0</ele><time>2026-04-26T15:13:25.001Z</time></trkpt><trkpt lat="45.36113364964504" lon="10.669000725367642"><ele>126.0</ele><time>2026-04-26T15:13:26.001Z</time></trkpt><trkpt lat="45.361257900987965" lon="10.669106064886726"><ele>126.0</ele><time>2026-04-26T15:13:27.001Z</time></trkpt><trkpt lat="45.36141140102721" lon="10.669170573062045"><ele>126.0</ele><time>2026-04-26T15:13:28.001Z</time></trkpt><trkpt lat="45.36156476936314" lon="10.669220532004644"><ele>126.0</ele><time>2026-04-26T15:13:29.001Z</time></trkpt><trkpt lat="45.36168871745689" lon="10.669265571742706"><ele>126.0</ele><time>2026-04-26T15:13:30.001Z</time></trkpt><trkpt lat="45.36180983580142" lon="10.669324880610331"><ele>126.0</ele><time>2026-04-26T15:13:31.001Z</time></trkpt><trkpt lat="45.3619327246516" lon="10.669394930867375"><ele>126.0</ele><time>2026-04-26T15:13:32.001Z</time></trkpt><trkpt lat="45.362055716048154" lon="10.669471365525343"><ele>126.25</ele><time>2026-04-26T15:13:33.001Z</time></trkpt><trkpt lat="45.36218726897982" lon="10.66952214779164"><ele>126.5</ele><time>2026-04-26T15:13:34.001Z</time></trkpt><trkpt lat="45.3623238305407" lon="10.669534534696528"><ele>126.75</ele><time>2026-04-26T15:13:35.001Z</time></trkpt><trkpt lat="45.362457036678826" lon="10.669551084085018"><ele>127.0</ele><time>2026-04-26T15:13:36.001Z</time></trkpt><trkpt lat="45.36258681593277" lon="10.669577703270857"><ele>127.6</ele><time>2026-04-26T15:13:37.001Z</time></trkpt><trkpt lat="45.362697694051725" lon="10.669605813172627"><ele>128.2</ele><time>2026-04-26T15:13:38.001Z</time></trkpt><trkpt lat="45.362796362430934" lon="10.66963401013887"><ele>128.8</ele><time>2026-04-26T15:13:39.001Z</time></trkpt><trkpt lat="45.36288212683689" lon="10.669688367182289"><ele>129.4</ele><time>2026-04-26T15:13:40.001Z</time></trkpt><trkpt lat="45.362953867447274" lon="10.669718249638647"><ele>130.0</ele><time>2026-04-26T15:13:41.001Z</time></trkpt><trkpt lat="45.363022361081455" lon="10.6697330435328"><ele>131.0</ele><time>2026-04-26T15:13:42.001Z</time></trkpt><trkpt lat="45.36305985583232" lon="10.669813131635534"><ele>132.0</ele><time>2026-04-26T15:13:43.001Z</time></trkpt><trkpt lat="45.363082011579486" lon="10.669925472815969"><ele>133.0</ele><time>2026-04-26T15:13:44.001Z</time></trkpt><trkpt lat="45.36307773872385" lon="10.670072115545645"><ele>134.0</ele><time>2026-04-26T15:13:45.001Z</time></trkpt><trkpt lat="45.36305298801855" lon="10.670240655913886"><ele>135.0</ele><time>2026-04-26T15:13:46.001Z</time></trkpt><trkpt lat="45.36303365124547" lon="10.67042825908834"><ele>133.75</ele><time>2026-04-26T15:13:47.001Z</time></trkpt><trkpt lat="45.36301716358472" lon="10.670634749278705"><ele>132.5</ele><time>2026-04-26T15:13:48.001Z</time></trkpt><trkpt lat="45.3630021569743" lon="10.670823079668603"><ele>131.25</ele><time>2026-04-26T15:13:49.001Z</time></trkpt><trkpt lat="45.36298934598247" lon="10.670971055743234"><ele>130.0</ele><time>2026-04-26T15:13:50.001Z</time></trkpt><trkpt lat="45.362984612049196" lon="10.671098472955803"><ele>130.33333333333334</ele><time>2026-04-26T15:13:51.001Z</time></trkpt><trkpt lat="45.36300502650364" lon="10.671212497522665"><ele>130.66666666666669</ele><time>2026-04-26T15:13:52.001Z</time></trkpt><trkpt lat="45.36305403032843" lon="10.671311536974233"><ele>131.0</ele><time>2026-04-26T15:13:53.001Z</time></trkpt><trkpt lat="45.36312881825962" lon="10.671394435673767"><ele>131.33333333333334</ele><time>2026-04-26T15:13:54.001Z</time></trkpt><trkpt lat="45.36320367785362" lon="10.671442623887092"><ele>131.66666666666666</ele><time>2026-04-26T15:13:55.001Z</time></trkpt><trkpt lat="45.36327512183369" lon="10.67146500042437"><ele>132.0</ele><time>2026-04-26T15:13:56.001Z</time></trkpt><trkpt lat="45.363382604063744" lon="10.671500413258089"><ele>133.0</ele><time>2026-04-26T15:13:58.002Z</time></trkpt><trkpt lat="45.36346547006633" lon="10.671564681777431"><ele>134.0</ele><time>2026-04-26T15:14:00.002Z</time></trkpt><trkpt lat="45.363604859545944" lon="10.671563076689443"><ele>135.0</ele><time>2026-04-26T15:14:02.002Z</time></trkpt><trkpt lat="45.363692897419554" lon="10.671595915810645"><ele>136.0</ele><time>2026-04-26T15:14:03.002Z</time></trkpt><trkpt lat="45.363792924517014" lon="10.671637031521342"><ele>137.0</ele><time>2026-04-26T15:14:04.002Z</time></trkpt><trkpt lat="45.363902691054356" lon="10.671675305371563"><ele>138.5</ele><time>2026-04-26T15:14:05.002Z</time></trkpt><trkpt lat="45.3640355653071" lon="10.6717257660415"><ele>140.0</ele><time>2026-04-26T15:14:06.002Z</time></trkpt><trkpt lat="45.364164697702776" lon="10.671766735338826"><ele>141.5</ele><time>2026-04-26T15:14:07.002Z</time></trkpt><trkpt lat="45.36427780090526" lon="10.67176951384939"><ele>143.0</ele><time>2026-04-26T15:14:08.002Z</time></trkpt><trkpt lat="45.36440118984572" lon="10.671724940551984"><ele>143.0</ele><time>2026-04-26T15:14:09.002Z</time></trkpt><trkpt lat="45.36453737927658" lon="10.671708416270631"><ele>143.0</ele><time>2026-04-26T15:14:10.002Z</time></trkpt><trkpt lat="45.36467525770181" lon="10.671672602264584"><ele>143.0</ele><time>2026-04-26T15:14:11.002Z</time></trkpt><trkpt lat="45.36481638963481" lon="10.671636302218081"><ele>143.0</ele><time>2026-04-26T15:14:12.002Z</time></trkpt><trkpt lat="45.3649524718181" lon="10.671596261454532"><ele>144.25</ele><time>2026-04-26T15:14:13.002Z</time></trkpt><trkpt lat="45.36508680909049" lon="10.67164275743048"><ele>145.5</ele><time>2026-04-26T15:14:14.002Z</time></trkpt><trkpt lat="45.36521328155121" lon="10.671669690994069"><ele>146.75</ele><time>2026-04-26T15:14:15.002Z</time></trkpt><trkpt lat="45.36532953243938" lon="10.671683840662498"><ele>148.0</ele><time>2026-04-26T15:14:16.002Z</time></trkpt><trkpt lat="45.36542568968575" lon="10.67170828422783"><ele>148.0</ele><time>2026-04-26T15:14:17Z</time></trkpt><trkpt lat="45.36551404966933" lon="10.67172387703011"><ele>148.0</ele><time>2026-04-26T15:14:18Z</time></trkpt><trkpt lat="45.36560340517368" lon="10.67173948405546"><ele>148.0</ele><time>2026-04-26T15:14:19Z</time></trkpt><trkpt lat="45.365696268692226" lon="10.67175346460826"><ele>148.0</ele><time>2026-04-26T15:14:20Z</time></trkpt><trkpt lat="45.36578967991568" lon="10.671771979704625"><ele>148.0</ele><time>2026-04-26T15:14:21Z</time></trkpt><trkpt lat="45.36589006326153" lon="10.671803914888581"><ele>148.5</ele><time>2026-04-26T15:14:22Z</time></trkpt><trkpt lat="45.36598810262894" lon="10.671813579418032"><ele>149.0</ele><time>2026-04-26T15:14:23Z</time></trkpt><trkpt lat="45.36608626257879" lon="10.671828859803552"><ele>149.5</ele><time>2026-04-26T15:14:24Z</time></trkpt><trkpt lat="45.36616945849537" lon="10.671834921447443"><ele>150.0</ele><time>2026-04-26T15:14:25Z</time></trkpt><trkpt lat="45.366247213122506" lon="10.671843437850036"><ele>150.5</ele><time>2026-04-26T15:14:26Z</time></trkpt><trkpt lat="45.366314260436695" lon="10.67185020399035"><ele>151.0</ele><time>2026-04-26T15:14:27Z</time></trkpt><trkpt lat="45.36643182339044" lon="10.671864485724713"><ele>151.2</ele><time>2026-04-26T15:14:29Z</time></trkpt><trkpt lat="45.366514930462756" lon="10.671850019585285"><ele>151.39999999999998</ele><time>2026-04-26T15:14:31Z</time></trkpt><trkpt lat="45.366616453913394" lon="10.671790382002964"><ele>151.6</ele><time>2026-04-26T15:14:33Z</time></trkpt><trkpt lat="45.3666734299705" lon="10.671716028345884"><ele>151.79999999999998</ele><time>2026-04-26T15:14:34Z</time></trkpt><trkpt lat="45.36674252057738" lon="10.671684024309641"><ele>152.0</ele><time>2026-04-26T15:14:35Z</time></trkpt><trkpt lat="45.366846491246804" lon="10.67157958594271"><ele>152.0</ele><time>2026-04-26T15:14:37Z</time></trkpt><trkpt lat="45.366931316223116" lon="10.671477355563297"><ele>152.0</ele><time>2026-04-26T15:14:39Z</time></trkpt><trkpt lat="45.36698268012897" lon="10.67140404897492"><ele>152.0</ele><time>2026-04-26T15:14:42Z</time></trkpt><trkpt lat="45.366910799427835" lon="10.671503712640325"><ele>152.0</ele><time>2026-04-26T15:14:57Z</time></trkpt><trkpt lat="45.36685507226886" lon="10.671570159939048"><ele>152.0</ele><time>2026-04-26T15:14:58Z</time></trkpt><trkpt lat="45.36676505257433" lon="10.671687909363314"><ele>152.0</ele><time>2026-04-26T15:14:59Z</time></trkpt><trkpt lat="45.36668688966483" lon="10.671738017100362"><ele>152.0</ele><time>2026-04-26T15:15:00Z</time></trkpt><trkpt lat="45.36660374069256" lon="10.671735148367205"><ele>152.0</ele><time>2026-04-26T15:15:01Z</time></trkpt><trkpt lat="45.36654543993404" lon="10.671770786000854"><ele>152.0</ele><time>2026-04-26T15:15:02Z</time></trkpt><trkpt lat="45.36647113417241" lon="10.671812376166091"><ele>152.0</ele><time>2026-04-26T15:15:04Z</time></trkpt><trkpt lat="45.366457879628484" lon="10.67191381838949"><ele>152.0</ele><time>2026-04-26T15:15:11Z</time></trkpt><trkpt lat="45.36640396305885" lon="10.671972509267576"><ele>152.0</ele><time>2026-04-26T15:15:15Z</time></trkpt><trkpt lat="45.36639111416197" lon="10.67181976942531"><ele>152.0</ele><time>2026-04-26T15:15:16.001Z</time></trkpt><trkpt lat="45.366296604617" lon="10.672447484241538"><ele>152.33333333333331</ele><time>2026-04-26T15:15:43.002Z</time></trkpt><trkpt lat="45.36625964138825" lon="10.672573598900994"><ele>152.66666666666666</ele><time>2026-04-26T15:15:45.002Z</time></trkpt><trkpt lat="45.36621625598443" lon="10.672730000991145"><ele>153.0</ele><time>2026-04-26T15:15:47.002Z</time></trkpt><trkpt lat="45.36618035871551" lon="10.672821521284066"><ele>153.33333333333334</ele><time>2026-04-26T15:15:48.002Z</time></trkpt><trkpt lat="45.36615282121957" lon="10.672916043774075"><ele>153.66666666666669</ele><time>2026-04-26T15:15:49.002Z</time></trkpt><trkpt lat="45.366118142785346" lon="10.673028317469756"><ele>154.0</ele><time>2026-04-26T15:15:50.002Z</time></trkpt><trkpt lat="45.36607990122129" lon="10.673130733579608"><ele>154.5</ele><time>2026-04-26T15:15:51.002Z</time></trkpt><trkpt lat="45.36604105328339" lon="10.673226765127644"><ele>155.0</ele><time>2026-04-26T15:15:52.002Z</time></trkpt><trkpt lat="45.36601578468019" lon="10.673314277344847"><ele>155.5</ele><time>2026-04-26T15:15:53.002Z</time></trkpt><trkpt lat="45.36597810636593" lon="10.673397920601536"><ele>156.0</ele><time>2026-04-26T15:15:54.002Z</time></trkpt><trkpt lat="45.3659394881559" lon="10.673470698310338"><ele>156.5</ele><time>2026-04-26T15:15:55.002Z</time></trkpt><trkpt lat="45.36589038663613" lon="10.673586601772687"><ele>157.0</ele><time>2026-04-26T15:15:57.002Z</time></trkpt><trkpt lat="45.36587498108143" lon="10.67371107405455"><ele>157.0</ele><time>2026-04-26T15:16:01.002Z</time></trkpt><trkpt lat="45.36579981998165" lon="10.673771004613307"><ele>157.0</ele><time>2026-04-26T15:16:05.002Z</time></trkpt><trkpt lat="45.365750562642674" lon="10.67392027016183"><ele>157.0</ele><time>2026-04-26T15:16:07.002Z</time></trkpt><trkpt lat="45.36569655688033" lon="10.674041412075685"><ele>157.0</ele><time>2026-04-26T15:16:08.002Z</time></trkpt><trkpt lat="45.36565947961697" lon="10.674117729468362"><ele>157.0</ele><time>2026-04-26T15:16:09.002Z</time></trkpt><trkpt lat="45.36560077056509" lon="10.674245032423267"><ele>157.0</ele><time>2026-04-26T15:16:11.002Z</time></trkpt><trkpt lat="45.36558624252533" lon="10.674371465035211"><ele>157.0</ele><time>2026-04-26T15:16:13.002Z</time></trkpt><trkpt lat="45.36557269735344" lon="10.674554728738931"><ele>157.0</ele><time>2026-04-26T15:16:15.002Z</time></trkpt><trkpt lat="45.36554327114425" lon="10.674659448225732"><ele>157.0</ele><time>2026-04-26T15:16:16.002Z</time></trkpt><trkpt lat="45.36549933182625" lon="10.674757950637378"><ele>157.0</ele><time>2026-04-26T15:16:17.002Z</time></trkpt><trkpt lat="45.36545655874451" lon="10.674895235752128"><ele>157.2</ele><time>2026-04-26T15:16:18.002Z</time></trkpt><trkpt lat="45.365418364785256" lon="10.675025906804974"><ele>157.39999999999998</ele><time>2026-04-26T15:16:19.003Z</time></trkpt><trkpt lat="45.36539702006649" lon="10.675164013516826"><ele>157.60000000000002</ele><time>2026-04-26T15:16:20.003Z</time></trkpt><trkpt lat="45.365389276724066" lon="10.675319853689205"><ele>157.8</ele><time>2026-04-26T15:16:21.003Z</time></trkpt><trkpt lat="45.365376867761725" lon="10.67548233623368"><ele>158.0</ele><time>2026-04-26T15:16:22.003Z</time></trkpt><trkpt lat="45.36536442564267" lon="10.675598013588866"><ele>158.60000000000002</ele><time>2026-04-26T15:16:23.001Z</time></trkpt><trkpt lat="45.36534798491428" lon="10.675703745962522"><ele>159.20000000000002</ele><time>2026-04-26T15:16:24.001Z</time></trkpt><trkpt lat="45.36533354590441" lon="10.675887278800907"><ele>159.8</ele><time>2026-04-26T15:16:26.001Z</time></trkpt><trkpt lat="45.36531445379978" lon="10.67601815899862"><ele>160.4</ele><time>2026-04-26T15:16:28.001Z</time></trkpt><trkpt lat="45.36525922886876" lon="10.676107395092803"><ele>161.0</ele><time>2026-04-26T15:16:30.001Z</time></trkpt><trkpt lat="45.36518464788506" lon="10.67610173827679"><ele>161.0</ele><time>2026-04-26T15:16:32.001Z</time></trkpt><trkpt lat="45.36508028024193" lon="10.676035326551936"><ele>161.0</ele><time>2026-04-26T15:16:34.001Z</time></trkpt><trkpt lat="45.365013696685075" lon="10.676009221341014"><ele>161.0</ele><time>2026-04-26T15:16:35.001Z</time></trkpt><trkpt lat="45.36493343832153" lon="10.675988297098492"><ele>161.0</ele><time>2026-04-26T15:16:36.001Z</time></trkpt><trkpt lat="45.36484985277392" lon="10.675954541376637"><ele>161.0</ele><time>2026-04-26T15:16:37.001Z</time></trkpt><trkpt lat="45.364772049787746" lon="10.675934252634459"><ele>161.0</ele><time>2026-04-26T15:16:38.001Z</time></trkpt><trkpt lat="45.364652940137226" lon="10.675896325639147"><ele>160.66666666666666</ele><time>2026-04-26T15:16:40.001Z</time></trkpt><trkpt lat="45.36456171400801" lon="10.675938262287524"><ele>160.33333333333331</ele><time>2026-04-26T15:16:42.001Z</time></trkpt><trkpt lat="45.364512402028375" lon="10.675999471330949"><ele>160.0</ele><time>2026-04-26T15:16:43.001Z</time></trkpt><trkpt lat="45.36439938191765" lon="10.676047273276094"><ele>159.66666666666666</ele><time>2026-04-26T15:16:45.001Z</time></trkpt><trkpt lat="45.36431073121077" lon="10.67604107829213"><ele>159.33333333333334</ele><time>2026-04-26T15:16:47.001Z</time></trkpt><trkpt lat="45.36423109741487" lon="10.676049341409339"><ele>159.0</ele><time>2026-04-26T15:16:49.001Z</time></trkpt><trkpt lat="45.36420788034784" lon="10.676163712926403"><ele>159.0</ele><time>2026-04-26T15:16:51.001Z</time></trkpt><trkpt lat="45.36424294161245" lon="10.676292992023281"><ele>159.0</ele><time>2026-04-26T15:16:53.001Z</time></trkpt><trkpt lat="45.364289180654986" lon="10.676357523396561"><ele>159.0</ele><time>2026-04-26T15:16:54.001Z</time></trkpt><trkpt lat="45.36434766156674" lon="10.676407736030752"><ele>159.0</ele><time>2026-04-26T15:16:55.001Z</time></trkpt><trkpt lat="45.3644129286151" lon="10.676471318584868"><ele>159.0</ele><time>2026-04-26T15:16:56.001Z</time></trkpt><trkpt lat="45.36449300608324" lon="10.676562664111422"><ele>159.0</ele><time>2026-04-26T15:16:57.001Z</time></trkpt><trkpt lat="45.36457189577295" lon="10.676618326462172"><ele>159.0</ele><time>2026-04-26T15:16:58.001Z</time></trkpt><trkpt lat="45.364619676976915" lon="10.676679737441168"><ele>159.0</ele><time>2026-04-26T15:16:59.001Z</time></trkpt><trkpt lat="45.36459924391366" lon="10.676785612635367"><ele>159.0</ele><time>2026-04-26T15:17:02.001Z</time></trkpt></trkseg></trk></gpx>